     2              OBSERVATION DATA    GPS                 RINEX VERSION / TYPE
TRRINEXO V2.7.0 LH UCSD 13-FEB-98 16:13                     PGM / RUN BY / DATE
                                                            COMMENT
Original Marker Name: OBC1                                  COMMENT
Campaign Name: Old Beach 1998                               COMMENT
4-Character Station Name: OBC1                              COMMENT
6-Character Antenna Code: TRMSST                            COMMENT
Vertical Measurement Point: BGP                             COMMENT
Vertical Offset to Rinex Ref. Point: 0.0597                 COMMENT
Radial Measurement Point: NGP                               COMMENT
Radial Offset to Rinex Ref. Point: 0.2334                   COMMENT
Antenna Height from Field Measurement: 1.1890 m             COMMENT
Original XYZ: -2297936.3331 -4817479.3678 3479828.1791      COMMENT
New XYZ position is based on association with SCEC monument COMMENT
E1D0I6Z2+0091. Position of that monument is believed to be  COMMENT
valid to within 1 m horizontally; vertical accuracy         COMMENT
should be no worse than 3-times this value.                 COMMENT
                                                            COMMENT
Revised Rinex header created by UCSD GPS archive for        COMMENT
GSAC on 31-Aug-1999 (1999:243) 22:37:57 GMT                 COMMENT
For assistance contact dagnew@ucsd.edu or hjohnson@ucsd.edu COMMENT
                                                            COMMENT
OLD BEACH NO 1 1934                                         MARKER NAME
Anderson SCRIPPS INSTITUTION OF OCEANOGRAPHY                OBSERVER / AGENCY
422 TRIMBLE 4000 SST 4.81 / 4.20                            REC # / TYPE / VERS
62875 TR 4000SST L1/L2 GEO                                  ANT # / TYPE
 -2297969.0000 -4817527.0000  3479883.0000                  APPROX POSITION XYZ
        1.1062        0.0000        0.0000                  ANTENNA: DELTA H/E/N
     1     2     0                                          WAVELENGTH FACT L1/2
     5    C1    L1    L2    S1    S2                        # / TYPES OF OBSERV
    30                                                      INTERVAL
  1998     2    12     2     9    0.000000                  TIME OF FIRST OBS
  1998     2    12    18     6   60.000000                  TIME OF LAST OBS
     0                                                      # OF SATELLITES
                                                            END OF HEADER
 98  2 12  2  9  0.0000000  0  8 05 06 08 09 10 24 30 04
  20394869.211          -0.15917        -0.26813        27.250           3.313
  24177329.992          -0.54915        -0.00911         8.000           0.531
  22191767.930          -0.68116        -0.03411        14.000           1.438
  23468918.125          -0.21816        -0.21711        12.000           1.000
  22198894.422          -0.31316        -0.35212        16.000           1.781
  20554984.789          -0.29917        -0.19714        22.500           4.063
  22229643.570          -0.05516        -0.14412        17.500           1.688
  23146972.781          -0.55016        -0.13112        15.250           1.500
 98  2 12  2  9 30.0000000  0  8 05 06 08 09 10 24 30 04
  20370191.789     -129682.855 7   -101051.697 3        27.000           3.375
  24142891.125     -180964.160 5   -141010.554 1         7.750           0.500
  22178984.938      -67171.841 6    -52341.190 2        13.750           1.500
  23463824.188      -26783.547 6    -20870.315 1        12.000           0.938
  22163158.688     -187810.134 6   -146345.623 2        16.500           1.781
  20540678.078      -75194.810 7    -58593.291 4        23.000           4.156
  22192314.258     -196165.728 6   -152856.480 2        17.500           1.750
  23143153.500      -20074.326 6    -15642.011 1        14.750           1.438
 98  2 12  2 10  0.0000000  0  8 05 06 08 09 10 24 30 04
  20345588.203     -258977.856 7   -201801.032 3        26.500           3.344
  24108436.633     -362035.472 5   -282105.040 1         8.000           0.500
  22166276.266     -133951.973 6   -104377.660 2        13.500           1.500
  23458731.625      -53543.874 5    -41722.511 1        10.750           0.813
  22127469.328     -375355.099 6   -292484.510 2        17.000           1.938
  20526417.500     -150134.921 7   -116988.164 4        22.750           4.125
  22155019.094     -392154.052 6   -305574.620 2        18.250           1.750
  23139336.383      -40133.163 6    -31272.268 2        15.500           1.531
 98  2 12  2 10 30.0000000  0  8 05 06 08 09 10 24 30 04
  20321068.398     -387826.357 7   -302202.450 3        27.000           3.281
  24073973.250     -543151.042 5   -423234.019 1         9.250           0.531
  22153658.781     -200269.586 6   -156053.727 1        13.750           1.344
  23453653.602      -80226.978 5    -62514.550 1        11.000           0.875
  22091839.945     -562574.041 6   -438369.365 2        16.750           1.938
  20512218.141     -224741.640 7   -175123.252 4        22.750           4.219
  22117769.016     -587906.241 6   -458108.763 2        18.250           1.719
  23135533.930      -60115.353 6    -46842.794 2        15.250           1.563
 98  2 12  2 11  0.0000000  0  8 05 06 08 09 10 24 30 04
  20296642.664     -516184.582 7   -402221.828 3        26.250           3.313
  24039504.977     -724275.654 5   -564370.016 1         7.750           0.500
  22141131.695     -266090.357 6   -207342.643 2        14.250           1.500
  23448596.094     -106807.099 6    -83226.339 1        12.000           0.938
  22056283.477     -749441.481 6   -583980.307 2        16.750           1.906
  20498091.125     -298979.656 7   -232971.040 4        22.500           4.250
  22080569.930     -783386.810 6   -610431.243 2        18.500           1.750
  23131752.742      -79984.599 6    -62325.309 1        14.250           1.438
 98  2 12  2 11 30.0000000  0  8 05 06 08 09 10 24 30 04
  20272312.469     -644041.946 7   -501850.934 3        26.500           3.344
  24005040.328     -905390.038 5   -705498.083 1         8.500           0.406
  22128703.953     -331408.059 6   -258239.562 2        14.000           1.500
  23443554.703     -133276.513 5   -103851.865 1        11.000           0.875
  22020792.141     -935938.891 6   -729302.924 2        17.000           1.844
  20484036.234     -372839.547 7   -290524.187 4        22.500           4.344
  22043427.734     -978581.157 6   -762530.705 2        18.750           1.781
  23127999.289      -99715.514 6    -77700.045 1        14.250           1.313
 98  2 12  2 11 59.9990000  0  8 05 06 08 09 10 24 30 04
  20248076.730     -771400.208 7   -601091.118 3        26.500           3.219
  23970581.753    -1086468.041 4   -846597.809 1         7.000           0.438
  22116369.698     -396213.231 6   -308737.089 1        14.000           1.344
  23438542.222     -159627.649 5   -124385.224 1        11.250           0.813
  21985378.706    -1122049.668 6   -874324.264 2        17.500           1.906
  20470056.339     -446308.433 7   -347772.652 4        22.250           4.344
  22006340.940    -1173470.485 6   -914392.478 2        18.750           1.750
  23124267.347     -119318.186 6    -92974.836 1        15.000           1.375
 98  2 12  2 12 29.9990000  0  8 05 06 08 09 10 24 30 04
  20223939.229     -898243.312 7   -699929.895 3        26.500           3.281
  23936133.097    -1267512.338 5   -987671.262 1         8.000           0.500
  22104135.769     -460504.130 6   -358833.884 2        13.750           1.500
  23433553.058     -185847.717 5   -144816.451 1        10.250           0.656
  21950036.105    -1307778.893 6  -1019048.299 2        17.500           2.000
  20456152.519     -519372.056 7   -404705.329 4        23.000           4.406
  21969309.690    -1368060.065 6  -1066020.696 2        19.000           1.906
  23120560.198     -138785.916 6   -108144.481 1        14.250           1.406
 98  2 12  2 12 59.9990000  0  8 05 06 08 09 10 24 30 04
  20199901.190    -1024564.004 7   -798361.584 3        26.250           3.250
  23901685.878    -1448521.716 4  -1128717.489 1         7.250           0.563
  22092001.042     -524282.280 6   -408531.149 1        14.000           1.438
  23428594.964     -211919.150 5   -165131.856 1        11.000           0.750
  21914766.339    -1493110.929 6  -1163462.841 2        17.250           2.063
  20442324.190     -592033.245 7   -461324.420 5        22.750           4.500
  21932341.644    -1562339.750 6  -1217407.424 2        19.000           1.906
  23116880.354     -158122.019 6   -123211.565 1        14.500           1.313
 98  2 12  2 13 29.9990000  0  8 05 06 08 09 10 24 30 04
  20175964.065    -1150355.975 7   -896381.297 3        26.250           3.250
  23867247.417    -1629495.247 5  -1269735.818 1         8.250           0.438
  22079961.964     -587547.033 6   -457828.362 1        13.750           1.375
  23423662.534     -237835.946 5   -185326.764 1        11.000           0.844
  21879576.612    -1678029.659 6  -1307555.317 2        17.000           2.063
  20428573.480     -664298.649 7   -517635.118 4        22.750           4.469
  21895430.011    -1756305.967 6  -1368549.902 2        19.000           1.938
  23113228.698     -177324.170 6   -138174.282 1        15.250           1.188
 98  2 12  2 13 59.9990000  0  8 05 06 08 09 10 24 30 04
  20152127.753    -1275616.349 7   -993986.768 3        26.250           3.313
  23832813.690    -1810437.663 4  -1410729.885 1         6.750           0.531
  22068020.128     -650307.093 6   -506732.313 1        14.250           1.438
  23418755.487     -263607.527 5   -205408.536 1         9.500           0.781
  21844465.839    -1862538.468 6  -1451328.368 2        17.250           2.031
  20414894.050     -736180.836 7   -573647.199 5        23.250           4.531
  21858577.089    -1949975.968 6  -1519461.557 2        19.250           1.938
  23109595.128     -196417.643 6   -153052.288 1        14.750           1.156
 98  2 12  2 14 29.9990000  0  8 05 06 08 09 10 24 30 04
  20128399.511    -1400303.300 7  -1091145.422 3        26.250           3.313
  23798392.472    -1991323.842 5  -1551680.139 1         8.500           0.406
  22056175.370     -712542.704 6   -555227.589 1        13.750           1.406
  23413882.230     -289210.015 5   -225358.547 1         9.750           0.750
  21809437.784    -2046604.427 6  -1594756.361 2        17.000           2.063
  20401295.339     -807648.569 7   -629336.318 5        23.250           4.500
  21821787.214    -2143309.435 6  -1670110.986 2        19.250           2.031
  23105990.925     -215361.844 6   -167813.986 1        14.750           1.188
 98  2 12  2 14 59.9990000  0  8 05 06 08 09 10 24 30 04
  20104788.847    -1524386.525 7  -1187833.635 3        26.500           3.281
  23763992.245    -2172099.850 5  -1692544.537 1         7.750           0.563
  22044441.526     -774221.219 6   -603288.764 1        13.500           1.344
  23409049.495     -314621.234 5   -245159.501 1        10.500           0.625
  21774507.058    -2230180.259 6  -1737802.416 2        16.750           2.156
  20387781.370     -878664.494 7   -684673.392 4        24.000           4.469
  21785072.847    -2336241.310 6  -1820447.485 2        19.750           2.063
  23102421.151     -234113.504 6   -182425.680 1        13.750           1.125
 98  2 12  2 15 29.9990000  0  8 05 06 08 09 10 24 30 04
  20081287.190    -1647888.040 7  -1284068.583 3        26.250           3.125
  23729610.933    -2352796.986 5  -1833347.439 1         8.500           0.406
  22032801.214     -835385.998 6   -650949.632 1        13.000           1.313
  23404235.347     -339904.171 5   -264860.483 1        10.250           0.656
  21739660.706    -2413310.757 6  -1880501.463 2        17.500           2.188
  20374347.901     -949258.576 7   -739681.760 5        23.500           4.500
  21748428.315    -2528800.810 6  -1970493.821 2        18.750           2.063
  23098886.120     -252711.951 6   -196917.980 1        15.000           1.125
 98  2 12  2 15 59.9990000  0  8 05 06 08 09 10 24 30 04
  20057892.612    -1770823.705 7  -1379862.592 3        26.000           3.281
  23695235.167    -2533421.844 5  -1974093.989 1         8.000           0.406
  22021256.823     -896056.522 6   -698225.367 1        13.250           1.344
  23399445.667     -365076.438 5   -284475.235 1         9.500           0.844
  21704893.292    -2596015.570 6  -2022868.819 2        17.750           2.188
  20360994.448    -1019430.465 7   -794361.137 5        24.250           4.594
  21711855.901    -2720995.156 6  -2120255.618 2        19.250           2.125
  23095366.565     -271186.575 6   -211313.758 1        14.000           1.094
 98  2 12  2 16 29.9990000  0  8 05 06 08 09 10 24 30 04
  20034597.769    -1893235.180 7  -1475248.154 3        26.250           3.219
  23660867.940    -2714028.225 5  -2114826.198 1         8.000           0.563
  22009791.589     -956280.422 6   -745153.085 1        12.500           1.406
  23394671.425     -390183.121 5   -304038.926 1         9.500           0.906
  21670198.753    -2778337.909 6  -2164938.128 2        17.250           2.156
  20347712.636    -1089229.135 7   -848749.700 5        24.000           4.563
  21675347.487    -2912846.417 7  -2269750.077 2        20.000           2.094
  23091869.097     -289570.620 6   -225638.970 1        13.250           1.125
 98  2 12  2 16 59.9990000  0  8 05 06 08 09 10 24 30 04
  20011401.011    -2015143.006 7  -1570241.253 3        26.250           3.281
  23626492.550    -2894640.953 4  -2255563.350 1         6.750           0.563
  21998414.237    -1016075.967 6   -791747.014 1        13.000           1.281
  23389901.479     -415243.349 5   -323566.397 1        10.000           0.813
  21635571.003    -2960293.886 6  -2306721.963 2        17.250           2.219
  20334497.097    -1158689.286 7   -902874.473 5        25.000           4.563
  21638899.440    -3104389.681 6  -2419004.552 2        19.500           2.188
  23088381.964     -307902.357 6   -239923.443 1        13.000           1.250
 98  2 12  2 17 29.9990000  0  8 05 06 08 09 10 24 30 04
  19988300.073    -2136536.104 7  -1664833.274 3        26.000           3.094
  23592129.683    -3075263.758 5  -2396308.333 1         8.250           0.563
  21987121.214    -1075444.924 6   -838008.539 1        13.000           1.250
  23385142.308     -440242.180 5   -343046.008 1         9.500           0.594
  21601018.917    -3141866.068 6  -2448206.737 2        17.750           2.219
  20321338.394    -1227822.540 7   -956744.535 5        24.750           4.594
  21602504.636    -3295639.655 6  -2568030.466 2        19.750           2.250
  23084898.261     -326195.785 6   -254178.061 1        13.250           1.188
 98  2 12  2 17 59.9990000  0  8 05 06 08 09 10 24 30 04
  19965294.659    -2257430.207 7  -1759036.467 3        26.000           3.094
  23557754.104    -3255894.460 4  -2537059.463 1         7.000           0.531
  21975897.659    -1134400.072 6   -883947.613 1        13.500           1.313
  23380398.034     -465177.025 5   -362475.735 1         8.250           0.625
  21566541.839    -3323043.140 6  -2589383.636 2        17.750           2.250
  20308243.237    -1296645.077 7  -1010372.471 5        24.750           4.625
  21566167.175    -3486593.660 6  -2716825.764 2        19.750           2.250
  23081428.534     -344445.005 6   -268398.232 1        13.250           1.000
 98  2 12  2 18 29.9990000  0  8 05 06 08 09 10 24 30 04
  19942383.222    -2377829.947 7  -1852854.437 3        25.750           3.156
  23523377.065    -3436532.695 5                         7.750
  21964758.519    -1192945.833 6   -929567.669 1        13.500           1.344
  23375664.425     -490050.793 5   -381857.920 1         9.250           0.875
  21532139.940    -3503819.325 6                        17.500
  20295202.714    -1365167.937 7  -1063766.895 5        24.750           4.594
  21529887.151    -3677249.433 6  -2865388.680 2        19.500           2.219
  23077963.675     -362636.266 6   -282573.232 1        12.500           1.063
 98  2 12  2 18 59.9980000  0  8 05 06 08 09 10 24 30 04
  19919568.021    -2497728.444 7  -1946281.833 3        26.250           3.156
  23489009.373    -3617149.221 5  -2818556.568 1         7.750           0.656
  21953695.873    -1251071.077 6   -974860.069 1        13.000           1.313
  23370946.022     -514847.112 5   -401179.750 1         9.750           1.000
  21497822.209    -3684172.836 6  -2870783.306 2        17.500           2.281
  20282223.764    -1433381.312 7  -1116920.158 5        24.500           4.594
  21493664.061    -3867593.819 6  -3013708.962 2        19.250           2.281
  23074515.092     -380765.886 6   -296700.213 1        13.000           1.125
 98  2 12  2 19 29.9980000  0  8 05 06 08 09 10 24 30 04
  19896842.326    -2617148.615 7  -2039336.505 3        25.750           3.219
  23454644.756    -3797751.584 5  -2959285.632 1         7.750           0.594
  21942713.873    -1308791.944 6  -1019837.384 1        12.750           1.375
  23366241.904     -539578.493 5   -420450.983 1         9.500           0.813
  21463574.389    -3864130.145 6  -3011009.745 2        18.000           2.375
  20269299.654    -1501293.933 7  -1169839.071 5        25.250           4.625
  21457502.850    -4057630.106 6  -3161789.153 2        19.000           2.250
  23071077.764     -398834.248 6   -310779.426 1        13.750           1.125
 98  2 12  2 19 59.9980000  0  8 05 06 08 09 10 24 30 04
  19874208.209    -2736094.876 7  -2132021.895 3        26.750           3.094
  23420272.170    -3978339.636 5  -3100003.549 1         7.750           0.531
  21931806.381    -1366103.536 6  -1064495.752 1        13.000           1.156
  23361544.951     -564258.228 5   -439681.943 1         8.000           0.563
  21429404.943    -4043705.479 6  -3150938.535 2        17.750           2.344
  20256435.701    -1568894.224 7  -1222514.607 5        24.750           4.563
  21421400.436    -4247348.761 6  -3309621.838 2        19.500           2.156
  23067646.975     -416847.420 6   -324815.660 1        12.500           1.063
 98  2 12  2 20 29.9980000  0  8 05 06 08 09 10 24 30 04
  19851664.967    -2854559.184 7  -2224331.745 3        25.500           3.219
  23385907.982    -4158933.850 5  -3240726.267 1         8.000           0.594
  21920979.318    -1422999.716 6  -1108830.444 1        12.750           1.375
  23356856.686     -588888.154 5   -458874.100 1         9.500           0.594
  21395303.990    -4222902.884 6  -3290572.836 2        17.750           2.438
  20243630.811    -1636190.990 7  -1274953.629 5        25.500           4.594
  21385357.990    -4436756.646 7  -3457212.376 2        20.000           2.313
  23064226.295     -434821.963 5   -338821.804 1        11.750           1.094
 98  2 12  2 20 59.9980000  0  8 05 06 08 09 10 24 30 04
  19829217.232    -2972525.923 7  -2316253.870 3        26.000           3.125
  23351542.287    -4339539.663 5  -3381458.011 1         8.250           0.625
  21910233.647    -1479476.029 6  -1152837.974 1        13.250           1.344
  23352179.553     -613477.792 5   -478034.835 1         9.250           0.688
  21361276.686    -4401721.327 6  -3429911.832 3        18.500           2.500
  20230880.615    -1703183.206 7  -1327155.340 5        25.000           4.500
  21349374.271    -4625848.040 6  -3604556.285 2        19.500           2.281
  23060813.318     -452763.602 6   -352802.289 1        12.000           1.156
 98  2 12  2 21 29.9980000  0  8 05 06 08 09 10 24 30 04
  19806861.404    -3090002.016 7  -2407793.677 3        26.000           3.094
  23317172.631    -4520185.926 5  -3522221.257 1         8.750           0.563
  21899565.576    -1535543.099 6  -1196526.614 1        13.000           1.219
  23347497.115     -638066.718 5   -497195.078 1         7.750           0.781
  21327319.451    -4580173.495 6  -3568965.437 2        18.750           2.375
  20218190.584    -1769870.983 7  -1379119.828 4        25.000           4.406
  21313448.014    -4814632.504 6  -3751661.044 2        19.250           2.250
  23057404.529     -470680.414 6   -366763.437 1        12.000           1.031
 98  2 12  2 21 59.9980000  0  8 05 06 08 09 10 24 30 04
  19784603.396    -3206968.827 7  -2498936.641 3        26.000           3.125
  23282783.701    -4700880.804 5  -3663022.446 1         8.750           0.469
  21888975.623    -1591191.030 6  -1239888.629 1        12.500           1.188
  23342819.576     -662658.566 5   -516357.622 1         8.000           0.594
  21293433.186    -4758243.547 6  -3707721.290 2        18.250           2.438
  20205560.639    -1836244.012 7  -1430839.057 4        25.000           4.406
  21277583.459    -5003108.999 7  -3898525.813 2        20.000           2.375
  23054002.272     -488566.272 6   -380700.465 1        12.000           1.156
 98  2 12  2 22 29.9980000  0  8 05 06 08 09 10 24 30 04
  19762442.178    -3323422.364 7  -2589679.654 3        25.500           3.125
  23248393.217    -4881615.930 5  -3803854.937 1         9.000           0.656
  21878464.631    -1646427.090 6  -1282929.709 1        12.500           1.344
  23338141.303     -687253.532 5   -535522.514 1        10.250           0.406
  21259620.670    -4935909.923 6  -3846162.578 3        17.500           2.500
  20192988.709    -1902308.846 7  -1482318.139 4        25.000           4.438
  21241776.748    -5191280.590 7  -4045153.002 2        20.000           2.406
  23050608.295     -506408.722 6   -394603.671 1        12.250           1.125
 98  2 12  2 22 59.9980000  0  8 05 06 08 09 10 24 30 04
  19740380.998    -3439365.796 7  -2680025.174 3        25.750           3.125
  23213989.943    -5062381.540 5  -3944711.211 1         8.500           0.563
  21868029.928    -1701257.612 6  -1325654.802 1        12.250           1.281
  23333456.740     -711853.463 5   -554691.264 1         9.750           0.563
  21225892.920    -5113159.242 6  -3984278.902 3        18.750           2.563
  20180477.537    -1968052.400 7  -1533546.864 4        24.750           4.313
  21206026.990    -5379148.957 6  -4191543.913 2        19.750           2.281
  23047220.725     -524202.681 6   -408469.105 1        12.250           1.031
 98  2 12  2 23 29.9980000  0  8 05 06 08 09 10 24 30 04
  19718412.014    -3554804.884 7  -2769977.710 3        25.750           3.188
  23179589.607    -5243177.463 5  -4085591.095 1         9.250           0.594
  21857669.295    -1755687.934 6  -1368068.042 1        12.500           1.094
  23328778.459     -736447.431 5   -573855.423 1         8.500           0.906
  21192247.592    -5289969.141 6  -4122052.817 3        18.750           2.563
  20168029.568    -2033476.624 7  -1584526.768 4        24.750           4.313
  21170332.732    -5566719.759 7  -4337702.957 2        20.250           2.281
  23043840.834     -541957.763 6   -422304.216 1        12.500           0.938
 98  2 12  2 23 59.9980000  0  8 05 06 08 09 10 24 30 04
  19696540.686    -3669735.113 7  -2859533.724 3        25.500           3.188
  23145179.959    -5423983.307 5  -4226478.726 1         8.750           0.594
  21847387.623    -1809721.723 5  -1410172.278 1        11.750           1.094
  23324100.693     -761011.448 5   -592996.261 1         8.000           0.813
  21158686.834    -5466332.606 6  -4259478.864 3        18.750           2.531
  20155636.678    -2098597.217 7  -1635270.076 4        24.500           4.375
  21134699.826    -5753983.217 7  -4483622.515 2        21.000           2.344
  23040472.701     -559675.246 6   -436110.034 1        12.500           1.000
 98  2 12  2 24 29.9980000  0  8 05 06 08 09 10 24 30 04
  19674765.951    -3784172.176 7  -2948705.457 3        26.250           3.125
  23110776.045    -5604795.439 5  -4367371.242 1         9.000           0.438
  21837182.365    -1863365.438 6  -1451972.584 1        12.000           1.313
  23319435.701     -785534.584 5   -612105.233 1         8.750           0.594
  21125209.670    -5642256.301 6  -4396562.227 3        18.750           2.563
  20143296.428    -2163432.761 7  -1685791.266 4        24.250           4.313
  21099121.623    -5940930.485 7  -4629295.676 2        20.250           2.406
  23037103.693     -577363.079 6   -449892.768 1        12.250           0.969
 98  2 12  2 24 59.9980000  0  8 05 06 08 09 10 24 30 04
  19653082.342    -3898119.277 7  -3037495.405 3        25.500           3.125
  23076364.553    -5785621.486 5  -4508274.591 1         9.000           0.531
  21827048.061    -1916620.032 6  -1493469.697 1        12.250           1.281
  23314778.029     -810027.716 5   -631190.769 1         9.250           0.563
  21091815.373    -5817748.349 6  -4533309.254 3        19.000           2.656
  20131014.146    -2227987.943 7  -1736093.994 4        24.250           4.188
  21063611.279    -6127534.466 7  -4774701.357 2        20.750           2.438
  23033737.873     -595025.337 6   -463655.560 1        12.000           1.000
 98  2 12  2 25 29.9980000  0  8 05 06 08 09 10 24 30 04
  19631490.920    -4011582.593 7  -3125908.373 3        25.500           3.250
  23041949.646    -5966462.176 5  -4649189.346 1         9.250           0.656
  21816985.506    -1969486.075 6  -1534664.022 1        12.500           1.156
  23310120.311     -834503.848 5   -650263.055 1         8.000           0.531
  21058498.045    -5992833.322 6  -4669739.073 3        19.000           2.813
  20118780.068    -2292273.568 7  -1786186.675 4        24.000           4.156
  21028172.803    -6313777.189 7  -4919825.530 3        21.250           2.500
  23030385.350     -612670.306 6   -477404.896 1        12.500           0.969
 98  2 12  2 25 59.9970000  0  8 05 06 08 09 10 24 30 04
  19609991.860    -4124560.016 7  -3213942.726 3        25.250           3.188
  23007536.884    -6147307.062 5  -4790107.376 1         8.500           0.594
  21807002.282    -2021972.837 6  -1575562.788 1        12.250           1.031
  23305461.134     -858974.045 5   -669330.766 1         8.000           0.719
  21025255.282    -6167523.732 6  -4805861.435 3        19.000           2.688
  20106596.728    -2356297.731 7  -1836075.623 4        23.750           4.125
  20992803.251    -6499644.518 7  -5064657.193 2        21.000           2.438
  23027031.345     -630294.943 6   -491138.361 1        12.000           0.906
 98  2 12  2 26 29.9970000  0  8 05 06 08 09 10 24 30 04
  19588584.110    -4237058.865 7  -3301604.161 3        25.500           3.125
  22973118.595    -6328175.868 5  -4931044.042 1         9.500           0.688
  21797079.720    -2074094.087 6  -1616176.767 1        12.250           1.219
  23300805.563     -883451.141 5   -688403.861 1         8.750           0.781
  20992086.610    -6341817.466 6  -4941674.709 3        19.000           2.719
  20094463.782    -2420055.900 7  -1885757.307 4        23.500           4.188
  20957498.353    -6685157.052 7  -5209212.400 2        21.000           2.438
  23023681.251     -647903.729 6   -504859.490 1        12.000           0.813
 98  2 12  2 26 59.9970000  0  8 05 06 08 09 10 24 30 04
  19567272.853    -4349059.047 7  -3388877.025 3        25.500           3.188
  22938692.095    -6509065.682 5  -5071997.088 1         9.250           0.625
  21787229.712    -2125864.797 6  -1656517.600 1        12.750           1.156
  23296141.899     -907947.762 5   -707492.162 1         9.000           0.688
  20958997.040    -6515705.964 6  -5077172.219 3        18.500           2.750
  20082384.204    -2483540.791 7  -1935226.039 4        23.750           4.063
  20922266.173    -6870316.521 7  -5353492.476 3        21.750           2.500
  23020332.165     -665501.160 5   -518571.773 1        11.750           0.938
 98  2 12  2 27 29.9970000  0  8 05 06 08 09 10 24 30 04
  19546055.939    -4460544.773 7  -3475749.021 3        25.750           3.125
  22904271.267    -6689964.240 5  -5212956.930 1         9.000           0.719
  21777446.837    -2177288.359 5  -1696587.923 1        11.750           0.969
  23291481.876     -932446.418 5   -726582.040 1         8.250           0.500
  20925984.313    -6689188.619 6  -5212353.470 3        19.000           2.688
  20070354.814    -2546750.909 7  -1984480.664 4        23.250           4.094
  20887095.165    -7055143.946 7  -5497513.826 3        22.000           2.500
  23016981.110     -683099.171 5   -532284.490 1        11.750           0.938
 98  2 12  2 27 59.9970000  0  8 05 06 08 09 10 24 30 04
  19524938.978    -4571510.966 7  -3562216.183 3        25.750           3.188
  22869846.431    -6870866.620 5  -5353919.766 1         9.750           0.688
  21767719.939    -2228376.330 6  -1736396.739 1        12.250           1.125
  23286817.134     -956941.854 3   -745669.394 1         5.750           0.469
  20893053.954    -6862246.058 6  -5347203.384 3        19.000           2.813
  20058380.720    -2609684.419 7  -2033519.754 4        23.250           4.156
  20851982.267    -7239651.784 7  -5641286.157 2        21.500           2.469
  23013637.392     -700690.954 5   -545992.375 1        11.750           0.844
 98  2 12  2 28 29.9970000  0  8 05 06 08 09 10 24 30 04
  19503922.642    -4681955.390 7  -3648276.767 3        26.000           3.156
  22835422.446    -7051778.192 5  -5494889.770 1         9.500           0.750
  21758063.743    -2279123.442 6  -1775939.956 1        12.500           1.250
  23282159.853     -981439.155 5   -764758.218 1         7.750           0.688
  20860203.595    -7034869.960 6  -5481715.498 3        19.500           2.781
  20046457.806    -2672333.430 7  -2082337.155 4        22.750           4.125
  20816935.923    -7423839.238 7  -5784808.826 3        22.000           2.563
  23010285.423     -718277.415 5   -559696.095 1        10.500           0.875
 98  2 12  2 28 59.9970000  0  8 05 06 08 09 10 24 30 04
  19483006.274    -4791872.564 7  -3733926.513 3        26.000           3.063
  22800991.806    -7232693.978 5  -5635863.035 1         9.000           0.625
  21748477.290    -2329513.324 6  -1815204.822 1        12.250           1.156
  23277495.321    -1005945.979 5   -783854.460 1         8.250           0.625
  20827437.282    -7207068.768 6  -5615896.352 3        19.000           2.875
  20034591.298    -2734698.841 7  -2130933.567 4        23.250           4.063
  20781947.415    -7607686.738 7  -5928066.593 3        21.750           2.594
  23006944.915     -735857.495 5   -573394.850 1        10.750           0.656
 98  2 12  2 29 29.9970000  0  8 05 06 08 09 10 24 30 04
  19462189.360    -4901267.242 7  -3819169.123 3        25.750           3.125
  22766569.407    -7413597.065 5  -5776826.420 1         9.000           0.656
  21738958.001    -2379530.308 6  -1854179.107 1        12.000           1.000
  23272827.954    -1030460.433 5   -802956.656 1         8.750           0.531
  20794749.439    -7378827.586 6  -5749734.359 3        19.250           2.781
  20022775.532    -2796775.972 7  -2179305.347 4        22.750           4.031
  20747031.368    -7791183.511 7  -6071051.087 3        21.750           2.688
  23003603.665     -753419.053 5   -587079.192 1        11.500           0.719
 98  2 12  2 29 59.9970000  0  8 05 06 08 09 10 24 30 04
  19441470.040    -5010147.515 7  -3904010.886 3        25.500           3.094
  22732142.954    -7594494.393 5  -5917785.308 1         8.750           0.625
  21729513.181    -2429174.033 6  -1892862.532 1        12.500           1.063
  23268159.993    -1054998.764 5   -822077.424 1         7.750           0.438
  20762152.923    -7550127.618 6  -5883214.870 3        19.250           2.813
  20011017.821    -2858571.815 7  -2227457.948 4        23.250           4.156
  20712182.157    -7974312.666 7  -6213749.107 3        22.250           2.656
  23000268.048     -770949.996 5   -600739.637 1        10.500           0.781
 98  2 12  2 30 29.9970000  0  8 05 06 08 09 10 24 30 04
  19420848.149    -5118514.240 7  -3988452.489 3        26.000           3.125
  22697720.657    -7775391.259 5  -6058743.858 1         9.000           0.719
  21720135.860    -2478440.664 6  -1931252.113 1        12.500           1.219
  23263482.267    -1079569.678 4   -841223.613 1         6.500           0.344
  20729645.267    -7720965.490 6  -6016335.246 3        19.250           2.750
  19999308.493    -2920096.003 7  -2275398.857 4        22.750           4.188
  20677405.524    -8157066.305 7  -6356154.518 3        22.500           2.750
  22996935.329     -788464.637 5   -614387.391 1        10.750           0.594
 98  2 12  2 30 59.9970000  0  8 05 06 08 09 10 24 30 04
  19400322.157    -5226377.154 7  -4072501.512 3        26.000           3.156
  22663294.134    -7956294.420 5  -6199707.297 1         8.750           0.594
  21710832.306    -2527340.356 5  -1969355.799 1        11.750           1.219
  23258802.462    -1104174.424 5   -860396.143 1         7.750           0.469
  20697222.110    -7891349.330 6  -6149101.856 3        19.250           2.813
  19987651.439    -2981358.915 7  -2323136.185 4        23.500           4.250
  20642698.587    -8339451.273 7  -6498272.652 3        22.250           2.813
  22993600.056     -805974.826 5   -628031.694 1        11.250           0.813
 98  2 12  2 31 29.9970000  0  8 05 06 08 09 10 24 30 04
  19379891.501    -5333733.952 7  -4156156.155 3        25.500           3.063
  22628869.829    -8137198.545 5  -6340671.482 1         9.000           0.688
  21701594.954    -2575879.270 6  -2007178.353 1        12.000           1.063
  23254116.071    -1128796.165 5   -879581.905 1         7.500           0.625
  20664886.821    -8061267.306 6  -6281505.444 3        19.250           2.875
  19976044.556    -3042360.082 7  -2370669.550 4        23.750           4.188
  20608060.634    -8521478.301 7  -6640111.883 3        22.250           2.969
  22990267.243     -823487.467 5   -641677.914 1         9.500           0.688
 98  2 12  2 31 59.9970000  0  8 05 06 08 09 10 24 30 04
  19359559.282    -5440589.914 7  -4239420.539 3        25.750           3.094
  22594447.673    -8318130.188 5  -6481657.113 1         9.750           0.813
  21692423.657    -2624079.570 6  -2044737.017 1        12.000           0.938
  23249428.282    -1153442.704 5   -898787.060 1         7.500           0.656
  20632636.845    -8230731.826 6  -6413555.687 3        19.250           2.906
  19964483.813    -3103108.514 7  -2418005.980 4        23.500           4.250
  20573489.142    -8703153.709 7  -6781677.113 3        22.250           3.000
  22986929.907     -841027.096 5   -655345.110 1         9.500           0.813
 98  2 12  2 32 29.9970000  0  8 05 06 08 09 10 24 30 04
  19339322.118    -5546939.815 7  -4322290.591 3        26.000           3.188
  22560000.548    -8499096.220 5                         9.750
  21683314.220    -2671944.687 6  -2082034.522 1        12.250           1.031
  23244732.376    -1178112.524 4   -918010.314 1         7.250           0.438
  20600473.462    -8399764.280 6  -6545269.258 3        19.750           2.906
  19952975.735    -3163588.849 7  -2465133.506 4        23.500           4.250
  20538983.931    -8884481.157 7                        21.750
  22983589.829     -858594.180 5   -669033.766 1        11.000           0.656
 98  2 12  2 32 59.9960000  0  8 05 06 08 09 10 24 30 04
  19319183.504    -5652771.048 7  -4404756.484 3        26.250           3.219
  22525560.012    -8680097.167 5  -6763709.207 1         9.750           0.719
  21674266.176    -2719482.061 5  -2119076.665 1        11.500           1.281
  23240032.129    -1202804.477 4   -937250.823 1         6.750           0.281
  20568387.512    -8568365.649 6  -6676646.916 3        19.250           2.844
  19941516.840    -3223798.315 7  -2512049.957 4        23.750           4.406
  20504546.246    -9065456.054 7  -7063990.589 3        22.250           2.969
  22980237.543     -876183.200 5   -682739.467 1        10.000           1.000
 98  2 12  2 33 29.9960000  0  8 05 06 08 09 10 24 30 04
  19299142.465    -5758083.025 7  -4486817.765 3        26.250           3.188
  22491112.582    -8861145.048 5  -6904785.429 1         9.250           0.781
  21665282.473    -2766708.198 5  -2155876.279 1        11.750           1.063
  23235335.035    -1227525.961 5   -956514.330 1         7.750           0.469
  20536385.129    -8736542.377 6  -6807693.694 3        19.000           2.781
  19930110.652    -3283743.826 7  -2558760.739 5        24.250           4.500
  20470173.824    -9246074.781 7  -7204732.438 3        22.250           3.125
  22976892.254     -893781.226 5   -696452.208 1        10.250           0.750
 98  2 12  2 33 59.9960000  0  8 05 06 08 09 10 24 30 04
  19279204.395    -5862858.078 7  -4568460.663 3        26.000           3.250
  22456651.082    -9042222.403 5  -7045884.607 1        10.000           0.625
  21656356.465    -2813620.782 5  -2192431.537 1        11.750           0.938
  23230620.176    -1252276.687 4   -975800.589 1         6.750           0.375
  20504469.598    -8904270.551 6  -6938390.941 3        19.750           2.969
  19918756.027    -3343413.812 7  -2605256.818 4        24.250           4.406
  20435877.613    -9426305.264 7  -7345171.751 3        21.750           2.969
  22973548.145     -911355.302 5   -710146.291 1        10.500           0.906
 98  2 12  2 34 29.9960000  0  8 05 06 08 09 10 24 30 04
  19259366.816    -5967100.449 7  -4649688.488 3        25.500           3.156
  22422191.106    -9223316.880 5  -7186997.145 1         9.750           0.813
  21647488.059    -2860204.759 5  -2228730.739 1        11.750           0.938
  23225902.340    -1277059.683 4   -995112.069 1         7.000           0.438
  20472640.176    -9071535.263 6  -7068727.055 3        19.750           2.875
  19907451.207    -3402820.329 7  -2651547.600 4        24.500           4.344
  20401654.074    -9606147.397 7  -7485308.467 3        22.000           3.094
  22970210.832     -928888.797 5   -723808.754 1        10.250           0.813
 98  2 12  2 34 59.9960000  0  8 05 06 08 09 10 24 30 04
  19239629.988    -6070817.570 7  -4730507.017 3        25.500           3.219
  22387730.988    -9404409.735 5  -7328108.415 1         9.750           0.781
  21638687.473    -2906457.072 5  -2264771.514 1        11.250           1.094
  23221185.223    -1301873.118 5  -1014447.244 1         7.500           0.531
  20440905.129    -9238304.195 6  -7198676.848 3        19.250           2.906
  19896189.598    -3461989.255 7  -2697653.249 4        24.500           4.344
  20367507.199    -9785600.237 7  -7625141.834 3        22.250           2.938
  22966881.754     -946395.635 5   -737450.423 1        11.000           0.875
 98  2 12  2 35 29.9960000  0  8 05 06 08 09 10 24 30 04
  19219992.973    -6174013.912 7  -4810919.751 3        25.500           3.156
  22353270.605    -9585492.315 5  -7469211.677 1         9.750           0.844
  21629950.637    -2952375.734 5  -2300552.316 1        11.000           1.125
  23216453.801    -1326722.188 4  -1033810.164 1         6.250           0.344
  20409266.348    -9404563.386 6  -7328229.434 3        19.250           2.906
  19884977.270    -3520930.862 7  -2743581.761 4        25.250           4.469
  20333431.074    -9964659.705 7  -7764668.672 3        22.250           3.031
  22963551.551     -963884.473 5   -751078.084 1        10.750           0.750
 98  2 12  2 35 59.9960000  0  8 05 06 08 09 10 24 30 04
  19200455.566    -6276689.886 7  -4890927.001 3        25.500           3.063
  22318812.981    -9766554.889 5  -7610299.348 1         9.500           0.750
  21621276.543    -2997948.671 5  -2336063.714 1        11.250           0.969
  23211716.512    -1351616.511 5  -1053208.346 1         7.750           0.469
  20377726.645    -9570306.886 6  -7457380.192 3        19.500           3.000
  19873799.309    -3579651.027 7  -2789337.730 5        24.750           4.563
  20299430.543   -10143329.333 7  -7903891.746 3        22.000           3.125
  22960228.277     -981372.664 5   -764705.217 1        11.500           0.719
 98  2 12  2 36 29.9960000  0  8 05 06 08 09 10 24 30 04
  19181010.199    -6378863.866 7  -4970543.097 3        25.250           3.156
  22284364.574    -9947611.326 5  -7751382.241 1         9.750           0.813
  21612669.770    -3043185.358 5  -2371313.086 1        11.250           0.844
  23206965.090    -1376567.653 5  -1072650.766 1         7.750           0.469
  20346279.754    -9735547.915 6  -7586139.403 3        19.500           2.938
  19862668.957    -3638154.760 7  -2834925.037 5        24.750           4.688
  20265507.395   -10321613.641 7  -8042814.565 3        22.000           3.125
  22956892.957     -998894.105 5   -778358.276 1        11.250           0.750
 98  2 12  2 36 59.9960000  0  8 05 06 08 09 10 24 30 04
  19161665.871    -6480525.738 7  -5049760.133 3        25.500           3.281
  22249908.488   -10128658.118 5  -7892457.626 1        10.000           0.781
  21604123.277    -3088103.256 5  -2406314.048 1        10.750           0.844
  23202211.902    -1401569.843 4  -1092133.041 1         6.750           0.344
  20314932.035    -9900294.483 6  -7714513.331 3        19.500           2.875
  19851579.473    -3696423.190 7  -2880328.997 5        24.750           4.594
  20231655.113   -10499492.032 7  -8181421.087 3        22.500           3.125
  22953546.270    -1016460.601 5   -792046.434 1        10.500           0.750
 98  2 12  2 37 29.9960000  0  8 05 06 08 09 10 24 30 04
  19142417.621    -6581667.651 7  -5128572.014 3        25.500           3.281
  22215452.027   -10309695.745 5  -8033525.854 1         9.500           0.813
  21595632.660    -3132711.242 5  -2441073.530 1        10.500           0.969
  23197434.527    -1426625.988 3  -1111657.320 1         5.000           0.406
  20283673.199   -10064557.021 7  -7842510.081 3        20.000           2.938
  19840542.066    -3754434.407 7  -2925532.535 5        25.000           4.500
  20197889.535   -10676949.880 7  -8319699.917 3        22.500           3.094
  22950198.941    -1034055.732 5   -805756.916 1        10.500           0.688
 98  2 12  2 37 59.9960000  0  8 05 06 08 09 10 24 30 04
  19123266.965    -6682309.918 7  -5206994.561 3        25.250           3.094
  22181007.355   -10490737.860 5  -8174597.577 1        10.250           0.781
  21587200.746    -3177018.406 5  -2475598.617 1        11.250           0.938
  23192663.262    -1451739.653 4  -1131226.429 1         6.250           0.469
  20252504.730   -10228356.992 6  -7970146.395 3        19.250           2.969
  19829551.473    -3812180.570 7  -2970529.536 4        24.750           4.438
  20164196.449   -10853996.426 7  -8457658.249 3        22.500           3.125
  22946844.074    -1051680.987 5   -819490.880 1        10.250           0.813
 98  2 12  2 38 29.9960000  0  8 05 06 08 09 10 24 30 04
  19104212.121    -6782454.069 7  -5285028.962 3        26.250           3.219
  22146555.980   -10671797.965 5  -8315683.342 1         9.750           0.844
  21578825.129    -3221038.646 5  -2509900.126 1        11.250           1.094
  23187872.418    -1476900.358 4  -1150832.220 1         7.000           0.469
  20221421.121   -10391693.421 6  -8097421.513 3        19.500           2.969
  19818611.434    -3869663.767 7  -3015321.631 5        24.500           4.656
  20130585.910   -11030627.619 7  -8595292.926 3        22.250           3.125
  22943484.715    -1069339.562 5   -833250.812 1         9.500           0.719
 98  2 12  2 38 59.9960000  0  8 05 06 08 09 10 24 30 04
  19085251.652    -6882091.351 7  -5362668.407 3        26.250           3.125
  22112096.348   -10852877.555 5  -8456784.269 1        10.500           0.813
  21570507.176    -3264769.831 5  -2543976.389 1        10.000           0.938
  23183073.199    -1502119.949 4  -1170483.864 1         7.250           0.344
  20190427.371   -10554566.755 6  -8224335.765 3        19.750           2.969
  19807721.270    -3926902.847 7  -3059923.496 5        24.500           4.594
  20097051.668   -11206851.569 7  -8732610.277 3        22.500           3.219
  22940119.207    -1087016.779 5   -847025.231 1         8.750           0.656
 98  2 12  2 39 29.9960000  0  8 05 06 08 09 10 24 30 04
  19066389.934    -6981215.277 7  -5439907.828 3        25.750           3.188
  22077627.996   -11033983.083 5  -8597905.419 1        10.250           0.813
  21562238.895    -3308201.749 5  -2577819.472 1        10.250           0.813
  23178263.699    -1527412.554 4  -1190192.387 1         6.750           0.125
  20159524.543   -10716968.298 6  -8350882.404 3        19.750           3.094
  19796872.262    -3983913.462 7  -3104347.344 5        24.500           4.625
  20063593.371   -11382678.306 7  -8869618.106 3        23.000           3.156
  22936754.481    -1104706.992 5   -860809.816 1         8.750           0.625
 98  2 12  2 39 59.9950000  0  8 05 06 08 09 10 24 30 04
  19047622.679    -7079826.626 7  -5516747.845 3        25.500           3.219
  22043163.452   -11215116.992 5  -8739048.667 1        10.250           0.844
  21554030.608    -3351331.500 5  -2611427.068 1        11.000           0.844
  23173428.726    -1552783.749 3  -1209962.159 1         5.250           0.406
  20128713.866   -10878885.723 6  -8477051.798 3        19.250           3.000
  19786065.343    -4040702.889 7  -3148598.827 5        25.000           4.656
  20030209.679   -11558105.088 7  -9006314.283 3        23.250           3.188
  22933382.116    -1122422.776 5   -874614.293 1         8.250           0.594
 98  2 12  2 40 29.9950000  0  8 05 06 08 09 10 24 30 04
  19028955.874    -7177916.052 7  -5593181.161 3        25.250           3.094
  22008686.413   -11396286.331 5  -8880219.538 1        10.750           0.750
  21545879.233    -3394167.575 5  -2644805.842 1        11.500           0.969
  23168590.937    -1578247.887 4  -1229804.370 1         7.250           0.375
  20097992.046   -11040310.048 7  -8602836.961 3        20.000           3.000
  19775296.554    -4097292.868 7  -3192694.912 5        24.500           4.563
  19996903.280   -11733131.582 7  -9142698.544 3        22.750           3.063
  22930010.530    -1140164.279 5   -888438.857 1         9.250           0.594
 98  2 12  2 40 59.9950000  0  8 05 06 08 09 10 24 30 04
  19010392.819    -7275469.330 7  -5669196.702 3        25.250           3.219
  21974208.991   -11577468.251 5  -9021400.191 1        11.000           0.813
  21537788.413    -3436695.391 5  -2677944.417 1        10.000           1.000
  23163724.796    -1603814.815 5  -1249726.638 1         7.500           0.531
  20067369.773   -11201234.101 7  -8728232.310 3        20.250           3.156
  19764567.663    -4153681.103 7  -3236633.782 5        24.250           4.500
  19963675.796   -11907753.057 7  -9278767.216 3        23.500           3.188
  22926627.616    -1157922.040 5   -902276.040 1         8.250           0.500
 98  2 12  2 41 29.9950000  0  8 05 06 08 09 10 24 30 04
  18991931.398    -7372485.663 7  -5744793.847 3        25.500           3.156
  21939733.101   -11758648.597 5  -9162579.632 1        10.500           0.875
  21529753.976    -3478914.343 5  -2710842.322 1        10.000           0.906
  23158839.148    -1629473.812 4  -1269720.642 1         7.000           0.250
  20036843.319   -11361646.721 7  -8853229.127 3        20.500           3.125
  19753878.851    -4209849.427 7  -3280401.298 4        24.000           4.438
  19930524.843   -12081952.881 7  -9414507.318 3        23.000           3.313
  22923244.921    -1175700.069 5   -916129.041 1         8.000           0.656
 98  2 12  2 41 59.9950000  0  8 05 06 08 09 10 24 30 04
  18973570.523    -7468967.449 7  -5819974.454 3        25.500           3.156
  21905256.523   -11939816.133 5  -9303749.092 1        10.500           0.969
  21521777.374    -3520830.070 5  -2743503.950 1        10.500           0.813
  23153943.898    -1655214.120 4  -1289778.051 1         6.500           0.406
  20006415.671   -11521548.530 7  -8977827.922 3        20.500           3.219
  19743233.327    -4265789.799 7  -3323991.191 4        24.250           4.344
  19897457.148   -12255721.908 7  -9549911.745 3        23.000           3.156
  22919857.827    -1193494.619 5   -929994.940 1         8.500           0.563
 98  2 12  2 42 29.9950000  0  8 05 06 08 09 10 24 30 04
  18955314.351    -7564909.694 7  -5894734.651 3        25.500           3.219
  21870790.054   -12120967.160 5  -9444905.675 1        10.750           0.938
  21513855.741    -3562457.649 5  -2775941.029 1        10.750           0.688
  23149025.023    -1681032.522 3  -1309896.314 1         5.250           0.406
  19976085.093   -11680946.809 7  -9102034.343 3        20.500           3.094
  19732627.710    -4321514.154 7  -3367412.758 4        23.750           4.188
  19864469.507   -12429074.972 7  -9684992.041 3        23.500           3.094
  22916471.194    -1211307.935 5   -943875.442 1         8.500           0.469
 98  2 12  2 42 59.9950000  0  8 05 06 08 09 10 24 30 04
  18937158.288    -7660324.121 7  -5969083.553 3        26.000           3.156
  21836316.429   -12302104.167 5  -9586051.333 1        10.500           0.969
  21505989.304    -3603801.414 5  -2808156.959 1        10.250           0.781
  23144102.468    -1706923.598 3  -1330071.232 1         5.750           0.438
  19945844.929   -11839853.338 7  -9225857.591 3        20.250           3.219
  19722068.437    -4377011.068 7  -3410657.098 4        23.250           4.156
  19831556.640   -12602029.140 7  -9819761.517 3        23.250           3.063
  22913068.257    -1229154.990 5   -957782.228 1         7.750           0.469
 98  2 12  2 43 29.9950000  0  8 05 06 08 09 10 24 30 04
  18919101.015    -7755208.686 7  -6043019.582 3        25.500           3.125
  21801848.405   -12483229.789 5  -9727188.131 1        10.500           0.969
  21498173.515    -3644865.557 5  -2840155.019 1        10.000           0.969
  23139168.413    -1732864.165 4  -1350284.658 1         6.250           0.375
  19915704.226   -11998262.649 7  -9349293.393 3        20.250           3.156
  19711554.288    -4432267.602 7  -3453714.128 4        24.250           4.063
  19798721.382   -12774574.381 7  -9954212.338 3        23.250           3.063
  22909667.562    -1247037.867 5   -971716.929 1         8.250           0.469
 98  2 12  2 43 59.9950000  0  8 05 06 08 09 10 24 30 04
  18901147.452    -7849569.466 7  -6116547.462 3        25.500           3.219
  21767383.077   -12664356.134 5  -9868325.483 1        11.500           0.969
  21490408.257    -3685668.681 5  -2871949.673 1        10.000           0.875
  23134219.015    -1758858.716 5  -1370540.129 1         8.000           0.469
  19885652.023   -12156173.185 6  -9472340.540 3        19.750           3.250
  19701078.179    -4487302.766 7  -3496598.672 4        23.250           3.969
  19765963.171   -12946726.116 7 -10088356.532 3        23.500           3.125
  22906258.991    -1264968.917 5   -985689.145 1         8.750           0.375
 98  2 12  2 44 29.9950000  0  8 05 06 08 09 10 24 30 04
  18883289.569    -7943404.127 7  -6189665.380 3        25.000           3.250
  21732911.163   -12845484.540 5 -10009464.452 1        11.250           0.906
  21482695.671    -3726213.627 5  -2903543.157 1         9.750           0.875
  23129258.007    -1784921.878 4  -1390849.141 1         7.250           0.313
  19855700.038   -12313575.323 7  -9594991.524 3        20.750           3.313
  19690647.780    -4542120.350 7  -3539313.652 4        23.500           4.000
  19733282.788   -13118472.849 7 -10222185.137 3        23.500           3.031
  22902836.507    -1282954.569 5   -999703.943 1         8.500           0.469
 98  2 12  2 44 59.9950000  0  8 05 06 08 09 10 24 30 04
  18865529.616    -8036726.631 7  -6262384.221 3        25.000           3.281
  21698447.733   -13026630.749 5 -10150617.297 1        11.500           0.906
  21475028.991    -3766500.672 5  -2934935.684 1        11.250           0.906
  23124282.929    -1811073.703 3  -1411227.187 1         5.500           0.500
  19825843.733   -12470471.653 7  -9717248.388 3        20.500           3.344
  19680258.976    -4596718.323 7  -3581857.522 4        23.000           3.750
  19700680.007   -13289787.792 7 -10355677.288 3        23.500           3.031
  22899398.491    -1301001.675 5  -1013766.586 1         8.250           0.469
 98  2 12  2 45 29.9950000  0  8 05 06 08 09 10 24 30 04
  18847868.577    -8129536.240 7  -6334703.396 3        25.250           3.281
  21663968.093   -13207790.132 5 -10291780.422 1        11.500           1.031
  21467407.976    -3806536.998 5  -2966132.831 1        10.750           0.844
  23119290.562    -1837325.807 3  -1431683.375 1         5.750           0.219
  19796087.163   -12626843.077 7  -9839096.223 3        20.750           3.375
  19669910.233    -4651109.016 7  -3624239.874 4        23.500           3.844
  19668167.069   -13460648.681 7 -10488815.625 3        23.500           3.125
  22895961.671    -1319090.912 5  -1027862.109 1         8.250           0.469
 98  2 12  2 45 59.9950000  0  8 05 06 08 09 10 24 30 04
  18830305.319    -8221840.022 7  -6406628.422 3        25.250           3.375
  21629495.655   -13388948.580 5 -10432942.802 1        11.500           1.031
  21459837.999    -3846325.681 5  -2997137.018 1        10.250           0.750
  23114269.272    -1863704.411 4  -1452238.137 1         7.000           0.375
  19766430.554   -12782683.554 7  -9960530.338 3        20.500           3.344
  19659596.210    -4705297.203 7  -3666464.426 4        23.750           3.813
  19635742.163   -13631042.414 7 -10621589.948 3        22.500           3.063
  22892510.687    -1337213.672 5  -1041983.735 1         8.750           0.500
 98  2 12  2 46 29.9950000  0  8 05 06 08 09 10 24 30 04
  18812836.772    -8313633.731 7  -6478155.988 3        25.000           3.219
  21595026.897   -13570100.065 5 -10574099.766 1        11.500           0.969
  21452313.710    -3885858.287 5  -3027941.638 1        10.250           0.688
  23109226.444    -1890199.204 3  -1472883.466 1         6.000           0.313
  19736877.335   -12937998.921 7 -10081555.277 3        20.750           3.406
  19649325.327    -4759276.829 7  -3708526.465 4        23.750           3.719
  19603410.280   -13800946.632 7 -10753982.826 3        23.000           3.281
  22889058.015    -1355364.090 5  -1056126.903 1         9.500           0.469
 98  2 12  2 46 59.9940000  0  8 05 06 08 09 10 24 30 04
  18795467.377    -8404914.032 7  -6549283.499 3        25.250           3.250
  21560556.361   -13751232.556 5 -10715241.907 1        11.500           1.094
  21444838.635    -3925134.375 5  -3058546.392 1        10.000           0.875
  23104166.877    -1916787.606 3  -1493601.701 1         6.000           0.500
  19707422.213   -13092774.868 7 -10202159.883 4        20.500           3.500
  19639092.838    -4813042.049 7  -3750421.429 4        23.750           3.875
  19571171.604   -13970365.047 7 -10885997.163 3        22.750           3.281
  22885603.924    -1373529.547 5  -1070281.811 1         9.750           0.406
 98  2 12  2 47 29.9940000  0  8 05 06 08 09 10 24 30 04
  18778194.565    -8495680.556 7  -6620010.660 3        24.750           3.344
  21526087.947   -13932345.075 5 -10856368.497 1        11.500           1.094
  21437415.158    -3964166.651 5  -3088961.169 1        11.000           0.781
  23099093.799    -1943464.745 3  -1514389.074 1         5.000           0.406
  19678069.846   -13247025.407 7 -10322355.083 3        21.000           3.406
  19628899.768    -4866605.445 7  -3792159.137 4        23.750           3.781
  19539017.440   -14139330.678 7 -11017658.681 3        22.750           3.188
  22882137.760    -1391717.472 5  -1084454.196 1         9.750           0.344
 98  2 12  2 47 59.9940000  0  8 05 06 08 09 10 24 30 04
  18761021.408    -8585922.827 7  -6690329.314 3        24.250           3.313
  21491631.236   -14113444.134 5 -10997484.615 1        11.750           1.094
  21430031.268    -4002954.921 5  -3119185.799 1        10.500           0.875
  23093998.533    -1970213.951 2  -1535232.643 1         4.500           0.250
  19648815.541   -13400761.712 7 -10442149.575 4        21.250           3.594
  19618747.838    -4919960.765 7  -3833734.696 4        24.750           3.625
  19506950.580   -14307840.538 7 -11148965.052 3        22.750           3.094
  22878671.510    -1409943.112 5  -1098655.971 1         9.500           0.531
 98  2 12  2 48 29.9940000  0  8 05 06 08 09 10 24 30 04
  18743953.596    -8675626.307 7  -6760228.136 3        24.500           3.375
  21457166.775   -14294540.218 5 -11138598.400 1        11.750           1.094
  21422698.229    -4041497.521 5  -3149218.997 1         9.750           0.781
  23088899.963    -1997019.825 4  -1556120.348 1         6.750           0.281
  19619662.275   -13553961.185 7 -10561525.759 4        21.000           3.563
  19608634.111    -4973100.587 7  -3875142.341 4        24.000           3.594
  19474972.822   -14475898.666 7 -11279919.422 3        22.250           3.188
  22875196.018    -1428201.988 5  -1112883.682 1         9.750           0.656
 98  2 12  2 48 59.9940000  0  8 05 06 08 09 10 24 30 04
  18726981.658    -8764800.896 7  -6829714.828 3        24.750           3.281
  21422705.291   -14475647.978 6 -11279721.283 1        12.000           1.094
  21415406.580    -4079804.652 5  -3179068.742 1         9.500           0.719
  23083780.221    -2023916.031 3  -1577078.443 1         6.000           0.469
  19590612.299   -13706623.543 7 -10680483.421 4        20.750           3.563
  19598562.580    -5026039.873 7  -3916393.714 4        25.000           3.625
  19443072.260   -14643524.201 7 -11410536.710 3        22.000           3.188
  22871711.174    -1446505.659 5  -1127146.261 1         8.250           0.688
 98  2 12  2 49 29.9940000  0  8 05 06 08 09 10 24 30 04
  18710113.400    -8853447.690 7  -6898790.258 3        24.250           3.344
  21388239.900   -14656772.222 6 -11420857.015 1        12.500           1.063
  21408162.721    -4117879.555 5  -3208737.523 1         9.500           0.625
  23078644.299    -2050929.476 3  -1598127.892 1         5.500           0.406
  19561662.682   -13858757.867 7 -10799029.624 4        21.000           3.594
  19588522.049    -5078794.806 7  -3957501.453 4        24.750           3.719
  19411256.588   -14810711.314 7 -11540812.367 3        22.500           3.188
  22868217.322    -1464872.210 5  -1141457.889 1         8.750           0.656
 98  2 12  2 49 59.9940000  0  8 05 06 08 09 10 24 30 04
  18693346.275    -8941561.134 7  -6967450.092 3        24.750           3.438
  21353764.440   -14837907.649 6 -11562001.458 1        12.000           1.156
  21400961.736    -4155710.616 5  -3238216.286 1         9.250           0.688
  23073476.877    -2078058.985 3  -1619267.760 1         5.500           0.406
  19532817.979   -14010335.457 7 -10917142.009 4        21.250           3.594
  19578521.627    -5131357.751 7  -3998459.582 4        25.000           3.500
  19379530.361   -14977445.181 7 -11670734.848 3        22.000           3.219
  22864709.721    -1483294.267 5  -1155812.716 1         8.500           0.781
 98  2 12  2 50 29.9940000  0  8 05 06 08 09 10 24 30 04
  18676677.611    -9029152.665 7  -7035703.230 3        24.250           3.375
  21319300.260   -15019046.466 6 -11703148.540 1        12.000           1.125
  21393808.408    -4193312.545 5  -3267516.528 1         9.500           0.719
  23068287.799    -2105333.966 4  -1640521.005 1         6.250           0.344
  19504077.471   -14161357.875 7 -11034821.798 4        20.750           3.656
  19568550.549    -5183747.177 7  -4039282.499 4        24.750           3.750
  19347884.283   -15143739.382 7 -11800314.729 3        22.750           3.313
  22861192.572    -1501785.468 5  -1170221.475 1         8.250           0.656
 98  2 12  2 50 59.9940000  0  8 05 06 08 09 10 24 30 04
  18660108.900    -9116220.338 7  -7103548.180 3        24.000           3.344
  21284831.479   -15200175.393 5 -11844287.936 1        11.500           1.156
  21386697.104    -4230684.310 5  -3296637.411 1        10.000           0.656
  23063072.104    -2132759.466 4  -1661891.602 1         6.500           0.250
  19475440.916   -14311845.395 7 -11152084.772 4        21.000           3.719
  19558616.143    -5235963.951 7  -4079970.886 4        25.500           3.750
  19316325.150   -15309586.198 7 -11929546.006 3        22.500           3.125
  22857660.369    -1520354.391 5  -1184690.755 1         8.000           0.719
 98  2 12  2 51 29.9940000  0  8 05 06 08 09 10 24 30 04
  18643641.916    -9202758.177 7  -7170980.270 3        24.500           3.375
  21250367.275   -15381278.062 6 -11985406.847 1        12.000           1.219
  21379626.893    -4267827.566 5  -3325580.228 1         9.500           0.719
  23057824.275    -2160321.626 3  -1683368.593 1         5.250           0.313
  19446905.104   -14461803.493 7 -11268935.213 4        21.000           3.688
  19548712.400    -5287999.697 7  -4120518.212 4        25.000           3.719
  19284853.815   -15474978.971 7 -12058423.482 3        23.000           3.281
  22854112.736    -1538991.464 5  -1199213.160 1         7.500           0.625
 98  2 12  2 51 59.9940000  0  8 05 06 08 09 10 24 30 04
  18627274.955    -9288770.197 7  -7238002.628 3        24.000           3.438
  21215909.861   -15562355.265 6 -12126505.937 1        12.500           1.125
  21372602.322    -4304742.977 5  -3354345.517 1         9.250           0.781
  23052553.088    -2188018.440 3  -1704950.519 1         5.500           0.438
  19418468.057   -14611237.041 7 -11385376.917 4        21.250           3.688
  19538846.705    -5339839.041 7  -4160912.504 4        25.250           3.781
  19253467.979   -15639913.293 7 -12186943.718 3        22.250           3.219
  22850550.783    -1557690.572 3  -1213783.879 1         6.000           0.500
 98  2 12  2 52 29.9940000  0  8 05 06 08 09 10 24 30 04
  18611006.502    -9374264.114 7  -7304621.269 4        23.750           3.500
  21181457.268   -15743409.866 6 -12267587.402 1        12.750           1.250
  21365621.924    -4341429.590 5  -3382932.470 1         9.000           0.781
  23047252.854    -2215864.436 3  -1726648.756 1         5.750           0.219
  19390131.393   -14760161.189 7 -11501421.687 4        21.250           3.719
  19529018.697    -5391485.245 7  -4201156.292 4        25.250           3.906
  19222168.486   -15804383.908 7 -12315102.631 3        22.500           3.406
  22846990.486    -1576453.455 3  -1228404.345 1         5.750           0.563
 98  2 12  2 52 59.9940000  0  8 05 06 08 09 10 24 30 04
  18594835.065    -9459238.639 7  -7370835.193 3        24.000           3.469
  21147007.104   -15924443.060 6 -12408652.194 1        12.750           1.156
  21358688.135    -4377883.085 5  -3411337.806 1         9.250           0.719
  23041923.440    -2243853.312 2  -1748458.315 1         4.750           0.094
  19361889.190   -14908567.125 7 -11617062.655 4        20.750           3.750
  19519229.283    -5442939.721 7  -4241250.677 4        25.250           3.875
  19190960.924   -15968376.556 7 -12442889.098 3        22.500           3.406
  22843406.033    -1595275.532 3  -1243070.917 1         5.500           0.531
 98  2 12  2 53 29.9930000  0  8 05 06 08 09 10 24 30 04
  18578761.919    -9543703.442 7  -7436651.927 4        23.750           3.500
  21112562.286   -16105460.149 6 -12549704.427 1        12.250           1.281
  21351792.802    -4414101.779 5  -3439560.172 1         9.250           0.719
  23036576.380    -2271984.300 2                         4.000
  19333753.591   -15056431.284 7 -11732281.452 4        21.500           3.813
  19509472.411    -5494207.628 7  -4281199.691 4        25.000           4.094
  19159847.958   -16131881.962 7 -12570295.901 3        23.000           3.469
  22839817.927    -1614152.832 4  -1257780.515 1         6.250           0.438
 98  2 12  2 53 59.9930000  0  8 05 06 08 09 10 24 30 04
  18562784.981    -9627664.269 7  -7502075.951 4        24.000           3.719
  21078113.396   -16286476.305 5 -12690755.943 1        11.750           1.313
  21344949.169    -4450087.106 5  -3467600.703 1         9.250           0.594
  23031193.919    -2300260.283 2                         3.750
  19305718.669   -15203737.459 7 -11847065.472 4        21.500           3.594
  19499752.583    -5545293.330 7  -4321006.718 4        25.250           3.875
  19128827.755   -16294902.162 7 -12697324.620 4        23.000           3.500
  22836204.481    -1633094.180 3  -1272540.024 1         6.000           0.500
 98  2 12  2 54 29.9930000  0  8 05 06 08 09 10 24 30 04
  18546905.060    -9711112.669 7  -7567100.686 4        23.750           3.563
  21043667.731   -16467481.545 6 -12831798.916 1        12.250           1.188
  21338140.435    -4485852.825 5  -3495470.128 1         8.750           0.469
  23025794.200    -2328659.655 3        -0.07311         5.500           0.250
  19277798.013   -15350466.922 7 -11961400.090 4        21.250           3.688
  19490061.864    -5596207.759 7  -4360680.298 4        24.750           3.938
  19097897.919   -16457434.755 7 -12823973.386 3        23.000           3.406
  22832586.146    -1652097.262 4  -1287347.638 1         7.250           0.344
 98  2 12  2 54 59.9930000  0  8 05 06 08 17 10 24 30 04
  18531123.427    -9794042.050 7  -7631720.991 4        23.500           3.625
  21009226.849   -16648482.906 5 -12972838.901 1        11.750           1.250
  21331372.622    -4521411.474 5  -3523178.192 1         9.250           0.563
  23119732.310          -0.87013                         6.000
  19249988.325   -15496615.697 7 -12075282.227 4        21.500           3.656
  19480406.247    -5646952.893 7  -4400221.950 4        24.750           4.063
  19067061.560   -16619471.072 7 -12950235.435 4        22.750           3.688
  22828966.208    -1671150.095 4  -1302194.003 1         7.250           0.281
 98  2 12  2 55 29.9930000  0  8 05 06 08 17 10 24 30 04
  18515440.911    -9876461.182 7  -7695943.698 4        23.500           3.563
  20974780.099   -16829488.040 5 -13113881.816 1        11.750           1.156
  21324643.028    -4556779.729 5  -3550737.907 1         9.250           0.594
  23080529.106     -206007.531 3                         5.500
  19222282.247   -15642200.657 7 -12188725.033 4        21.250           3.594
  19470779.896    -5697537.036 7  -4439638.160 4        24.500           4.031
  19036320.919   -16781026.659 7 -13076122.897 4        23.250           3.688
  22825326.356    -1690257.106 5  -1317082.596 1         8.250           0.313
 98  2 12  2 55 59.9930000  0  8 05 06 08 17 10 24 30 04
  18499857.388    -9958354.143 7  -7759756.401 4        24.000           3.688
  20940340.630   -17010482.473 6 -13254916.407 1        12.000           1.156
  21317945.396    -4591978.939 5  -3578165.885 1         9.250           0.625
  23041348.771     -411897.038 3                         6.000
  19194684.349   -15787225.423 7 -12301731.321 4        20.750           3.500
  19461186.052    -5747955.525 7  -4478925.296 4        24.000           3.938
  19005669.153   -16942101.116 7 -13201635.448 4        23.000           3.656
  22821688.122    -1709409.797 5  -1332006.727 1         7.750           0.188
 98  2 12  2 56 29.9930000  0  8 05 06 08 17 10 24 30 04
  18484375.872   -10039713.879 7  -7823153.608 4        23.750           3.656
  20905897.481   -17191477.739 6 -13395951.643 1        12.000           1.219
  21311276.302    -4627019.446 5  -3605470.193 1         8.750           0.781
  23002194.521     -617674.034 3        -0.15111         5.500           0.063
  19167193.028   -15931702.832 7 -12414311.095 4        21.250           3.688
  19451624.005    -5798204.806 7  -4518080.569 4        23.750           3.875
  18975110.716   -17102691.676 7 -13326770.941 4        23.500           3.531
  22818032.880    -1728602.983 5  -1346962.464 1         8.250           0.094
 98  2 12  2 56 59.9930000  0  8 05 06 08 17 10 24 30 04
  18468994.192   -10120543.253 7  -7886137.541 4        24.250           3.750
  20871455.271   -17372477.446 6 -13536990.330 1        12.000           1.188
  21304639.153    -4661892.924 5  -3632644.370 1         8.750           0.875
  22963055.888     -823337.026 3                         5.250
  19139802.271   -16075639.045 7 -12526469.164 4        21.250           3.594
  19442093.575    -5848280.593 7  -4557100.666 4        23.750           4.000
  18944642.825   -17262794.148 7 -13451526.111 4        23.250           3.594
  22814365.974    -1747839.291 5  -1361951.755 1         8.250           0.250
 98  2 12  2 57 29.9930000  0  8 05 06 08 17 10 24 30 04
  18453712.044   -10200838.460 7  -7948705.242 4        24.000           3.750
  20837014.755   -17553464.037 6 -13678018.798 1        12.250           1.250
  21298032.802    -4696605.250 5  -3659692.938 1         8.500           0.688
  22923938.661    -1028888.828 3                         5.750
  19112515.856   -16219029.304 7 -12638201.807 3        21.250           3.469
  19432602.153    -5898175.239 7  -4595979.608 4        23.750           3.844
  18914266.763   -17422415.856 7 -13575906.649 4        23.250           3.656
  22810706.599    -1767128.197 5  -1376982.094 1         7.750           0.219
 98  2 12  2 57 59.9930000  0  8 05 06 08 17 10 24 30 04
  18438534.099   -10280610.055 7  -8010864.931 4        23.750           3.688
  20802575.544   -17734441.699 6 -13819040.312 1        12.500           1.281
  21291456.981    -4731151.441 5  -3686612.062 1         7.750           0.781
  22884849.083    -1234309.509 2                         4.750
  19085334.919   -16361874.168 7 -12749509.472 4        21.750           3.625
  19423142.333    -5947875.754 7  -4634707.274 4        23.500           3.969
  18883985.146   -17581546.105 7 -13699904.239 4        23.250           3.750
  22807017.146    -1786482.598 5                         8.250
 98  2 12  2 58 29.9930000  0  8 05 06 08 17 10 24 30 04
  18423450.247   -10359872.293 7  -8072627.733 4        24.000           3.750
  20768138.661   -17915411.040 6 -13960055.347 1        12.250           1.281
  21284923.333    -4765510.471 5  -3713385.353 1         8.750           0.781
  22845781.950    -1439590.911 2        -0.13511         4.750           0.188
  19058254.919   -16504171.000 7 -12860390.100 3        21.500           3.438
  19413718.825    -5997397.726 7  -4673295.824 4        23.500           3.844
  18853801.044   -17740174.834 7 -13823511.032 4        23.500           3.688
  22803318.708    -1805915.750 5        -0.04711         9.500           0.188
 98  2 12  2 58 59.9930000  0  8 05 06 08 17 10 24 30 04
  18408460.606   -10438641.715 7  -8134006.495 4        23.750           3.781
  20733708.294   -18096355.165 6 -14101050.724 1        13.000           1.219
  21278422.606    -4799676.712 5  -3740008.426 1         9.250           0.688
  22806753.466    -1644734.162 2   -159851.905 1         4.500           0.063
  19031280.536   -16645919.764 7 -12970843.660 4        21.000           3.563
  19404328.685    -6046755.477 7  -4711756.404 4        23.500           3.813
  18823709.372   -17898303.268 7 -13946727.982 4        23.500           3.656
  22799599.325                          -0.44815         8.000
 98  2 12  2 59 29.9930000  0  7 05 06 08 17 10 24 30
  18393564.942   -10516920.120 7  -8195002.674 4        24.000           3.719
  20699280.560   -18277267.189 6 -14242021.108 1        12.750           1.375
  21271956.583    -4833645.141 5  -3766477.361 1         9.500           0.563
  22767742.247    -1849739.001 2                         4.500
  19004413.786   -16787106.389 7 -13080859.189 3        21.500           3.438
  19394967.528    -6095948.865 7  -4750088.910 4        24.250           3.813
  18793715.106   -18055923.275 7 -14069548.766 4        23.000           3.625
 98  2 12  2 59 59.9930000  0  7 05 06 08 17 10 24 30
  18378762.942   -10594711.251 7  -8255619.141 4        24.250           3.906
  20664858.317   -18458155.768 6 -14382973.211 1        13.000           1.375
  21265532.544    -4867395.329 5  -3792776.220 1         9.500           0.531
  22728757.849    -2054587.166 1                         3.500
  18977657.567   -16927715.627 7 -13190424.808 3        21.500           3.438
  19385631.716    -6144987.955 7  -4788301.193 4        23.000           3.688
  18763820.817   -18213027.965 7 -14191968.000 4        24.000           3.750
 98  2 12  3  0 29.9920000  0  6 05 06 08 10 24 30
  18364053.320   -10672001.494 7  -8315845.315 4        24.250           3.875
  20630441.375   -18639018.835 6 -14523905.447 1        12.500           1.344
  21259148.617    -4900942.806 5  -3818917.113 1         9.500           0.500
  18951013.445   -17067734.368 7 -13299530.297 4        21.250           3.531
  19376328.664    -6193889.637 7  -4826406.399 4        23.500           3.719
  18734019.984   -18369621.551 7 -14313988.975 4        24.000           3.844
 98  2 12  3  0 59.9920000  0  6 05 06 08 10 24 30
  18349440.469   -10748795.217 7  -8375684.586 4        24.250           3.875
  20596025.984   -18819869.339 6 -14664827.871 1        13.000           1.406
  21252797.797    -4934318.222 5  -3844923.938 1         9.250           0.344
  18924479.125   -17207175.623 7 -13408185.800 4        21.750           3.531
  19367049.789    -6242653.400 7  -4864404.129 4        23.500           3.625
  18704313.695   -18525722.225 7 -14435625.859 4        23.750           3.844
 98  2 12  3  1 29.9920000  0  6 05 06 08 10 24 30
  18334924.867   -10825079.462 7  -8435126.866 4        24.500           3.906
  20561611.602   -19000708.677 6 -14805741.603 1        13.250           1.375
  21246480.313    -4967537.098 5  -3870808.787 1         8.750           0.563
  18898056.555   -17346033.149 7 -13516386.450 3        22.250           3.469
  19357794.945    -6291280.291 7  -4902295.215 3        23.750           3.438
  18674704.344   -18681324.651 7 -14556874.492 4        24.000           3.813
 98  2 12  3  1 59.9920000  0  6 05 06 08 10 24 30
  18320507.313   -10900835.722 7  -8494157.725 4        24.500           3.938
  20527203.008   -19181529.826 6 -14946641.167 1        13.250           1.344
  21240184.023    -5000608.324 5  -3896578.599 1         8.250           0.500
  18871741.773   -17484307.740 7 -13624132.867 4        22.000           3.656
  19348568.453    -6339769.900 7  -4940079.309 4        23.500           3.563
  18645189.133   -18836419.999 7 -14677728.004 4        23.750           3.750
 98  2 12  3  2 29.9920000  0  6 05 06 08 10 24 30
  18306195.313   -10976058.051 7  -8552772.540 4        24.500           3.906
  20492798.508   -19362325.509 6 -15087520.889 2        13.500           1.500
  21233914.477    -5033552.513 5  -3922249.422 1         8.250           0.531
  18845537.094   -17622008.673 7 -13731432.277 4        21.500           3.563
  19339365.789    -6388128.263 7  -4977761.162 3        23.750           3.438
  18615774.664   -18991008.304 7 -14798186.421 4        24.250           3.656
 98  2 12  3  2 59.9920000  0  6 05 06 08 10 24 30
  18291982.984   -11050748.791 7  -8610973.119 4        24.750           3.813
  20458399.695   -19543098.407 6 -15228382.861 1        14.000           1.438
  21227672.039    -5066363.619 5  -3947816.536 1         8.250           0.688
  18819441.227   -17759144.486 7 -13838291.328 3        21.500           3.469
  19330186.563    -6436361.327 7  -5015345.357 3        24.000           3.375
  18586454.219   -19145088.926 7 -14918249.245 4        23.750           3.844
 98  2 12  3  3 29.9920000  0  6 05 06 08 10 24 30
  18277872.656   -11124903.723 7  -8668756.186 4        24.750           3.969
  20424000.750   -19723869.427 6 -15369243.373 1        13.500           1.406
  21221455.852    -5099029.601 5  -3973270.569 1         7.750           0.656
  18793454.711   -17895712.746 7 -13944708.137 4        21.500           3.500
  19321031.914    -6484461.207 7  -5052825.791 3        23.500           3.375
  18557229.594   -19298655.322 7 -15037911.364 4        23.750           3.719
 98  2 12  3  3 59.9920000  0  7 05 06 08 17 10 24 30
  18263858.555   -11198527.443 7  -8726125.330 4        24.500           4.063
  20389601.688   -19904633.780 6 -15510098.674 1        14.000           1.438
  21215267.227    -5131542.122 5  -3998605.034 1         8.000           0.563
  22417874.672     -203746.154 3                         5.000
  18767576.492   -18031711.172 7 -14050680.919 4        21.500           3.500
  19311910.102    -6532418.525 7  -5090195.116 3        24.250           3.281
  18528106.898   -19451709.565 7 -15157174.408 4        24.000           3.625
 98  2 12  3  4 29.9920000  0  7 05 06 08 17 10 24 30
  18249950.484   -11271633.349 7  -8783090.983 4        24.500           4.063
  20355203.359   -20085395.593 6 -15650952.021 1        14.250           1.438
  21209111.609    -5163907.532 5  -4023824.843 1         7.750           0.688
  22379125.953     -407370.755 3        -0.30511         5.750           0.250
  18741803.391   -18167149.609 7 -14156217.349 4        21.500           3.500
  19302806.586    -6580234.388 7  -5127454.226 3        23.500           3.125
  18499074.805   -19604259.124 7 -15276044.187 4        23.250           3.656
 98  2 12  3  4 59.9920000  0  7 05 06 08 17 10 24 30
  18236134.492   -11344231.406 7  -8839660.901 4        23.750           4.031
  20320806.266   -20266149.227 6 -15791798.984 2        13.750           1.625
  21202982.227    -5196121.691 5  -4048926.802 1         8.500           0.625
  22340402.734     -610854.084 3   -158558.675 1         5.750           0.094
  18716136.891   -18302018.849 7 -14261310.244 3        21.750           3.469
  19293739.930    -6627886.201 7  -5164585.502 3        24.000           3.156
  18470145.672   -19756287.760 7 -15394508.063 4        23.500           3.719
 98  2 12  3  5 29.9920000  0  7 05 06 08 17 10 24 30
  18222411.500   -11416334.017 7  -8895844.767 4        23.500           3.906
  20286415.508   -20446884.752 6 -15932631.834 2        14.500           1.500
  21196877.742    -5228189.084 5  -4073914.388 1         8.750           0.500
  22301712.695     -814176.538 4   -316991.777 1         6.250           0.156
  18690581.539   -18436310.848 7 -14365953.339 4        21.750           3.563
  19284706.680    -6675362.619 7  -5201580.113 3        24.000           3.188
  18441318.164   -19907786.688 7 -15512559.175 4        23.000           3.688
 98  2 12  3  5 59.9920000  0  7 05 06 08 17 10 24 30
  18208785.891   -11487955.983 7  -8951654.104 4        23.750           4.000
  20252027.859   -20627582.005 6 -16073434.884 2        13.500           1.500
  21190798.188    -5260124.735 5  -4098799.323 1         7.750           0.531
  22263053.828    -1017345.397 4   -475305.172 1         6.250           0.156
  18665135.492   -18570030.679 7 -14470150.592 4        21.500           3.500
  19275698.648    -6722691.621 7  -5238459.849 3        23.500           3.063
  18412589.109   -20058763.399 7 -15630203.364 4        23.250           3.781
 98  2 12  3  6 29.9920000  0  7 05 06 08 17 10 24 30
  18195244.641   -11559099.715 7  -9007090.783 4        23.750           3.969
  20217653.289   -20808235.231 6 -16214203.603 2        14.750           1.531
  21184751.141    -5291938.564 5  -4123589.323 1         8.500           0.500
  22224416.016    -1220373.164 4   -633508.587 1         6.750           0.219
  18639799.773   -18703172.074 7 -14573897.115 4        21.250           3.500
  19266721.008    -6769881.187 7  -5275230.935 3        23.250           3.125
  18383959.445   -20209199.534 7 -15747426.330 4        22.250           3.688
 98  2 12  3  6 59.9920000  0  7 05 06 08 17 10 24 30
  18181798.055   -11629773.352 7  -9062161.163 4        23.750           3.781
  20183284.063   -20988846.007 6 -16354939.266 1        14.000           1.438
  21178717.680    -5323627.666 5  -4148282.142 1         8.250           0.625
  22185810.461    -1423257.046 4   -791599.916 1         7.000           0.156
  18614577.313   -18835718.530 7 -14677180.053 4        21.500           3.531
  19257763.148    -6816937.732 7  -5311898.371 3        22.750           3.031
  18355435.594   -20359088.024 7 -15864222.561 4        23.000           3.688
 98  2 12  3  7 29.9910000  0  7 05 06 08 17 10 24 30
  18168441.519   -11699960.321 7  -9116852.313 4        23.500           3.906
  20148924.792   -21169402.674 6 -16495632.741 2        15.000           1.625
  21172708.690    -5355197.447 5  -4172881.971 1         8.000           0.531
  22147227.284    -1625996.366 3   -949578.560 1         5.500           0.219
  18589467.058   -18967663.317 7 -14779994.155 3        21.500           3.438
  19248830.534    -6863880.475 7  -5348477.125 3        23.250           3.063
  18327019.815   -20508429.357 7 -15980592.436 4        23.000           3.719
 98  2 12  3  7 59.9910000  0  7 05 06 08 17 10 24 30
  18155179.808   -11769645.308 7  -9171152.311 4        23.250           3.844
  20114574.386   -21349910.724 6 -16636288.355 2        14.250           1.656
  21166722.214    -5386653.006 5  -4197392.802 1         8.250           0.406
  22108674.097    -1828603.572 3  -1107454.335 1         5.500           0.125
  18564473.089   -19099011.646 7 -14882343.487 3        21.500           3.438
  19239921.659    -6910710.672 7  -5384968.190 3        23.250           3.188
  18298703.503   -20657230.405 7 -16096541.286 4        23.000           3.594
 98  2 12  3  8 29.9910000  0  7 05 06 08 17 10 24 30
  18142015.323   -11838830.095 7  -9225062.552 4        23.250           3.844
  20080231.581   -21530384.778 6 -16776917.436 1        14.750           1.469
  21160759.987    -5417990.784 5  -4221811.854 1         8.000           0.344
  22070144.534    -2031066.034 2  -1265217.253 1         4.000           0.156
  18539592.495   -19229770.406 7 -14984233.420 4        21.500           3.531
  19231035.776    -6957410.815 7  -5421357.907 3        23.250           3.031
  18270485.706   -20805502.688 7 -16212078.127 4        23.000           3.719
 98  2 12  3  8 59.9910000  0  7 05 06 08 17 10 24 30
  18128947.464   -11907502.745 7  -9278573.713 4        23.250           3.875
  20045894.261   -21710834.899 6 -16917527.906 2        14.750           1.688
  21154819.448    -5449202.265 5  -4246132.499 1         7.750           0.594
  22031644.862    -2233365.317 1  -1422852.988 1         3.500           0.281
  18514818.050   -19359942.631 7 -15085666.304 3        21.750           3.438
  19222173.933    -7003973.267 7  -5457640.332 3        23.000           3.031
  18242372.784   -20953253.537 7 -16327208.669 4        23.500           3.719
 98  2 12  3  9 29.9910000  0  7 05 06 08 17 10 24 30
  18115980.480   -11975641.376 7  -9331668.763 4        23.000           3.844
  20011560.112   -21891248.839 6 -17058110.194 2        15.000           1.656
  21148905.972    -5480283.509 5  -4270351.654 1         7.500           0.469
  21993187.144    -2435492.864 2  -1580354.898 1         3.750           0.281
  18490160.222   -19489537.820 7 -15186649.555 4        21.500           3.500
  19213342.206    -7050384.815 7  -5493805.167 3        22.750           3.188
  18214355.995   -21100478.899 7 -16441929.728 4        23.750           3.750
 98  2 12  3  9 59.9910000  0  7 05 06 08 17 10 24 30
  18103115.612   -12043249.085 7  -9384350.109 4        22.750           3.938
  19977234.456   -22071636.055 6 -17198671.626 2        15.500           1.594
  21143017.347    -5511225.409 4  -4294462.240 1         6.750           0.500
  21954759.378    -2637438.468 2  -1737714.998 1         4.750           0.250
  18465604.315   -19618563.551 7 -15287189.071 3        21.500           3.438
  19204540.769    -7096641.113 7  -5529849.032 3        22.500           3.000
  18186441.120   -21247174.721 7 -16556238.157 4        23.500           3.719
 98  2 12  3 10 29.9910000  0  7 05 06 08 17 10 24 30
  18090347.761   -12110342.517 7  -9436630.718 4        22.750           3.781
  19942912.815   -22252000.380 6 -17339215.245 2        14.750           1.688
  21137158.581    -5542025.230 4  -4318462.132 1         7.000           0.438
  21916367.308    -2839200.901 2  -1894932.469 1         4.750           0.313
  18441163.214   -19747020.694 7 -15387285.528 3        22.000           3.438
  19195763.987    -7142759.837 7  -5565785.711 3        22.750           3.031
  18158625.378   -21393340.475 7 -16670133.554 4        23.250           3.688
 98  2 12  3 10 59.9910000  0  7 05 06 08 17 10 24 30
  18077676.753   -12176921.709 7  -9488510.619 4        22.750           3.781
  19908596.394   -22432331.048 6 -17479732.620 2        15.000           1.625
  21131316.323    -5572707.440 4  -4342370.342 1         6.750           0.375
  21878003.206    -3040781.197 3  -2052007.948 1         6.000           0.375
  18416825.425   -19874906.809 7 -15486937.034 3        21.750           3.469
  19187010.761    -7188763.114 7  -5601632.418 3        22.500           3.188
  18130917.378   -21538957.475 7 -16783601.351 4        23.250           3.781
 98  2 12  3 11 29.9910000  0  7 05 06 08 17 10 24 30
  18065104.065   -12243004.933 7  -9540004.052 4        22.750           3.781
  19874291.159   -22612619.791 6 -17620217.355 2        15.000           1.625
  21125502.378    -5603285.604 4  -4366197.496 1         6.750           0.281
  21839678.589    -3242181.535 4  -2208943.274 1         6.500           0.125
  18392600.347   -20002216.596 7 -15586139.442 3        21.250           3.438
  19178275.769    -7234660.482 7  -5637396.602 3        23.000           3.094
  18103310.534   -21684023.306 7 -16896639.663 4        23.750           3.719
 98  2 12  3 11 59.9910000  0  7 05 06 08 17 10 24 30
  18052618.230   -12308611.776 7  -9591126.279 4        22.250           3.781
  19839990.855   -22792861.751 6 -17760665.622 2        15.250           1.656
  21119698.839    -5633761.292 4  -4389944.804 1         6.750           0.406
  21801388.097    -3443400.055 4  -2365736.866 1         7.000           0.250
  18368486.480   -20128925.306 7 -15684873.501 3        22.000           3.344
  19169562.831    -7280454.297 7  -5673080.086 3        22.250           3.000
  18075813.862   -21828533.618 7 -17009245.105 4        23.750           3.625
 98  2 12  3 12 29.9910000  0  7 05 06 08 17 10 24 30
  18040222.183   -12373750.465 7  -9641883.713 4        22.750           3.781
  19805698.737   -22973059.706 6 -17901079.594 2        15.000           1.563
  21113915.722    -5664148.533 4  -4413623.193 1         6.500           0.438
  21763129.956    -3644452.726 4  -2522401.257 1         7.000           0.219
  18344491.894   -20255023.781 7 -15783132.033 3        22.250           3.406
  19160867.612    -7326139.721 7  -5708679.124 3        22.250           3.125
  18048416.870   -21972487.900 7 -17121417.268 4        23.500           3.688
 98  2 12  3 12 59.9910000  0  7 05 06 08 17 10 24 30
  18027914.339   -12438420.547 7  -9692276.001 4        22.250           3.844
  19771412.706   -23153229.151 6 -18041471.356 2        15.250           1.750
  21108149.292    -5694459.617 4  -4437242.234 1         6.500           0.281
  21724894.753    -3845363.944 4  -2678955.394 1         7.000           0.250
  18320610.401   -20380516.745 7 -15880918.758 3        22.250           3.375
  19152196.425    -7371716.911 7  -5744193.822 3        22.500           3.063
  18021130.980   -22115884.682 7 -17233155.028 4        23.750           3.719
 98  2 12  3 13 29.9910000  0  7 05 06 08 17 10 24 30
  18015699.261   -12502627.689 7  -9742307.555 4        22.750           3.813
  19737132.987   -23333380.940 6 -18181849.365 2        15.500           1.781
  21102396.675    -5724684.153 4  -4460793.825 1         6.250           0.250
  21686691.714    -4046136.842 4  -2835401.776 1         7.000           0.250
  18296846.464   -20505400.831 7 -15978231.017 3        22.250           3.344
  19143543.644    -7417176.345 7  -5779616.749 3        22.250           2.938
  17993950.823   -22258725.117 7 -17344459.255 4        23.750           3.625
 98  2 12  3 13 59.9910000  0  7 05 06 08 17 10 24 30
  18003570.730   -12566358.237 7  -9791967.737 4        22.250           3.813
  19702852.214   -23513520.222 6 -18322217.618 2        15.250           1.656
  21096670.964    -5754816.146 3  -4484273.320 1         6.000           0.438
  21648510.706    -4246768.444 4  -2991738.035 1         6.750           0.250
  18273199.175   -20629675.300 7 -16075068.258 3        22.250           3.375
  19134916.886    -7462514.174 7  -5814944.940 3        22.750           3.125
  17966874.308   -22400999.374 7 -17455322.313 4        23.500           3.563
 98  2 12  3 14 29.9900000  0  7 05 06 08 17 10 24 30
  17991536.748   -12629587.002 7  -9841236.916 4        23.000           3.875
  19668578.482   -23693636.495 6 -18462567.950 2        15.000           1.656
  21090950.404    -5784855.537 3  -4507680.675 1         6.000           0.406
  21610357.389    -4447249.598 4  -3147957.050 1         6.250           0.375
  18249662.920   -20753347.316 7 -16171436.045 3        22.250           3.313
  19126313.592    -7507726.570 7  -5850175.371 3        22.750           3.094
  17939911.764   -22542691.788 7 -17565732.000 4        23.750           3.625
 98  2 12  3 14 59.9900000  0  7 05 06 08 17 10 24 30
  17979598.225   -12692334.208 7  -9890130.852 4        22.250           3.875
  19634306.787   -23873729.972 6 -18602900.526 2        15.750           1.656
  21085244.936    -5814817.497 4  -4531027.632 1         6.500           0.281
  21572235.014    -4647592.286 3  -3304068.193 1         6.000           0.406
  18226237.904   -20876440.677 7 -16267352.945 3        22.250           3.313
  19117728.131    -7552834.064 7  -5885324.068 3        22.750           2.938
  17913056.131   -22683826.604 7 -17675707.172 4        24.000           3.625
 98  2 12  3 15 29.9900000  0  7 05 06 08 17 10 24 30
  17967751.904   -12754591.401 7  -9938642.968 4        22.500           4.031
  19600046.498   -24053768.258 6 -18743190.091 2        15.500           1.531
  21079553.350    -5844705.359 3  -4554316.870 1         5.750           0.281
  21534144.459    -4847763.705 4  -3460045.844 1         7.000           0.406
  18202929.850   -20998937.718 7 -16362805.164 3        22.250           3.281
  19109167.295    -7597818.452 7  -5920376.834 3        22.250           2.906
  17886302.404   -22824409.960 7 -17785252.658 4        24.000           3.719
 98  2 12  3 15 59.9900000  0  7 05 06 08 17 10 24 30
  17955999.998   -12816351.569 7  -9986767.798 4        22.500           3.938
  19565802.061   -24233736.954 6 -18883425.433 2        16.000           1.719
  21073887.967    -5874524.709 3  -4577552.769 1         5.750           0.344
  21496086.467    -5047768.055 4  -3615893.283 1         6.500           0.469
  18179732.279   -21120845.684 7 -16457798.375 3        22.000           3.375
  19100629.256    -7642688.720 7  -5955340.683 3        23.000           2.969
  17859650.639   -22964456.553 7 -17894379.873 4        23.750           3.781
 98  2 12  3 16 29.9900000  0  7 05 06 08 17 10 24 30
  17944339.740   -12877618.937 7 -10034508.605 4        22.500           4.000
  19531569.623   -24413620.430 6 -19023594.369 2        16.000           1.688
  21068222.834    -5904284.684 3  -4600742.361 1         6.000           0.344
  21458063.553    -5247597.114 4  -3771604.141 1         6.750           0.344
  18156646.506   -21242159.111 7 -16552328.307 3        21.500           3.219
  19092112.483    -7687447.463 7  -5990217.624 3        23.000           2.906
  17833103.240   -23103974.903 7 -18003095.465 4        24.000           3.719
 98  2 12  3 16 59.9900000  0  7 05 06 08 17 10 24 30
  17932770.287   -12938412.573 7 -10081880.284 4        22.250           4.094
  19497352.647   -24593428.655 6 -19163704.660 2        15.750           1.750
  21062567.943    -5934002.040 4  -4623898.743 1         6.500           0.344
  21420069.475    -5447237.734 4  -3927168.191 1         6.500           0.344
  18133674.178   -21362873.310 7 -16646391.305 3        21.750           3.375
  19083615.904    -7732107.600 7  -6025017.734 3        22.750           2.906
  17806652.998   -23242975.725 7 -18111407.796 4        24.000           3.688
 98  2 12  3 17 29.9900000  0  7 05 06 08 17 10 24 30
  17921291.561   -12998729.853 7 -10128880.784 4        22.500           4.063
  19463147.076   -24773183.097 6 -19303773.048 2        16.750           1.844
  21056916.170    -5963692.306 3  -4647034.003 1         6.000           0.344
  21382114.818    -5646699.211 4  -4082592.649 1         7.000           0.438
  18110813.983   -21482992.441 7 -16739990.616 3        21.750           3.375
  19075131.717    -7776692.172 7  -6059758.955 3        22.500           2.875
  17780301.147   -23381454.590 7 -18219313.407 4        24.000           3.625
 98  2 12  3 17 59.9900000  0  7 05 06 08 17 10 24 30
  17909904.514   -13058567.902 7 -10175507.844 4        22.750           4.031
  19428950.936   -24952883.265 6 -19443799.148 2        16.750           1.719
  21051279.279    -5993346.787 3  -4670141.414 1         5.750           0.344
  21344190.982    -5845973.865 4  -4237871.524 1         7.000           0.313
  18088069.764   -21602513.553 7 -16833123.939 3        21.500           3.438
  19066661.248    -7821203.514 7  -6094443.117 3        22.250           2.813
  17754056.131   -23519379.516 7 -18326787.386 4        24.250           3.531
 98  2 12  3 18 29.9900000  0  7 05 06 08 17 10 24 30
  17898608.084   -13117934.523 7 -10221767.561 4        22.000           4.031
  19394763.404   -25132542.218 6 -19583793.121 2        16.750           1.844
  21045633.311          -0.02113                         5.250
  21306305.787    -6045070.474 4  -4393011.654 1         7.250           0.188
  18065439.740   -21721431.246 7 -16925787.067 3        21.750           3.375
  19058202.326    -7865641.605 7  -6129070.212 3        22.250           2.781
  17727918.795   -23656733.964 7 -18433816.829 4        24.250           3.625
 98  2 12  3 18 59.9900000  0  7 05 06 08 17 10 24 30
  17887404.756   -13176811.192 7 -10267645.499 4        22.500           4.125
  19360584.756   -25312155.401 6 -19723751.440 2        17.000           1.781
  21039998.584      -29587.527 3                         5.750
  21268453.076    -6244006.685 5  -4548026.812 1         7.500           0.469
  18042925.217   -21839742.622 7 -17017977.739 3        21.250           3.438
  19049764.311    -7909999.813 7  -6163635.045 3        22.000           2.531
  17701892.764   -23793495.819 7 -18540384.516 4        24.250           3.625
 98  2 12  3 19 29.9900000  0  7 05 06 08 17 10 24 30
  17876300.084   -13235179.142 7 -10313127.033 4        22.750           4.063
  19326414.490   -25491712.956 6 -19863666.405 2        16.750           1.844
  21034390.029      -59115.596 3        -0.25211         5.750           0.250
  21230618.826    -6442805.584 4  -4702934.966 1         7.250           0.375
  18020528.545   -21957449.385 7 -17109697.282 4        21.500           3.500
  19041339.709    -7954262.237 7  -6198125.241 3        21.750           2.656
  17675983.350   -23929655.911 7 -18646483.292 4        24.500           3.656
 98  2 12  3 19 59.9900000  0  7 05 06 08 17 10 24 30
  17865285.248   -13293053.232 7 -10358223.741 4        22.500           4.063
  19292256.420   -25671225.945 6 -20003546.644 2        17.250           1.875
  21028775.951      -88578.423 3    -22958.292 1         5.750           0.375
  21192810.428    -6641475.265 4  -4857742.426 1         6.750           0.563
  17998242.475   -22074557.641 7 -17200950.462 3        21.750           3.438
  19032938.139    -7998416.944 7  -6232531.508 2        22.250           2.469
  17650185.506   -24065226.984 7 -18752123.086 4        24.500           3.719
 98  2 12  3 20 29.9900000  0  7 05 06 08 17 10 24 30
  17854367.115   -13350421.419 7 -10402926.241 4        22.250           4.063
  19258104.631   -25850685.862 6 -20143385.535 2        17.000           1.875
  21023191.514     -117952.455 4    -45847.134 1         6.750           0.219
  21155033.873    -6840004.355 4  -5012440.349 1         6.500           0.438
  17976075.631   -22191054.941 7 -17291727.569 4        22.000           3.531
  19024557.990    -8042457.319 7  -6266848.676 2        22.000           2.438
  17624497.459   -24200203.840 7 -18857299.869 4        24.000           3.750
 98  2 12  3 20 59.9900000  0  7 05 06 08 17 10 24 30
  17843544.561   -13407298.404 7 -10447245.979 4        22.000           4.063
  19223964.576   -26030096.258 6 -20283185.837 2        17.000           1.906
  21017615.287     -147244.845 4    -68672.395 1         7.000           0.375
  21117283.115    -7038375.156 4  -5167014.919 1         6.750           0.313
  17954020.193   -22306956.163 7 -17382040.203 4        22.000           3.500
  19016196.873    -8086395.689 7  -6301086.366 3        22.000           2.500
  17598922.834   -24334601.570 7 -18962025.372 4        23.750           3.750
 98  2 12  3 21 29.9890000  0  7 05 06 08 17 10 24 30
  17832813.493   -13463703.256 7 -10491197.830 4        22.250           4.031
  19189831.478   -26209461.957 6 -20422951.306 2        17.250           1.938
  21012054.837     -176472.583 4    -91447.278 1         7.250           0.219
  21079577.353    -7236553.941 5  -5321439.870 1         7.500           0.313
  17932078.900   -22422261.280 7 -17471888.334 3        22.000           3.438
  19007852.212    -8130239.257 7  -6335250.187 2        22.000           2.469
  17573457.985   -24468430.347 7 -19066307.540 4        24.250           3.688
 98  2 12  3 21 59.9890000  0  7 05 06 08 17 10 24 30
  17822165.642   -13519650.067 7 -10534792.768 4        22.000           4.063
  19155706.532   -26388791.293 6 -20562688.436 2        17.500           1.938
  21006505.524     -205631.558 4   -114168.575 1         6.750           0.313
  21041901.595    -7434516.151 4  -5475696.038 1         7.250           0.469
  17910250.564   -22536968.571 7 -17561270.631 3        21.750           3.375
  18999527.134    -8173990.916 7  -6369342.387 2        21.750           2.375
  17548099.884   -24601684.120 7 -19170141.658 4        24.000           3.750
 98  2 12  3 22 29.9890000  0  7 05 06 08 17 10 24 30
  17811602.868   -13575141.428 7 -10578032.801 4        21.750           3.969
  19121593.712   -26568065.790 6 -20702382.835 2        17.500           1.969
  21000966.181     -234741.404 4   -136851.611 1         6.500           0.313
  21004272.939    -7632256.147 4  -5629779.148 1         7.250           0.469
  17888533.884   -22651089.079 7 -17650195.688 4        21.750           3.500
  18991217.251    -8217668.023 7  -6403376.497 2        20.750           2.281
  17522851.493   -24734364.368 7 -19273528.870 4        24.250           3.656
 98  2 12  3 22 59.9890000  0  7 05 06 08 17 10 24 30
  17801134.150   -13630182.740 7 -10620922.153 4        22.000           3.875
  19087488.345   -26747279.369 6 -20842029.777 2        17.000           1.969
  20995431.657     -263826.275 4   -159515.170 1         6.500           0.375
  20966685.696    -7829787.909 4  -5783699.958 1         7.250           0.344
  17866932.196   -22764619.999 7 -17738661.337 4        22.000           3.563
  18982913.251    -8261283.356 7  -6437362.473 2        20.750           2.375
  17497710.915   -24866486.798 7 -19376481.415 4        24.250           3.813
 98  2 12  3 23 29.9890000  0  7 05 06 08 17 10 24 30
  17790743.243   -13684774.972 7 -10663461.562 4        21.000           3.750
  19053398.985   -26926426.712 6 -20981625.098 2        18.000           1.906
  20989896.540     -292891.429 3   -182163.349 1         6.000           0.281
  20929133.298    -8027130.064 5  -5937472.977 1         7.500           0.375
  17845443.314   -22877547.129 7 -17826656.497 3        22.250           3.438
  18974630.017    -8304825.691 7  -6471291.567 2        21.750           2.375
  17472674.056   -24998041.733 7 -19478991.765 4        24.750           3.625
 98  2 12  3 23 59.9890000  0  7 05 06 08 17 10 24 30
  17780438.103   -13738928.772 7 -10705659.349 4        21.500           3.781
  19019319.524   -27105506.442 6 -21121167.728 2        18.000           2.188
  20984377.501     -321943.107 2   -204801.025 1         4.500           0.188
  20891611.931    -8224313.289 5  -6091122.207 1         8.000           0.469
  17824068.626   -22989873.836 7 -17914183.798 4        22.500           3.625
  18966355.900    -8348295.687 7  -6505164.284 2        21.250           2.281
  17447746.845   -25129033.987 7 -19581063.661 4        24.750           3.844
 98  2 12  3 24 29.9890000  0  7 05 06 08 17 10 24 30
  17770216.548   -13792638.539 7 -10747511.118 4        21.250           3.813
  18985258.290   -27284512.409 6 -21260652.886 2        18.000           2.094
  20978845.228     -351001.826 3   -227444.184 1         5.500           0.438
  20854111.196    -8421360.750 5  -6244665.626 1         7.500           0.438
  17802810.251   -23101598.277 7 -18001241.801 4        22.750           3.500
  18958102.204    -8391691.805 7  -6538979.441 2        21.750           2.250
  17422925.212   -25259466.781 7 -19682699.610 4        24.750           3.750
 98  2 12  3 24 59.9890000  0  7 05 06 08 17 10 24 30
  17760081.376   -13845906.879 7 -10789018.945 4        20.750           3.844
  18951206.087   -27463460.246 6 -21400092.746 2        18.000           2.156
  20973311.095     -380068.972 4   -250093.900 1         6.250           0.531
  20816645.806    -8618261.915 5  -6398095.049 1         8.000           0.531
  17781663.446   -23212714.742 7 -18087826.049 3        22.500           3.469
  18949858.704    -8435003.547 7  -6572728.845 2        21.250           2.281
  17398213.329   -25389330.500 7 -19783892.126 4        24.250           3.906
 98  2 12  3 25 29.9890000  0  7 05 06 08 17 10 24 30
  17750026.618   -13898735.293 7 -10830183.961 4        20.750           3.688
  18917161.728   -27642351.010 6 -21539488.137 2        17.500           2.031
  20967778.173     -409134.159 3   -272742.100 1         5.500           0.594
  20779206.712    -8815001.270 5  -6551398.444 1         7.750           0.531
  17760630.126   -23323236.082 7 -18173946.567 3        23.000           3.469
  18941639.946    -8478205.591 7  -6606392.780 2        21.250           2.250
  17373615.657   -25518606.734 7 -19884626.859 4        24.500           3.813
 98  2 12  3 25 59.9890000  0  7 05 06 08 17 10 24 30
  17740061.048   -13951110.680 7 -10870995.965 4        21.250           3.750
  18883132.657   -27821182.784 6 -21678837.567 2        17.750           2.219
  20962251.267     -438186.324 3   -295380.143 1         5.000           0.375
  20741800.024    -9011558.444 5  -6704559.806 1         8.000           0.500
  17739709.400   -23433170.214 7 -18259609.520 3        22.750           3.438
  18933433.814    -8521308.215 7  -6639979.246 2        20.750           2.156
  17349128.899   -25647288.207 7 -19984898.143 4        24.000           3.719
 98  2 12  3 26 29.9890000  0  7 05 06 08 17 10 24 30
  17730181.587   -14003023.525 7 -10911447.555 4        20.250           3.625
  18849112.103   -27999960.532 6 -21818144.895 2        17.750           2.219
  20956727.954     -467230.023 2   -318011.598 1         4.500           0.438
  20704439.251    -9207912.926 5  -6857563.250 1         8.250           0.594
  17718902.501   -23542522.475 7 -18344819.065 4        23.000           3.563
  18925248.923    -8564319.765 7  -6673494.730 2        20.750           2.219
  17324754.110   -25775369.974 7 -20084702.125 4        24.500           3.719
 98  2 12  3 26 59.9890000  0  7 05 06 08 17 10 24 30
  17720391.470   -14054483.063 7 -10951545.913 4        21.000           3.563
  18815100.735   -28178692.706 6 -21957416.705 2        17.250           2.094
  20951204.751     -496254.611 2   -340628.165 1         4.750           0.250
  20667111.735    -9404060.072 5  -7010405.142 1         7.750           0.500
  17698205.548   -23651294.480 7 -18429576.465 3        23.000           3.469
  18917079.282    -8607250.205 7  -6706947.029 2        21.000           2.281
  17300490.681   -25902869.456 7 -20184052.376 4        24.250           3.781
 98  2 12  3 27 29.9890000  0  6 05 06 17 10 24 30
  17710685.267   -14105482.274 7 -10991285.571 4        20.750           3.594
  18781098.181   -28357369.084 6 -22096645.043 2        17.500           2.094
  20629825.845    -9600009.874 5  -7163093.247 1         8.250           0.531
  17677617.978   -23759471.262 7 -18513870.056 3        22.750           3.406
  18908923.407    -8650103.351 7  -6740339.083 2        21.000           2.313
  17276340.618   -26029777.532 7 -20282941.797 4        24.500           3.875
 98  2 12  3 27 59.9880000  0  7 05 06 08 17 10 24 30
  17701068.059   -14156022.024 7 -11030667.212 4        20.500           3.719
  18747110.098   -28535984.487 6 -22235825.854 2        18.000           2.219
  20940166.145          -0.15212                         4.750
  20592574.738    -9795763.306 5  -7315628.376 1         8.000           0.531
  17657148.949   -23867035.974 7 -18597686.706 4        22.500           3.500
  18900780.566    -8692900.410 7  -6773687.438 2        20.750           2.281
  17252306.356   -26156092.782 7 -20381369.271 4        24.750           3.813
 98  2 12  3 28 29.9880000  0  7 05 06 08 17 10 24 30
  17691537.285   -14206114.754 7 -11069700.525 4        20.750           3.656
  18713130.262   -28714545.940 6 -22374964.649 2        17.500           2.156
  20934653.645      -28976.851 3                         5.250
  20555353.465    -9991342.697 5  -7468027.902 1         8.000           0.500
  17636793.957   -23973992.477 7 -18681029.432 3        22.500           3.469
  18892647.488    -8735640.803 7  -6806991.634 2        21.000           2.313
  17228378.856   -26281835.064 7 -20479350.277 4        24.500           3.906
 98  2 12  3 28 59.9880000  0  7 05 06 08 17 10 24 30
  17682083.637   -14255773.563 7 -11108395.718 3        20.250           3.438
  18679165.777   -28893033.654 6 -22514045.959 2        17.500           2.125
  20929142.012      -57941.624 4        -0.01711         6.750           0.219
  20518168.582   -10186755.900 5  -7620297.874 1         8.250           0.500
  17616559.191   -24080330.703 7 -18763890.380 3        22.000           3.469
  18884530.277    -8778325.994 7  -6840252.832 2        21.750           2.188
  17204562.254   -26406987.116 7 -20576871.369 4        24.000           3.906
 98  2 12  3 29 29.9880000  0  7 05 06 08 17 10 24 30
  17672718.254   -14304995.582 7 -11146750.551 3        21.000           3.469
  18645216.449   -29071438.418 6 -22653062.658 2        17.750           2.250
  20923626.840      -86911.530 4    -22573.995 1         7.000           0.281
  20481010.106   -10382012.236 5  -7772445.664 1         8.250           0.656
  17596440.317   -24186066.764 7 -18846282.113 3        22.500           3.469
  18876415.817    -8820957.262 7  -6873472.010 2        21.000           2.156
  17180860.496   -26531526.978 7 -20673915.424 4        24.000           3.938
 98  2 12  3 29 59.9880000  0  7 05 06 08 17 10 24 30
  17663436.926   -14353770.619 7 -11184757.093 4        21.000           3.719
  18611285.254   -29249744.573 6 -22792002.500 2        18.000           2.313
  20918113.168     -115883.922 4    -45149.921 1         6.750           0.219
  20443889.887   -10577098.676 5  -7924461.008 1         8.750           0.594
  17576434.442   -24291200.665 7 -18928204.624 3        22.500           3.469
  18868311.371    -8863529.265 7  -6906644.974 2        20.750           2.281
  17157276.996   -26655459.263 7 -20770486.043 4        24.000           3.938
 98  2 12  3 30 29.9880000  0  7 05 06 08 17 10 24 30
  17654239.192   -14402105.125 7 -11222420.355 4        21.000           3.531
  18577372.387   -29427954.723 6 -22930867.539 2        17.500           2.188
  20912599.848     -144875.424 4    -67740.755 1         7.250           0.281
  20406797.926   -10772013.061 5  -8076342.308 1         8.500           0.469
  17556539.145   -24395740.829 7 -19009664.490 3        22.750           3.469
  18860224.231    -8906038.510 7  -6939769.070 2        20.750           2.313
  17133811.668   -26778782.395 7 -20866581.995 4        24.250           3.906
 98  2 12  3 30 59.9880000  0  7 05 06 08 17 10 24 30
  17645129.934   -14449982.743 7 -11259727.606 4        21.000           3.531
  18543477.090   -29606078.326 6 -23069665.144 2        17.750           2.250
  20907076.895     -173894.080 3    -90352.693 1         6.000           0.281
  20369739.762   -10966747.804 5  -8228083.662 1         8.000           0.438
  17536757.504   -24499683.783 7 -19090658.989 3        22.500           3.469
  18852146.074    -8948479.930 7  -6972840.307 2        21.000           2.094
  17110462.817   -26901487.078 7 -20962196.046 4        24.000           3.938
 98  2 12  3 31 29.9880000  0  7 05 06 08 17 10 24 30
  17636107.152   -14497392.308 7 -11296670.135 4        21.500           3.563
  18509596.090   -29784126.321 6 -23208403.827 2        18.250           2.188
  20901544.527     -202954.592 3   -112997.238 1         6.000           0.281
  20332723.129   -11161280.299 5  -8379667.388 1         8.500           0.469
  17517091.699   -24603030.540 7 -19171188.924 3        22.500           3.438
  18844084.871    -8990846.304 7  -7005853.064 2        20.750           2.031
  17087225.809   -27023595.970 7 -21057345.846 4        24.250           3.875
 98  2 12  3 31 59.9880000  0  7 05 06 08 17 10 24 30
  17627168.613   -14544356.562 7 -11333265.672 4        21.000           3.625
  18475724.918   -29962120.151 6 -23347100.303 2        18.250           2.281
  20896005.871     -232065.325 3   -135680.918 1         5.750           0.313
  20295746.348   -11355594.559 5  -8531081.072 1         8.500           0.500
  17497544.863   -24705768.759 7 -19251244.671 4        22.500           3.531
  18836036.418    -9033152.701 7  -7038819.076 2        21.250           2.063
  17064094.809   -27145135.529 7 -21152052.005 4        23.750           4.000
 98  2 12  3 32 29.9880000  0  7 05 06 08 17 10 24 30
  17618320.301   -14590874.301 7 -11369513.273 4        21.500           3.500
  18441866.692   -30140056.802 6 -23485752.229 2        18.000           2.188
  20890458.981     -261217.863 4   -158397.175 1         6.750           0.219
  20258817.215   -11549673.360 5  -8682311.276 1         8.250           0.594
  17478108.426   -24807900.585 7 -19330827.902 3        22.500           3.438
  18827996.270    -9075389.878 7  -7071731.167 2        20.750           2.219
  17041076.238   -27266096.471 7 -21246307.305 4        24.000           3.969
 98  2 12  3 32 59.9880000  0  7 05 06 08 17 10 24 30
  17609549.762   -14636953.158 7 -11405418.885 3        21.500           3.344
  18408015.551   -30317932.839 6 -23624356.930 2        18.500           2.313
  20884899.535     -290411.816 3   -181145.740 1         6.000           0.281
  20221925.684   -11743520.683 5  -8833361.129 1         8.750           0.563
  17458786.215   -24909432.266 7 -19409943.498 3        22.500           3.406
  18819972.520    -9117571.958 7  -7104600.316 2        20.750           2.094
  17018166.856   -27386494.760 7 -21340124.151 4        24.000           3.938
 98  2 12  3 33 29.9880000  0  7 05 06 08 17 10 24 30
  17600859.293   -14682625.812 7 -11441007.980 4        21.000           3.688
  18374180.879   -30495735.455 6 -23762904.412 2        18.500           2.344
  20879342.121     -319645.167 3   -203924.981 1         5.250           0.313
  20185082.785   -11937145.037 5  -8984237.204 1         9.000           0.594
  17439577.598   -25010367.877 7 -19488594.611 3        22.750           3.406
  18811950.067    -9159714.576 7  -7137438.713 2        20.750           1.969
  16995363.574   -27506333.306 7 -21433504.847 4        24.250           3.844
 98  2 12  3 33 59.9880000  0  7 05 06 08 17 10 24 30
  17592249.270   -14727877.138 7 -11476268.781 4        22.000           3.563
  18340366.848   -30673433.645 6 -23901370.518 2        19.000           2.250
  20873774.106     -348892.078 2   -226714.806 1         4.500           0.406
  20148278.762   -12130551.632 5  -9134943.633 1         8.750           0.656
  17420486.098   -25110705.874 7 -19566780.055 4        22.250           3.500
  18803937.840    -9201808.867 6  -7170239.451 2        19.750           1.906
  16972668.793   -27625585.525 7 -21526428.664 4        24.000           3.938
 98  2 12  3 34 29.9880000  0  7 05 06 08 17 10 24 30
  17583720.817   -14772691.709 7 -11511189.232 3        21.500           3.469
  18306573.590   -30851008.929 6 -24039740.871 2        18.750           2.438
  20868208.301     -378146.014 3   -249510.078 1         5.000           0.281
  20111513.809   -12323760.380 5  -9285495.890 1         8.750           0.563
  17401502.691   -25210466.286 7 -19644515.432 3        22.500           3.469
  18795939.621    -9243849.769 7  -7202998.589 2        20.000           2.031
  16950090.238   -27744237.333 7 -21618884.633 4        24.250           3.938
 98  2 12  3 34 59.9870000  0  7 05 06 08 17 10 24 30
  17575269.710   -14817082.993 7 -11545779.859 4        20.750           3.500
  18272806.163   -31028460.480 6 -24178014.808 2        19.000           2.438
  20862634.132     -407419.462 3   -272320.514 1         5.750           0.219
  20074779.538   -12516790.855 5  -9435909.212 1         9.250           0.781
  17382627.929   -25309643.600 7 -19721796.449 3        22.750           3.438
  18787949.687    -9285844.819 7  -7235722.025 2        20.000           2.063
  16927625.632   -27862293.546 7 -21710876.498 4        24.000           3.938
 98  2 12  3 35 29.9870000  0  7 05 06 08 17 10 24 30
  17566907.585   -14861043.296 7 -11580034.664 4        21.500           3.563
  18239060.374   -31205806.200 6 -24316206.247 3        19.000           2.500
  20857061.882     -436715.494 5   -295148.552 1         7.500           0.250
  20038075.804   -12709654.117 5  -9586192.240 1         8.250           0.688
  17363865.296   -25408243.809 7 -19798627.771 3        22.500           3.469
  18779968.718    -9327784.576 6  -7268402.348 2        19.750           1.969
  16905274.734   -27979752.004 7 -21802402.580 4        23.750           3.906
 98  2 12  3 35 59.9870000  0  7 05 06 08 17 10 24 30
  17558623.679   -14904572.486 7 -11613953.523 4        21.250           3.563
  18205329.898   -31383064.415 6 -24454329.533 2        19.000           2.469
  20851484.218     -466044.786 5   -318002.567 1         7.750           0.094
  20001408.038   -12902345.795 5  -9736341.565 1         8.500           0.750
  17345214.468   -25506272.158 7 -19875013.497 3        23.000           3.375
  18771997.788    -9369673.375 7  -7301042.964 2        20.000           2.031
  16883033.593   -28096619.708 7 -21893468.329 4        23.500           4.063
 98  2 12  3 36 29.9870000  0  7 05 06 08 17 10 24 30
  17550418.819   -14947688.260 7 -11647550.240 3        20.500           3.438
  18171609.007   -31560257.503 6 -24592402.054 3        19.250           2.594
  20845891.593     -495419.334 4   -340891.834 1         6.750           0.156
  19964774.757   -13094864.714 5  -9886356.289 1         9.000           0.625
  17326672.905   -25603705.820 7 -19950935.823 4        22.750           3.531
  18764035.702    -9411510.956 6  -7333643.680 2        19.750           2.063
  16860906.101   -28212898.868 7 -21984075.480 4        24.250           4.000
 98  2 12  3 36 59.9870000  0  7 05 06 08 17 10 24 30
  17542288.054   -14990415.415 7 -11680844.139 3        20.750           3.375
  18137900.319   -31737402.992 6 -24730437.492 3        19.750           2.531
  20840288.843     -524853.083 4                         6.500
  19928173.694   -13287209.318 5 -10036235.195 1         8.750           0.563
  17308245.694   -25700536.213 7 -20026388.071 3        23.000           3.406
  18756080.476    -9453304.228 6  -7366209.867 2        19.250           2.000
  16838892.460   -28328595.865 7 -22074228.995 4        23.750           4.094
 98  2 12  3 37 29.9870000  0  7 05 06 08 17 10 24 30
  17534229.812   -15032756.265 7 -11713837.021 3        20.500           3.438
  18104198.960   -31914503.414 6 -24868437.809 3        19.500           2.625
  20834679.116     -554343.536 4        -0.45511         6.500           0.125
  19891604.960   -13479371.210 5 -10185971.717 1         9.000           0.531
  17289928.991   -25796777.580 7 -20101381.338 3        23.000           3.375
  18748140.304    -9495047.927 6  -7398737.422 2        18.500           1.875
  16816990.226   -28443693.866 7 -22163915.762 4        24.250           4.063
 98  2 12  3 37 59.9870000  0  7 05 06 08 17 10 24 30
  17526246.210   -15074711.501 7                        20.500
  18070510.374   -32091537.967 6 -25006386.805 3        19.500           2.625
  20829055.304     -583886.815 3    -23021.207 1         5.500           0.188
  19855070.874   -13671354.416 5 -10335568.977 1         9.250           0.750
  17271731.312   -25892427.318 7 -20175913.589 3        23.000           3.406
  18740205.632    -9536741.859 6                        19.000
  16795201.523   -28558181.968 7 -22253127.279 4        24.250           4.125
 98  2 12  3 38 29.9870000  0  7 05 06 08 17 10 24 30
  17518335.116   -15116286.292 7 -11778925.394 3        20.750           3.406
  18036838.257   -32268489.926 7 -25144271.442 3        20.250           2.625
  20823418.546     -613502.039 2    -46097.953 1         4.250           0.219
  19818569.968   -13863174.851 5 -10485039.406 1         9.500           0.656
  17253639.413   -25987500.530 7 -20249996.609 4        23.000           3.500
  18732281.694    -9578391.825 6  -7463680.705 2        19.000           1.875
  16773531.163   -28672060.125 7 -22341863.520 4        23.750           4.063
 98  2 12  3 38 59.9870000  0  7 05 06 08 17 10 24 30
  17510500.007   -15157460.925 7 -11811009.530 3        20.500           3.438
  18003187.882   -32445320.571 7 -25282061.542 3        20.000           2.594
  20817772.694     -643178.098 2    -69222.147 1         3.750           0.313
  19782106.007   -14054810.187 5 -10634365.623 1         9.500           0.688
  17235652.398   -26082008.739 7 -20323639.365 3        22.750           3.438
  18724364.562    -9619994.100 6  -7496098.077 2        19.250           1.750
  16751980.030   -28785313.247 7 -22430112.712 4        23.750           4.094
 98  2 12  3 39 29.9870000  0  7 05 06 08 17 10 24 30
  17502743.054   -15198233.811 7 -11842780.633 3        20.250           3.438
  17969564.038   -32622015.951 7 -25419746.237 3        20.500           2.813
  20812109.937     -672920.078 2    -92397.754 1         4.000           0.219
  19745667.796   -14246266.685 5 -10783552.482 1         9.250           0.625
  17217773.312   -26175954.577 7 -20396843.911 3        22.500           3.469
  18716451.554    -9661559.179 6  -7528486.444 2        18.750           1.656
  16730547.171   -28897947.690 7 -22517879.824 4        24.250           3.969
 98  2 12  3 39 59.9870000  0  7 05 06 08 17 10 24 30
  17495063.069   -15238591.516 7 -11874228.213 3        20.250           3.344
  17935966.093   -32798565.673 6 -25557317.438 3        19.750           2.625
  20806442.655     -702731.559 3   -115627.438 1         5.500           0.281
  19709276.234   -14437530.591 5 -10932589.275 1         9.750           0.688
  17200007.577   -26269313.927 7 -20469591.446 4        22.750           3.563
  18708545.030    -9703100.988 6  -7560856.672 2        19.250           1.719
  16709230.124   -29009974.663 7 -22605173.585 4        23.750           4.156
 98  2 12  3 40 29.9870000  0  6 05 06 17 10 24 30
  17487460.187   -15278547.701 7 -11905362.922 3        20.500           3.313
  17902397.171   -32974987.027 7 -25694788.612 3        20.000           2.875
  19672915.335   -14628591.067 5 -11081467.543 1        10.000           0.656
  17182354.569   -26362082.748 7 -20541878.836 3        22.750           3.469
  18700644.851    -9744626.077 6  -7593213.886 2        18.500           1.750
  16688024.757   -29121411.423 7 -22692007.437 4        23.500           3.938
 98  2 12  3 40 59.9870000  0  6 05 06 17 10 24 30
  17479931.054   -15318105.918 7 -11936187.519 3        20.750           3.250
  17868843.819   -33151301.297 7 -25832176.351 3        20.000           2.906
  19636602.085   -14819435.130 5 -11230177.177 1         9.750           0.656
  17164815.827   -26454258.865 7 -20613704.375 4        23.250           3.531
  18692744.913    -9786129.204 6  -7625553.985 2        18.000           1.750
  16666928.210   -29232268.343 7 -22778389.467 4        24.000           4.031
 98  2 12  3 41 29.9870000  0  6 05 06 17 10 24 30
  17472478.929   -15357262.009 7 -11966698.775 3        20.000           3.219
  17835310.296   -33327524.951 6 -25969493.469 3        19.500           2.813
  19600321.499   -15010059.498 5 -11378715.614 1         9.750           0.500
  17147390.546   -26545829.230 7 -20685057.902 4        23.000           3.563
  18684857.538    -9827596.012 6  -7657865.791 2        18.500           1.625
  16645940.601   -29342552.766 7 -22864325.394 4        23.750           4.125
 98  2 12  3 41 59.9860000  0  6 05 06 17 10 24 30
  17465105.557   -15396012.598 7 -11996894.055 3        20.000           3.250
  17801792.065   -33503664.201 7 -26106744.825 3        20.250           2.906
  19564092.783   -15200448.011 5 -11527070.286 1        10.250           0.594
  17130082.432   -26636793.369 7 -20755939.039 4        22.750           3.531
  18676976.580    -9869005.702 6  -7690133.070 2        18.000           1.594
  16625064.596   -29452257.576 7 -22949809.674 4        24.000           4.063
 98  2 12  3 42 29.9860000  0  6 05 06 17 10 24 30
  17457801.900   -15434383.419 7 -12026793.410 3        20.000           3.188
  17768285.611   -33679738.846 7 -26243945.843 3        20.000           2.844
  19527907.908   -15390631.519 5 -11675265.206 1        10.000           0.688
  17112879.635   -26727183.316 7 -20826372.756 4        22.750           3.594
  18669110.830    -9910355.036 6  -7722353.335 2        18.250           1.500
  16604295.721   -29561398.154 7 -23034854.295 4        24.000           4.094
 98  2 12  3 42 59.9860000  0  6 05 06 17 10 24 30
  17450573.635   -15472368.839 7 -12056392.454 3        20.000           3.094
  17734793.315   -33855734.797 7 -26381085.531 3        20.000           3.000
  19491752.213   -15580618.035 5 -11823306.636 1         9.500           0.781
  17095786.830   -26816999.651 7 -20896359.504 4        23.000           3.563
  18661249.471    -9951649.082 6  -7754530.514 2        18.000           1.625
  16583639.854   -29669957.857 7 -23119446.282 4        24.000           4.125
 98  2 12  3 43 29.9860000  0  6 05 06 17 10 24 30
  17443420.510   -15509973.718 7 -12085694.977 3        20.000           2.969
  17701321.479   -34031641.411 7 -26518155.609 3        20.250           3.063
  19455634.033   -15770422.880 5 -11971206.487 1         9.750           0.625
  17078805.791   -26906238.390 7 -20965896.172 4        23.000           3.594
  18653399.736    -9992903.987 6  -7786677.191 2        18.500           1.625
  16563094.893   -29777923.042 7 -23203575.011 4        23.750           4.156
 98  2 12  3 43 59.9860000  0  6 05 06 17 10 24 30
  17436332.666   -15547205.783 7 -12114706.983 3        20.000           2.969
  17667867.752   -34207443.885 7 -26655144.532 3        20.250           2.938
  19419548.533   -15960055.530 5 -12118972.198 1        10.000           0.625
  17061934.869   -26994898.262 7 -21034981.786 4        23.250           3.500
  18645555.229   -10034137.008 6  -7818806.811 2        17.250           1.594
  16542663.619   -29885284.662 7 -23287233.435 4        24.000           4.156
 98  2 12  3 44 29.9860000  0  6 05 06 17 10 24 30
  17429320.283   -15584066.938 7 -12143429.976 3        20.000           3.063
  17634435.658   -34383130.737 7 -26792043.364 3        20.250           3.219
  19383493.565   -16149514.074 5 -12266602.208 1        10.000           0.719
  17045173.236   -27082987.335 7 -21103622.610 4        23.500           3.625
  18637707.565   -10075361.578 6  -7850929.856 2        17.500           1.656
  16522347.838   -29992040.434 7 -23370419.760 4        24.250           4.094
 98  2 12  3 44 59.9860000  0  6 05 06 17 10 24 30
  17422374.760   -15620556.306 6 -12171863.264 3        19.500           2.938
  17601025.861   -34558700.490 7 -26928850.964 3        20.500           3.094
  19347474.541   -16338791.984 5 -12414091.466 1        10.000           0.750
  17028518.729   -27170502.758 7 -21171816.437 4        23.000           3.594
  18629865.986   -10116580.444 6  -7883048.453 2        18.250           1.563
  16502149.799   -30098180.752 7 -23453126.516 4        23.500           4.094
 98  2 12  3 45 29.9860000  0  6 05 06 17 10 24 30
  17415502.775   -15656672.284 7 -12200005.610 3        20.000           3.000
  17567637.815   -34734151.469 7 -27065565.993 3        20.500           3.094
  19311488.213   -16527882.022 5 -12561434.363 1        10.000           0.563
  17011978.729   -27257441.634 7 -21239561.009 4        23.500           3.563
  18622021.549   -10157785.809 6  -7915156.523 2        17.750           1.625
  16482066.260   -30203718.557 7 -23535363.779 4        23.750           4.000
 98  2 12  3 45 59.9860000  0  6 05 06 17 10 24 30
  17408701.604   -15692414.601 7 -12227856.783 3        20.000           2.906
  17534272.307   -34909484.178 7 -27202188.869 3        20.750           3.188
  19275544.322   -16716779.345 5 -12708627.096 1        10.000           0.688
  16995541.955   -27343812.099 7 -21306862.662 4        23.500           3.656
  18614189.072   -10198959.850 6  -7947240.201 2        18.000           1.688
  16462096.533   -30308661.301 7 -23617137.358 4        23.500           4.031
 98  2 12  3 46 29.9860000  0  6 05 06 17 10 24 30
  17401973.994   -15727778.119 6 -12255412.792 3        19.500           2.688
  17500928.682   -35084701.386 7 -27338721.747 3        20.750           3.156
  19239645.236   -16905462.860 5 -12855653.196 1        10.500           0.719
  16979213.541   -27429613.102 7 -21373720.582 4        23.000           3.625
  18606366.018   -10240080.745 6  -7979282.453 1        18.250           1.469
  16442242.377   -30412992.540 7 -23698434.440 4        23.750           4.063
 98  2 12  3 46 59.9860000  0  6 05 06 17 10 24 30
  17395316.080   -15762764.885 6 -12282675.225 3        19.750           2.781
  17467605.713   -35259822.603 7 -27475179.834 3        21.250           3.188
  19203774.518   -17093946.987 5 -13002523.936 1        10.250           0.906
  16962995.822   -27514837.272 7 -21440129.015 4        23.250           3.656
  18598543.666   -10281169.736 6  -8011299.844 2        18.500           1.531
  16422504.408   -30516722.577 7 -23779263.060 4        23.250           4.125
 98  2 12  3 47 29.9860000  0  6 05 06 17 10 24 30
  17388730.291   -15797371.284 6 -12309641.271 3        19.500           2.781
  17434298.791   -35434844.951 7 -27611560.873 3        21.000           3.250
  19167942.252   -17282226.888 5 -13149235.541 1        10.250           0.719
  16946887.291   -27599484.852 7 -21506088.163 4        23.250           3.563
  18590728.432   -10322238.025 6  -8043301.107 2        17.750           1.563
  16402878.088   -30619859.192 7 -23859629.270 4        24.000           4.125
 98  2 12  3 47 59.9860000  0  6 05 06 17 10 24 30
  17382213.541   -15831609.463 6 -12336320.382 3        19.750           2.719
  17401012.971   -35609762.311 7 -27747860.107 3        21.000           3.219
  19132160.525   -17470287.783 5 -13295776.501 1        10.500           0.719
  16930886.440   -27683574.069 7 -21571612.219 4        23.250           3.781
  18582916.861   -10363291.328 6  -8075290.705 2        17.000           1.656
  16383365.486   -30722398.900 7 -23939530.361 4        24.000           4.094
 98  2 12  3 48 29.9850000  0  6 05 06 17 10 24 30
  17375769.880   -15865485.367 6 -12362717.201 3        19.500           2.625
  17367752.114   -35784564.379 7 -27884069.493 3        21.750           3.250
  19096410.911   -17658131.204 5 -13442147.988 1        10.750           0.844
  16914992.458   -27767103.454 7 -21636700.049 4        23.000           3.719
  18575098.239   -10404360.104 6  -8107292.347 2        16.750           1.563
  16363962.872   -30824351.337 7 -24018973.825 4        24.000           3.906
 98  2 12  3 48 59.9850000  0  6 05 06 17 10 24 30
  17369394.177   -15898992.646 6 -12388826.789 3        19.500           2.656
  17334512.739   -35959232.586 7 -28020174.576 3        21.750           3.188
  19060704.880   -17845775.429 5 -13588364.262 1        10.500           0.813
  16899201.497   -27850075.753 7 -21701353.781 4        23.000           3.688
  18567281.817   -10445446.356 6  -8139307.600 2        16.750           1.594
  16344670.513   -30925734.067 7 -24097973.375 4        24.000           4.094
 98  2 12  3 49 29.9850000  0  6 05 06 17 10 24 30
  17363082.732   -15932149.269 6 -12414663.127 3        19.500           2.688
  17301302.403   -36133755.413 7 -28156166.390 3        21.750           3.375
  19025038.411   -18033217.260 5 -13734422.834 1        11.250           0.906
  16883515.505   -27932507.424 7 -21765586.243 4        22.750           3.719
  18559465.021   -10486532.069 6  -8171322.437 2        16.500           1.563
  16325487.185   -31026543.987 7 -24176526.573 4        24.250           4.031
 98  2 12  3 49 59.9850000  0  6 05 06 17 10 24 30
  17356839.247   -15964952.715 6 -12440224.275 3        19.500           2.688
  17268121.247   -36308120.904 7 -28292035.590 3        21.500           3.281
  18989404.200   -18220451.783 5 -13880319.861 1        11.250           0.750
  16867933.427   -28014376.043 7 -21829379.964 4        23.250           3.563
  18551649.833   -10527597.516 6  -8203321.488 2        16.000           1.563
  16306419.427   -31126750.893 7 -24254609.900 4        24.000           3.969
 98  2 12  3 50 29.9850000  0  6 05 06 17 10 24 30
  17350665.021   -15997401.700 6 -12465509.214 3        19.000           2.563
  17234967.646   -36482341.535 7 -28427791.914 3        22.500           3.188
  18953815.794   -18407491.155 5 -14026064.826 1        10.750           0.750
  16852466.364   -28095666.846 7 -21892723.442 4        23.250           3.656
  18543838.091   -10568645.356 6  -8235306.833 1        16.250           1.469
  16287467.185   -31226351.720 7 -24332220.948 4        23.750           3.906
 98  2 12  3 50 59.9850000  0  6 05 06 17 10 24 30
  17344558.997   -16029495.629 6 -12490517.477 3        19.250           2.594
  17201840.067   -36656426.981 7 -28563442.903 3        22.000           3.250
  18918262.857   -18594319.199 5 -14171645.109 1        11.000           0.969
  16837105.966   -28176374.596 7 -21955612.595 4        23.000           3.813
  18536033.630   -10609657.580 6  -8267264.412 2        16.500           1.563
  16268631.716   -31325336.716 7 -24409352.131 4        24.500           4.031
 98  2 12  3 51 29.9850000  0  6 05 06 17 10 24 30
  17338517.028   -16061243.189 6 -12515255.851 3        19.500           2.594
  17168736.403   -36830393.819 7 -28699001.472 3        22.250           3.281
  18882749.278   -18780930.227 5 -14317056.296 1        11.250           0.719
  16821860.661   -28256490.265 7 -22018040.383 4        23.250           3.813
  18528234.646   -10650638.367 6  -8299197.493 1        16.250           1.438
  16249914.427   -31423698.016 7 -24485997.317 4        23.750           3.938
 98  2 12  3 51 59.9850000  0  6 05 06 17 10 24 30
  17332542.677   -16092641.943 6 -12539722.424 3        19.000           2.688
  17135654.896   -37004238.617 7 -28834464.944 3        22.250           3.188
  18847281.130   -18967322.965 5 -14462297.404 1        11.000           0.781
  16806728.083   -28336019.537 7 -22080011.240 4        23.250           3.844
  18520441.708   -10691600.502 6  -8331116.035 1        16.000           1.438
  16231310.599   -31521453.886 7 -24562170.734 4        23.500           3.906
 98  2 12  3 52 29.9850000  0  6 05 06 17 10 24 30
  17326636.216   -16123679.509 6 -12563907.551 3        19.000           2.656
  17102596.122   -37177960.730 7 -28969832.812 3        22.500           3.250
  18811854.521   -19153492.332 5 -14607364.426 1        11.000           0.969
  16791703.802   -28414983.456 7 -22141541.568 4        23.500           3.813
  18512653.177   -10732541.526 6  -8363018.128 1        16.000           1.438
  16212819.841   -31618621.937 7 -24637886.112 4        23.500           4.063
 98  2 12  3 52 59.9850000  0  6 05 06 17 10 24 30
  17320793.685   -16154380.783 6 -12587830.627 3        18.500           2.594
  17069559.114   -37351568.300 7 -29105111.430 3        22.250           3.219
  18776464.341   -19339470.852 5 -14752282.750 1        11.250           0.813
  16776776.825   -28493425.307 7 -22202665.083 4        23.250           3.781
  18504862.958   -10773476.351 6  -8394915.404 1        17.000           1.344
  16194436.677   -31715223.625 7 -24713160.180 4        23.250           4.000
 98  2 12  3 53 29.9850000  0  6 05 06 17 10 24 30
  17315013.739   -16184754.310 6 -12611498.322 3        19.000           2.531
  17036547.716   -37525053.130 7 -29240294.405 3        22.250           3.156
  18741107.021   -19525273.447 5 -14897063.996 1        10.500           0.781
  16761942.310   -28571365.332 7 -22263397.563 4        22.750           3.719
  18497070.903   -10814400.384 6  -8426804.262 1        16.250           1.406
  16176162.427   -31811264.950 7 -24787997.590 4        23.500           3.938
 98  2 12  3 53 59.9850000  0  6 05 06 17 10 24 30
  17309300.107   -16214790.849 6 -12634903.426 3        19.250           2.531
  17003557.974   -37698406.351 7 -29375374.832 3        22.000           3.031
  18705786.286   -19710890.935 5 -15041701.003 1        11.250           0.781
  16747205.677   -28648808.087 7 -22323742.567 4        23.000           3.813
  18489289.146   -10855296.483 6  -8458671.357 1        15.500           1.281
  16157993.263   -31906739.165 7 -24862393.094 4        23.500           4.063
 98  2 12  3 54 29.9850000  0  6 05 06 17 10 24 30
  17303643.364   -16244498.959 6 -12658052.626 3        18.750           2.531
  16970596.771   -37871625.166 7 -29510350.529 3        22.250           3.219
  18670496.810   -19896326.962 5 -15186196.597 1        11.500           1.000
  16732566.372   -28725750.123 7 -22383697.396 4        23.000           3.625
  18481513.903   -10896165.852 6  -8490517.616 1        16.250           1.250
  16139934.130   -32001632.254 7 -24936335.777 4        23.750           3.938
 98  2 12  3 54 59.9850000  0  6 05 06 17 10 24 30
  17298052.130   -16273889.160 6 -12680954.088 2        18.750           2.344
  16937660.255   -38044705.379 7 -29645218.209 3        22.000           3.063
  18635245.638   -20081578.553 5 -15330548.480 1        11.500           0.938
  16718019.646   -28802173.918 7 -22443248.406 4        23.000           3.719
  18473745.130   -10937006.753 6  -8522341.696 1        16.500           1.281
  16121990.466   -32095940.739 7 -25009822.923 4        23.500           4.000
 98  2 12  3 55 29.9840000  0  6 05 06 17 10 24 30
  17292521.539   -16302947.405 6 -12703596.882 2        18.750           2.406
  16904753.453   -38217631.851 7 -29779966.106 3        22.250           3.094
  18600036.906   -20266603.401 5 -15474723.684 1        11.500           0.875
  16703583.891   -28878044.849 7 -22502368.591 4        23.000           3.781
  18465977.359   -10977814.440 6  -8554139.897 1        16.500           1.281
  16104157.430   -32189648.470 7 -25082841.945 4        23.500           3.938
 98  2 12  3 55 59.9840000  0  6 05 06 17 10 24 30
  17287055.070   -16331673.147 6 -12725980.592 2        19.250           2.438
  16871872.250   -38390418.112 7 -29914604.735 3        22.250           3.219
  18564867.781   -20451416.071 5 -15618733.550 1        11.250           0.781
  16689254.945   -28953352.299 7 -22561049.733 4        23.250           3.594
  18458214.375   -11018619.788 6  -8585936.266 1        15.750           1.344
  16086438.180   -32282763.343 7 -25155399.008 4        23.000           3.906
 98  2 12  3 56 29.9840000  0  6 05 06 17 10 24 30
  17281652.344   -16360066.628 6 -12748105.398 2        18.750           2.438
  16839023.547   -38563044.822 7 -30049119.054 3        22.250           3.281
  18529745.453   -20636000.835 5 -15762565.822 1        11.750           0.813
  16675033.242   -29028074.146 7 -22619274.541 4        23.250           3.656
  18450447.867   -11059432.588 6  -8617738.467 1        15.750           1.188
  16068836.672   -32375269.343 7 -25227481.626 4        23.000           3.938
 98  2 12  3 56 59.9840000  0  6 05 06 17 10 24 30
  17276310.766   -16388137.087 6 -12769978.492 2        18.500           2.281
  16806202.695   -38735528.097 7 -30183521.595 3        22.750           3.125
  18494658.938   -20820364.958 5 -15906226.172 1        11.250           0.875
  16660929.891   -29102206.087 7 -22677039.683 4        23.000           3.781
  18442677.742   -11100260.011 6  -8649552.046 1        16.000           1.094
  16051344.774   -32467172.300 7 -25299094.336 4        23.250           3.906
 98  2 12  3 57 29.9840000  0  6 05 06 17 10 24 30
  17271029.695   -16415891.464 6 -12791605.305 2        18.500           2.344
  16773405.734   -38907868.478 7 -30317812.794 3        22.250           3.094
  18459615.875   -21004517.688 5 -16049721.780 1        11.500           0.938
  16646931.180   -29175749.366 7 -22734346.129 4        23.000           3.625
  18434902.820   -11141112.160 6  -8681384.884 1        16.500           1.125
  16033974.649   -32558474.057 7 -25370238.576 4        23.250           3.906
 98  2 12  3 57 59.9840000  0  6 05 06 17 10 24 30
  17265807.133   -16443339.113 6 -12812993.090 2        17.750           2.219
  16740636.766   -39080063.239 7 -30451990.528 3        22.500           3.156
  18424613.781   -21188471.428 5 -16193062.330 1        11.750           0.969
  16633048.461   -29248716.222 7 -22791203.415 4        23.000           3.688
  18427123.391   -11181996.097 6  -8713242.490 1        16.000           1.094
  16016711.625   -32649177.560 7 -25440916.646 4        23.750           3.938
 98  2 12  3 58 29.9840000  0  6 05 06 17 10 24 30
  17260637.422   -16470498.129 6 -12834155.964 2        18.500           2.219
  16707895.992   -39252123.641 7 -30586063.563 3        23.000           3.156
  18389643.016   -21372224.373 5 -16336246.422 1        11.750           0.969
  16619267.688   -29321128.580 7 -22847628.626 4        23.500           3.594
  18419335.688   -11222905.297 6  -8745119.802 1        14.500           1.156
  15999564.399   -32739293.709 7 -25511137.033 4        23.500           3.875
 98  2 12  3 58 59.9840000  0  6 05 06 17 10 24 30
  17255528.188   -16497352.433 6 -12855081.416 2        18.250           2.281
  16675180.000   -39424042.713 7 -30720026.473 3        22.750           3.219
  18354718.688   -21555787.538 5 -16479282.623 1        11.500           1.063
  16605593.766   -29393005.973 7 -22903636.978 4        23.750           3.594
  18411547.867   -11263827.763 6  -8777007.449 1        15.750           1.094
  15982523.359   -32828830.663 7 -25580906.113 4        22.500           3.875
 98  2 12  3 59 29.9840000  0  6 05 06 17 10 24 30
  17250477.141   -16523890.144 6 -12875760.159 2        17.750           2.156
  16642497.922   -39595797.793 7 -30853861.588 3        23.000           3.188
  18319819.820   -21739152.968 5 -16622164.732 1        11.750           1.000
  16592009.664   -29464368.434 7 -22959244.089 4        23.000           3.563
  18403762.149   -11304766.858 6  -8808908.048 1        16.250           1.125
  15965594.891   -32917793.659 7 -25650227.936 4        22.750           3.906
 98  2 12  3 59 59.9840000  0  6 05 06 17 10 24 30
  17245488.211   -16550106.539 6 -12896188.530 2        17.500           2.000
  16609844.453   -39767388.431 7 -30987568.575 3        22.750           3.250
  18284968.203   -21922317.191 6 -16764890.080 1        12.250           1.031
  16578523.797   -29535240.233 7 -23014468.863 4        23.250           3.594
  18395965.414   -11345725.254 6  -8840823.667 1        15.750           0.938
  15948776.297   -33006185.809 7 -25719104.953 4        22.750           3.875
 98  2 12  4  0 29.9840000  0  6 05 06 17 10 24 30
  17240562.844   -16575992.580 6 -12916359.490 2        18.500           2.125
  16577224.594   -39938811.501 7 -31121144.988 3        23.250           3.344
  18250148.031   -22105273.816 6 -16907453.649 1        12.500           1.000
  16565133.578   -29605615.687 7 -23069306.879 4        23.250           3.625
  18388172.906   -11386671.806 6  -8872730.065 1        14.500           1.063
  15932062.180   -33094000.257 7 -25787531.814 4        22.250           3.906
 98  2 12  4  0 59.9840000  0  6 05 06 17 10 24 30
  17235699.852   -16601551.308 6 -12936275.391 2        18.000           2.031
  16544637.938   -40110056.123 7 -31254582.352 3        22.750           3.406
  18215374.539   -22288025.322 6 -17049857.406 1        12.000           1.094
  16551837.820   -29675485.062 7 -23123750.550 4        23.750           3.594
  18380387.578   -11427599.253 6  -8904621.584 1        14.000           1.094
  15915466.274   -33181234.693 7 -25855506.718 4        23.250           3.969
 98  2 12  4  1 29.9840000  0  6 05 06 17 10 24 30
  17230894.625   -16626800.171 6 -12955949.835 2        17.250           1.906
  16512081.422   -40281134.689 7 -31387890.325 4        23.500           3.500
  18180637.875   -22470558.992 6 -17192091.405 1        12.000           0.969
  16538637.938   -29744835.838 7 -23177790.103 4        23.750           3.594
  18372599.758   -11468511.054 6  -8936500.932 1        14.500           0.938
  15898978.305   -33267884.391 7 -25923025.973 4        22.750           3.875
 98  2 12  4  1 59.9840000  0  6 05 06 17 10 24 30
  17226146.852   -16651748.877 6 -12975390.410 2        18.000           2.125
  16479555.367   -40452062.660 7 -31521080.935 3        23.250           3.375
  18145947.336   -22652877.172 6 -17334157.499 1        12.000           1.156
  16525540.930   -29813660.960 7 -23231420.066 3        23.000           3.469
  18364822.867   -11509402.081 6  -8968364.073 1        15.750           1.125
  15882598.758   -33353946.803 7 -25990087.608 4        22.250           3.813
 98  2 12  4  2 29.9830000  0  6 05 06 17 10 24 30
  17221455.566   -16676407.614 6 -12994605.021 2        18.250           1.969
  16447061.503   -40622824.259 7 -31654141.915 4        23.250           3.531
  18111290.941   -22834978.991 6 -17476054.974 1        12.500           1.063
  16512550.276   -29881939.384 7 -23284624.033 4        23.250           3.563
  18357041.816   -11550269.961 6  -9000209.163 1        14.750           1.063
  15866331.261   -33439420.563 7 -26056690.555 4        22.500           3.938
 98  2 12  4  2 59.9830000  0  6 05 06 17 10 24 30
  17216817.151   -16700784.526 6 -13013600.029 2        18.250           1.938
  16414595.605   -40793429.731 7 -31787081.237 4        23.500           3.500
  18076676.706   -23016878.005 6 -17617794.454 1        12.250           0.969
  16499658.425   -29949688.968 7 -23337415.911 4        23.250           3.531
  18349265.566   -11591145.617 6  -9032060.335 1        14.000           1.063
  15850177.112   -33524321.491 7 -26122847.138 4        22.500           3.844
 98  2 12  4  3 29.9830000  0  6 05 06 17 10 24 30
  17212231.339   -16724877.659 6 -13032373.905 2        17.500           1.938
  16382160.433   -40963874.409 7 -31919895.270 4        23.250           3.656
  18042102.855   -23198571.978 6 -17759374.142 1        12.500           1.188
  16486863.269   -30016926.775 7 -23389809.003 3        23.250           3.313
  18341482.136   -11632036.974 6  -9063923.733 1        13.500           1.031
  15834128.855   -33608652.931 7 -26188559.966 4        22.250           3.781
 98  2 12  4  3 59.9830000  0  6 05 06 17 10 24 30
  17207699.730   -16748691.052 6 -13050929.813 2        16.750           2.063
  16349760.456   -41134137.275 7 -32052567.621 4        23.250           3.500
  18007568.191   -23380065.574 6 -17900797.702 1        13.250           1.188
  16474163.972   -30083651.960 7 -23441802.653 3        23.250           3.344
  18333700.651   -11672933.366 6  -9095791.061 1        13.500           1.125
  15818186.737   -33692426.683 7 -26253838.236 4        22.500           3.813
 98  2 12  4  4 29.9830000  0  6 05 06 17 10 24 30
  17203220.667   -16772232.976 6 -13069274.184 2        17.750           1.844
  16317396.769   -41304219.200 7 -32185098.984 4        23.000           3.594
  17973064.136   -23561362.298 6 -18042067.853 1        13.000           1.063
  16461564.941   -30149869.263 7 -23493400.546 3        23.250           3.344
  18325917.581   -11713834.730 6  -9127662.248 1        14.500           1.094
  15802352.073   -33775646.671 7 -26318684.993 4        22.250           3.750
 98  2 12  4  4 59.9830000  0  6 05 06 17 10 24 30
  17198793.026   -16795498.209 6 -13087402.946 2        17.000           1.938
  16285064.800   -41474120.544 7 -32317489.643 4        23.250           3.563
  17938606.487   -23742452.131 6 -18183176.803 1        13.250           1.156
  16449059.026   -30215585.753 7 -23544608.198 3        23.250           3.250
  18318135.136   -11754731.817 6  -9159530.134 1        13.500           1.094
  15786622.464   -33858301.331 7 -26383091.232 4        22.750           3.938
 98  2 12  4  5 29.9830000  0  6 05 06 17 10 24 30
  17194420.472   -16818483.932 6 -13105313.925 2        16.500           2.031
  16252765.730   -41643847.855 7 -32449744.678 4        23.500           3.563
  17904187.417   -23923338.412 6 -18324127.126 1        12.250           1.125
  16436651.776   -30280790.079 7 -23595416.759 3        23.250           3.219
  18310352.573   -11795626.064 6  -9191395.775 1        13.000           1.219
  15771001.644   -33940390.177 7 -26447056.590 4        22.500           3.813
 98  2 12  4  5 59.9830000  0  6 05 06 17 10 24 30
  17190099.980   -16841180.272 6 -13122999.407 2        17.250           1.906
  16220502.292   -41813394.791 7 -32581859.169 4        23.250           3.563
  17869806.558   -24104000.759 6 -18464902.966 1        13.500           1.094
  16424342.347   -30345471.681 7 -23645818.000 3        22.750           3.250
  18302569.901   -11836516.396 6  -9223258.395 1        12.500           1.125
  15755489.808   -34021899.292 7 -26510570.204 4        22.500           4.000
 98  2 12  4  6 29.9830000  0  6 05 06 17 10 24 30
  17185836.519   -16863584.468 6 -13140457.226 2        16.750           1.969
  16188270.745   -41982773.500 7 -32713842.572 4        23.500           3.594
  17835466.144   -24284437.478 6 -18605502.988 1        12.750           1.219
  16412131.683   -30409644.653 7 -23695822.915 3        23.250           3.156
  18294790.339   -11877420.689 6  -9255131.878 1        14.250           1.063
  15740090.698   -34102822.916 7 -26573627.595 4        22.500           4.000
 98  2 12  4  6 59.9830000  0  6 05 06 17 10 24 30
  17181630.128   -16885697.043 6 -13157687.829 2        17.000           1.938
  16156072.386   -42151982.793 7 -32845693.965 4        23.500           3.875
  17801174.284   -24464651.613 6 -18745929.560 1        13.250           1.125
  16400014.034   -30473312.374 7 -23745434.124 3        23.250           3.156
  18286998.316   -11918351.049 6  -9287025.653 1        13.500           1.063
  15724802.487   -34183164.230 7 -26636231.234 4        22.250           4.094
 98  2 12  4  7 29.9830000  0  6 05 06 17 10 24 30
  17177478.120   -16907512.957 6 -13174687.254 2        17.500           1.844
  16123904.542   -42321016.390 7 -32977408.451 4        23.250           3.625
  17766922.894   -24644643.179 6 -18886182.717 1        13.250           1.125
  16387994.894   -30536474.388 7 -23794651.271 3        23.250           3.156
  18279205.237   -11959308.281 6  -9318940.381 1        14.000           1.063
  15709626.972   -34262920.146 7 -26698378.722 4        22.250           4.031
 98  2 12  4  7 59.9830000  0  6 05 06 17 10 24 30
  17173377.058   -16929051.075 6 -13191470.214 2        16.250           1.875
  16091774.441   -42489872.759 7 -33108984.834 4        23.750           3.844
  17732713.917   -24824419.101 6 -19026267.826 1        13.750           1.344
  16376069.456   -30599144.434 7 -23843485.077 3        23.000           3.063
  18271405.753   -12000290.690 6  -9350874.742 1        13.500           1.094
  15694561.409   -34342091.144 7 -26760070.426 4        22.500           3.938
 98  2 12  4  8 29.9830000  0  6 05 06 17 10 24 30
  17169328.511   -16950339.339 6 -13208058.492 2        16.250           1.781
  16059671.011   -42658568.993 7 -33240436.437 4        23.750           3.719
  17698538.784   -25004016.724 6 -19166213.970 1        13.500           1.250
  16364236.722   -30661331.243 7 -23891942.322 3        23.250           3.031
  18263601.245   -12041308.131 6  -9382836.391 1        13.250           1.125
  15679601.972   -34420694.808 7 -26821320.049 4        22.750           3.844
 98  2 12  4  8 59.9820000  0  6 05 06 17 10 24 30
  17165323.897   -16971371.993 6 -13224447.590 2        16.500           1.813
  16027601.842   -42827091.425 7 -33371752.619 4        24.000           3.781
  17664396.623   -25183421.643 6 -19306009.968 1        13.000           1.313
  16352496.522   -30723022.369 7 -23940013.333 3        23.500           3.188
  18255788.639   -12082341.779 6  -9414810.681 1        14.000           0.969
  15664757.123   -34498722.848 7 -26882121.137 4        22.250           3.906
 98  2 12  4  9 29.9820000  0  6 05 06 17 10 24 30
  17161370.959   -16992147.509 6 -13240636.325 2        16.000           1.719
  15995568.006   -42995429.549 7 -33502925.180 4        23.750           3.656
  17630295.006   -25362638.877 6 -19445659.725 1        13.750           1.250
  16340851.381   -30784220.935 7 -23987700.521 3        23.500           3.156
  18247984.006   -12123383.262 6  -9446791.044 1        14.500           1.000
  15650012.998   -34576194.273 7 -26942488.501 4        22.750           4.000
 98  2 12  4  9 59.9820000  0  6 05 06 17 10 24 30
  17157467.889   -17012667.849 6 -13256626.208 2        16.000           1.719
  15963573.834   -43163567.834 7 -33633942.013 4        24.000           3.781
  17596227.522   -25541659.025 6 -19585155.930 1        13.500           1.188
  16329300.248   -30844919.075 7 -24034997.773 3        23.250           3.063
  18240171.881   -12164431.105 6  -9478776.388 1        14.250           0.969
  15635373.576   -34653129.176 7 -27002437.790 4        22.750           4.031
 98  2 12  4 10 29.9820000  0  6 05 06 17 10 24 30
  17153610.600   -17032927.660 6 -13272413.084 2        15.500           1.625
  15931613.873   -43331508.096 7 -33764804.554 4        23.750           3.719
  17562198.803   -25720483.360 6 -19724499.557 1        13.250           1.250
  16317845.217   -30905116.018 7 -24081904.479 3        23.750           3.000
  18232359.318   -12205485.775 6  -9510767.039 1        13.250           0.781
  15620832.022   -34729538.935 7 -27061977.880 4        23.250           4.031
 98  2 12  4 10 59.9820000  0  6 05 06 17 10 24 30
  17149803.506   -17052925.554 6 -13287995.880 2        15.500           1.781
  15899697.772   -43499235.605 7 -33895501.312 4        24.250           3.719
  17528209.389   -25899102.329 6 -19863683.141 1        13.750           1.375
  16306486.701   -30964810.851 7 -24128419.938 3        24.000           3.125
  18224550.693   -12246536.066 6  -9542754.281 1        13.750           0.844
  15606391.850   -34805422.360 7 -27121107.831 4        23.000           4.000
 98  2 12  4 11 29.9820000  0  6 05 06 17 10 24 30
  17146049.225   -17072673.874 6 -13303384.208 2        15.500           1.500
  15867822.037   -43666741.089 7 -34026025.062 4        24.250           3.719
  17494256.201   -26077514.144 6 -20002705.292 1        14.250           1.344
  16295222.467   -31024003.359 7 -24174543.963 3        24.000           2.938
  18216737.537   -12287585.471 6  -9574740.837 1        13.250           0.813
  15592054.287   -34880773.706 7 -27179823.190 4        23.000           4.188
 98  2 12  4 11 59.9820000  0  6 05 06 17 10 24 30
  17142333.686   -17092196.640 6 -13318596.769 2        15.500           1.500
  15835985.006   -43834052.426 7 -34156397.530 4        24.500           3.656
  17460343.412   -26255721.255 6 -20141567.943 1        13.750           1.313
  16284052.967   -31082695.604 7 -24220278.178 3        24.000           2.969
  18208924.772   -12328635.190 6  -9606727.646 1        13.250           0.906
  15577820.733   -34955565.289 7 -27238102.368 4        22.500           4.188
 98  2 12  4 12 29.9820000  0  6 05 06 17 10 24 30
  17138656.873   -17111513.715 6 -13333649.040 2        15.250           1.594
  15804182.615   -44001174.776 7 -34286622.735 4        23.750           3.719
  17426472.584   -26433717.480 6 -20280266.278 1        13.500           1.375
  16272980.373   -31140893.273 7 -24265627.009 3        24.000           3.000
  18201113.147   -12369689.672 6  -9638718.149 1        13.000           0.844
  15563698.818   -35029769.532 7 -27295923.872 4        23.500           4.188
 98  2 12  4 12 59.9820000  0  6 05 06 17 10 24 30
  17135016.842   -17130640.376 6 -13348552.937 1        15.000           1.469
  15772417.178   -44168099.173 7 -34416693.690 4        24.250           3.656
  17392642.186   -26611496.849 6 -20418795.632 1        14.000           1.438
  16261994.279   -31198610.210 7 -24310601.245 3        24.250           2.969
  18193302.350   -12410761.022 6  -9670721.788 1        12.250           0.781
  15549691.733   -35103391.378 7 -27353291.561 4        23.500           4.156
 98  2 12  4 13 29.9820000  0  6 05 06 17 10 24 30
  17131414.436   -17149569.568 6 -13363302.972 1        14.750           1.438
  15740687.897   -44334836.267 7 -34546618.699 4        24.000           3.719
  17358854.983   -26789047.669 6 -20557146.897 1        14.250           1.313
  16251100.842   -31255855.315 7 -24355207.812 3        23.750           2.938
  18185468.998   -12451871.028 6  -9702755.573 1        12.000           0.906
  15535793.740   -35176433.122 7 -27410207.219 4        23.250           4.219
 98  2 12  4 13 59.9820000  0  6 05 06 17 10 24 30
  17127853.490   -17168283.732 6 -13377885.459 2        14.750           1.531
  15708996.022   -44501380.608 7 -34676393.505 4        24.000           3.750
  17325114.537   -26966367.650 6 -20695318.278 1        14.750           1.344
  16240298.639   -31312630.030 7 -24399447.850 3        23.750           2.938
  18177639.858   -12493021.306 5  -9734820.737 1        11.000           0.719
  15521998.975   -35248907.656 7 -27466680.902 4        23.500           4.156
 98  2 12  4 14 29.9820000  0  7 05 06 26 17 10 24 30
  17124340.092   -17186761.118 6 -13392283.423 1        14.750           1.438
  15677343.311   -44667719.172 7 -34806007.965 4        23.250           3.688
  19114326.436          -0.01313                         5.750
  17291410.022   -27143472.370 6 -20833321.936 1        14.000           1.469
  16229581.498   -31368949.319 7 -24443333.010 3        24.000           2.906
  18169801.209   -12534222.771 5  -9766925.773 1        11.750           0.656
  15508308.904   -35320842.437 7 -27522733.994 4        23.000           4.094
 98  2 12  4 14 59.9820000  0  7 05 06 26 17 10 24 30
  17120870.928   -17204979.649 6 -13406479.690 1        14.250           1.406
  15645729.256   -44833847.861 7 -34935458.882 4        24.250           3.688
  19076555.420     -198493.782 3        -0.30911         5.750           0.219
  17257745.967   -27320374.338 6 -20971167.596 1        14.000           1.469
  16218952.514   -31424815.778 7 -24486865.313 3        24.250           2.844
  18161959.154   -12575458.971 6  -9799057.864 1        12.000           0.750
  15494723.983   -35392242.996 7 -27578370.817 4        23.500           4.188
 98  2 12  4 15 29.9820000  0  7 05 06 26 17 10 24 30
  17117450.725   -17222947.008 6 -13420480.241 1        14.000           1.313
  15614155.045   -44999772.176 7 -35064750.557 4        23.750           3.656
  19038778.709     -397019.108 3   -154695.332 1         5.500           0.219
  17224119.858   -27497087.897 6 -21108866.457 1        14.750           1.406
  16208407.943   -31480221.887 7 -24530038.901 3        24.250           2.813
  18154104.654   -12616728.484 6  -9831215.941 1        12.000           0.875
  15481237.858   -35463111.018 7 -27633592.668 4        23.500           4.125
 98  2 12  4 15 59.9810000  0  7 05 06 26 17 10 24 30
  17114082.243   -17240657.788 6 -13434280.857 1        14.500           1.469
  15582627.009   -45165457.249 7 -35193855.800 4        24.000           3.750
  19000998.978     -595547.473 3   -309392.753 1         5.250           0.031
  17190528.392   -27673608.266 6 -21246414.781 2        15.250           1.531
  16197953.790   -31535152.195 7 -24572841.738 3        24.000           3.000
  18146247.251   -12658004.481 5  -9863379.069 1        11.500           0.938
  15467854.157   -35533438.624 7 -27688393.417 4        23.500           4.156
 98  2 12  4 16 29.9810000  0  7 05 06 26 17 10 24 30
  17110759.751   -17258127.451 6 -13447893.600 1        14.500           1.344
  15551140.079   -45330918.325 7 -35322786.503 4        23.750           3.688
  18963221.259     -794079.726 2   -464093.169 1         4.750           0.219
  17156971.446   -27849947.649 6 -21383822.057 2        14.250           1.531
  16187591.400   -31589617.426 7 -24615282.176 3        24.000           2.875
  18138392.728   -12699285.931 5  -9895546.438 1        11.000           0.719
  15454574.884   -35603226.419 7 -27742773.534 4        23.750           4.250
 98  2 12  4 16 59.9810000  0  7 05 06 26 17 10 24 30
  17107472.837   -17275377.619 6 -13461335.303 1        13.500           1.375
  15519695.728   -45496155.290 7 -35451542.579 4        23.500           3.781
  18925432.079     -992603.702 2   -618787.135 1         4.250           0.188
  17123458.384   -28026073.568 6 -21521062.999 2        15.250           1.625
  16177316.579   -31643605.104 7 -24657350.492 3        23.250           2.813
  18130536.681   -12740575.233 6  -9927719.926 1        12.000           0.750
  15441396.696   -35672481.640 7 -27796738.667 4        23.250           4.281
 98  2 12  4 17 29.9810000  0  7 05 06 26 17 10 24 30
  17104232.181   -17292411.090 6 -13474608.146 1        13.750           1.313
  15488294.189   -45661175.666 7 -35580129.875 4        23.750           3.688
  18887660.423    -1191124.786 3   -773478.775 1         5.000           0.219
  17089986.939   -28201965.969 6 -21658121.977 2        14.750           1.563
  16167131.235   -31697120.697 7 -24699050.952 3        23.500           2.875
  18122675.501   -12781880.970 5  -9959906.226 1        11.500           0.781
  15428316.525   -35741216.384 7 -27850298.223 4        23.750           4.125
 98  2 12  4 17 59.9810000  0  7 05 06 26 17 10 24 30
  17101037.048   -17309212.432 6 -13487700.118 1        14.000           1.156
  15456931.728   -45825989.284 7 -35708556.064 4        24.000           3.688
  18849886.642    -1389653.270 2   -928176.273 1         4.750           0.250
  17056561.196   -28377617.726 6 -21794993.449 2        15.000           1.594
  16157037.407   -31750174.484 7 -24740391.562 3        23.750           2.969
  18114808.978   -12823200.778 5  -9992103.486 1        11.750           0.875
  15415335.400   -35809432.110 7 -27903453.351 4        22.750           4.031
 98  2 12  4 18 29.9810000  0  7 05 06 26 17 10 24 30
  17097882.431   -17325790.274 6 -13500617.929 1        14.250           1.219
  15425602.853   -45990614.692 7 -35836835.599 4        23.500           3.750
  18812102.634    -1588195.521 3  -1082884.464 1         5.000           0.219
  17023181.329   -28553031.044 6 -21931679.095 2        15.750           1.531
  16147027.196   -31802765.935 7 -24781371.915 3        23.250           2.938
  18106941.993   -12864542.950 5 -10024318.164 1        11.750           0.781
  15402456.376   -35877127.663 7 -27956203.151 4        23.250           4.000
 98  2 12  4 18 59.9810000  0  7 05 06 26 17 10 24 30
  17094770.650   -17342141.594 6 -13513359.216 1        14.250           1.375
  15394314.907   -46155042.941 7 -35964961.501 4        24.500           3.563
  18774318.470    -1786764.944 4  -1237613.856 1         6.250           0.250
  16989846.532   -28728219.077 6 -22068189.183 2        15.250           1.594
  16137107.423   -31854884.740 7 -24821983.970 3        22.000           3.031
  18099075.243   -12905908.302 6 -10056550.901 1        13.000           0.844
  15389671.681   -35944299.236 7 -28008544.654 4        23.000           4.188
 98  2 12  4 19 29.9810000  0  7 05 06 26 17 10 24 30
  17091699.431   -17358276.164 6 -13525931.634 1        13.750           1.406
  15363063.548   -46319268.218 7 -36092929.250 4        23.500           3.688
  18736521.884    -1985366.332 4  -1392368.210 1         6.500           0.219
  16956544.735   -28903218.690 6 -22204552.454 2        15.250           1.563
  16127279.642   -31906556.237 7 -24862247.475 3        23.250           2.875
  18091193.673   -12947309.460 6 -10088811.564 1        12.000           0.781
  15376988.439   -36010941.901 7 -28060474.030 4        23.250           4.031
 98  2 12  4 19 59.9810000  0  7 05 06 26 17 10 24 30
  17088665.509   -17374217.322 6 -13538353.340 1        13.250           1.281
  15331855.821   -46483267.465 7 -36220720.858 4        24.250           3.750
  18698728.275    -2183982.099 4  -1547133.691 1         6.500           0.250
  16923275.837   -29078040.797 6 -22340777.444 2        15.250           1.594
  16117530.767   -31957776.381 7 -24902159.276 3        23.500           2.875
  18083305.056   -12988751.814 6 -10121104.303 1        12.000           0.938
  15364410.126   -36077056.490 7 -28111991.908 4        22.500           3.969
 98  2 12  4 20 29.9810000  0  7 05 06 26 17 10 24 30
  17085663.970   -17389991.502 6 -13550644.918 1        13.750           1.125
  15300691.220   -46647033.839 7 -36348331.018 4        23.750           3.688
  18660929.931    -2382616.245 4  -1701913.524 1         7.000           0.281
  16890044.056   -29252686.797 6 -22476865.212 2        16.500           1.594
  16107866.157   -32008564.401 7 -24941734.359 3        22.750           2.844
  18075416.532   -13030236.028 6 -10153429.682 1        12.750           0.875
  15351928.728   -36142646.894 7 -28163101.338 4        22.500           4.031
 98  2 12  4 20 59.9810000  0  7 05 06 26 17 10 24 30
  17082696.032   -17405600.214 6 -13562807.550 1        14.000           1.188
  15269574.923   -46810555.091 7 -36475750.162 4        24.250           3.594
  18623123.587    -2581271.006 4  -1856709.409 1         6.750           0.313
  16856846.845   -29427140.155 6 -22612802.865 2        15.750           1.563
  16098282.353   -32058934.309 7 -24980983.639 3        23.250           2.938
  18067511.751   -13071752.273 6 -10185779.999 1        13.000           0.906
  15339544.298   -36207719.160 7 -28213807.017 4        22.250           3.906
 98  2 12  4 21 29.9810000  0  7 05 06 26 17 10 24 30
  17079754.759   -17421050.269 6 -13574846.564 1        13.500           1.250
  15238502.696   -46973832.049 7 -36602978.960 4        24.250           3.656
  18585322.204    -2779939.557 4  -2011516.057 1         6.250           0.250
  16823688.626   -29601385.405 6 -22748578.364 2        16.000           1.563
  16088777.579   -32108886.320 7 -25019907.282 3        23.250           2.906
  18059608.821   -13113301.589 6 -10218156.089 1        12.250           0.875
  15327261.946   -36272270.310 7 -28264106.637 4        22.000           3.906
 98  2 12  4 21 59.9810000  0  7 05 06 26 17 10 24 30
  17076846.439   -17436326.837 6 -13586750.407 1        13.750           1.281
  15207477.118   -47136874.519 7 -36730025.038 4        24.250           3.625
  18547512.290    -2978622.495 3  -2166333.885 1         5.500           0.188
  16790570.946   -29775417.655 6 -22884187.896 2        15.500           1.719
  16079351.673   -32158409.384 7 -25058496.686 3        23.750           3.031
  18051696.884   -13154872.973 6 -10250549.397 1        12.750           0.906
  15315074.946   -36336302.698 7 -28314002.020 4        22.000           3.688
 98  2 12  4 22 29.9810000  0  8 05 06 26 17 10 24 30 23
  17073976.189   -17451412.625 6 -13598505.585 1        13.750           1.219
  15176495.970   -47299687.211 7 -36856892.061 4        24.500           3.625
  18509704.735    -3177312.521 3  -2321157.245 1         5.250           0.188
  16757491.048   -29949233.614 6 -23019628.860 2        16.000           1.719
  16070011.329   -32207501.680 7 -25096750.421 3        23.250           2.875
  18043786.845   -13196463.697 6 -10282957.744 1        12.250           0.906
  15302991.025   -36399802.580 7 -28363482.459 4        22.250           3.875
  18794777.900          -0.47014                         6.750
 98  2 12  4 22 59.9800000  0  8 05 06 26 17 10 24 30 23
  17071145.590   -17466288.949 6 -13610097.534 1        13.500           1.094
  15145561.152   -47462253.244 7 -36983566.890 4        24.750           3.750
  18471902.824    -3375973.228 3  -2475957.784 1         5.750           0.219
  16724455.363   -30122831.933 6 -23154900.245 2        16.250           1.563
  16060751.512   -32256148.289 7 -25134656.869 3        22.750           2.906
  18035863.199   -13238079.089 6 -10315385.337 1        12.000           0.875
  15291012.723   -36462759.030 7 -28412539.460 4        22.000           3.781
  18752852.160     -220320.028 5        -0.06011         7.500           0.313
 98  2 12  4 23 29.9800000  0  8 05 06 26 17 10 24 30 23
  17068355.621   -17480951.079 6 -13621522.587 1        13.250           1.188
  15114671.770   -47624578.570 7 -37110054.155 4        25.000           3.656
  18434107.840    -3574594.068 4  -2630727.254 1         6.500           0.156
  16691459.723   -30296235.647 6 -23290019.992 2        15.500           1.563
  16051578.645   -32304354.710 7 -25172220.303 3        22.500           2.844
  18027936.082   -13279725.968 5 -10347837.453 1        11.750           0.844
  15279136.113   -36525172.300 7 -28461173.198 4        22.250           3.625
  18710940.738     -440569.040 3   -171622.612 1         5.500           0.313
 98  2 12  4 23 59.9800000  0  8 05 06 26 17 10 24 30 23
  17065607.496   -17495406.035 6 -13632786.196 1        13.000           1.094
  15083828.004   -47786666.307 7 -37236356.295 4        25.250           3.688
  18396318.801    -3773168.120 4  -2785460.260 1         6.750           0.281
  16658498.488   -30469449.001 6 -23424991.383 2        15.500           1.719
  16042486.442   -32352141.434 7 -25209456.725 3        23.250           2.938
  18020007.863   -13321404.770 5 -10380314.437 1        11.500           0.750
  15267357.004   -36587062.689 7 -28509399.486 4        22.250           3.625
  18669035.098     -660762.081 3   -343201.620 1         5.750           0.250
 98  2 12  4 24 29.9800000  0  8 05 06 26 17 10 24 30 23
  17062889.512   -17509667.192 6 -13643898.801 1        13.250           1.125
  15053028.809   -47948510.417 7 -37362468.580 4        25.000           3.750
  18358541.543    -3971685.288 5  -2940148.940 1         8.000           0.281
  16625576.520   -30642470.525 6 -23559813.305 2        16.000           1.656
  16033472.145   -32399512.536 7 -25246369.273 3        23.000           2.813
  18012067.363   -13363108.407 5 -10412810.796 1        11.250           0.781
  15255678.379   -36648432.572 7 -28557220.193 4        22.000           3.594
  18627147.527     -880894.013 3   -514732.980 1         5.250           0.375
 98  2 12  4 24 59.9800000  0  8 05 06 26 17 10 24 30 23
  17060213.442   -17523748.979 6 -13654871.641 1        13.250           1.063
  15022275.434   -48110123.038 7 -37488400.487 4        25.250           3.656
  18320767.231    -4170158.344 5  -3094803.284 1         7.750           0.313
  16592680.231   -30815307.318 6 -23694491.310 2        16.000           1.656
  16024534.613   -32446471.313 7 -25282960.527 3        22.750           2.813
  18004132.129   -13404834.199 5 -10445324.405 1        10.250           0.719
  15244094.981   -36709300.154 7 -28604649.507 4        22.000           3.688
  18585272.731    -1100952.057 3   -686206.785 1         5.750           0.313
 98  2 12  4 25 29.9800000  0  8 05 06 26 17 10 24 30 23
  17057562.387   -17537677.298 6 -13665724.891 1        12.750           1.094
  14991564.996   -48271508.666 7 -37614155.517 4        25.750           3.813
  18283009.496    -4368606.511 5  -3249438.188 1         8.000           0.406
  16559828.168   -30987969.413 6 -23829033.158 2        15.500           1.656
  16015678.442   -32493015.496 7 -25319228.720 3        23.000           2.938
  17996193.754   -13446581.108 5 -10477854.463 1        10.750           0.656
  15232602.559   -36769693.570 7 -28651709.331 4        22.000           3.594
  18543409.918    -1320931.031 3   -857618.920 1         6.000           0.344
 98  2 12  4 25 59.9800000  0  8 05 06 26 17 10 24 30 23
  17054940.785   -17551452.617 6 -13676458.917 1        13.000           1.031
  14960898.738   -48432652.866 7 -37739722.420 4        25.000           3.938
  18245251.832    -4567024.110 5  -3404049.286 1         7.750           0.438
  16527008.481   -31160445.945 6 -23963430.435 2        16.000           1.500
  16006904.348   -32539128.612 7 -25355161.013 3        23.250           2.844
  17988239.559   -13488340.589 5 -10510394.332 1        10.250           0.719
  15221201.652   -36829606.375 7 -28698394.647 4        22.000           3.563
  18501564.856    -1540798.876 4  -1028944.486 1         6.250           0.500
 98  2 12  4 26 29.9800000  0  8 05 06 26 17 10 24 30 23
  17052344.746   -17565086.348 6 -13687082.612 1        12.250           0.969
  14930281.848   -48593555.509 7 -37865101.107 4        25.750           3.656
  18207499.426    -4765410.647 4  -3558636.174 1         6.500           0.531
  16494219.184   -31332730.288 6 -24097677.948 2        16.000           1.625
  15998211.621   -32584807.509 7 -25390754.959 3        23.000           2.813
  17980289.590   -13530121.991 5 -10542951.275 1        10.000           0.656
  15209894.246   -36889033.415 7 -28744701.453 4        22.750           3.563
  18459758.567    -1760540.127 4  -1200171.461 1         7.250           0.406
 98  2 12  4 26 59.9800000  0  8 05 06 26 17 10 24 30 23
  17049777.402   -17578577.287 6 -13697595.041 1        12.750           0.938
  14899710.418   -48754197.189 7 -37990276.443 4        25.750           3.719
  18169750.246    -4963761.602 3  -3713195.315 1         5.000           0.438
  16461481.348   -31504799.392 6 -24231757.749 2        16.000           1.625
  15989600.277   -32630047.385 7 -25426006.809 3        23.250           2.688
  17972328.879   -13571934.816 5 -10575532.706 1         8.500           0.656
  15198679.488   -36947973.337 7 -28790628.678 4        22.250           3.563
  18417965.777    -1980151.363 5  -1371297.087 1         8.000           0.406
 98  2 12  4 27 29.9800000  0  8 05 06 26 17 10 24 30 23
  17047241.067   -17591919.361 6 -13707991.478 1        13.250           1.000
  14869195.012   -48914569.113 7 -38115241.574 4        25.500           3.781
  18132010.762    -5162065.411 3  -3867717.700 1         5.000           0.500
  16428775.082   -31676637.929 6 -24365657.867 2        15.500           1.719
  15981072.387   -32674857.347 7 -25460923.668 3        22.750           2.563
  17964366.363   -13613792.753 5 -10608149.298 1         8.750           0.469
  15187558.465   -37006418.518 7 -28836170.398 4        22.750           3.594
  18376203.621    -2199621.153 4  -1542312.499 1         7.250           0.313
 98  2 12  4 27 59.9800000  0  8 05 06 26 17 10 24 30 23
  17044731.902   -17605103.185 6 -13718264.595 1        12.500           1.000
  14838726.254   -49074686.080 7 -38240008.036 4        26.000           3.844
  18094291.488    -5360323.222 3  -4022204.271 1         6.000           0.406
  16396127.621   -31848229.526 6 -24499365.562 2        16.000           1.688
  15972626.504   -32719254.960 7 -25495519.206 3        23.000           2.531
  17956392.067   -13655699.563 5 -10640803.946 1         8.750           0.531
  15176535.738   -37064348.664 7 -28881310.789 3        22.500           3.469
  18334467.856    -2418942.740 5  -1713212.414 1         8.000           0.406
 98  2 12  4 28 29.9800000  0  8 05 06 26 17 10 24 30 23
  17042250.809   -17618132.026 6 -13728416.958 1        12.250           1.094
  14808304.668   -49234551.216 7 -38364578.271 4        25.750           3.844
  18056572.035    -5558542.278 4  -4176660.640 1         6.500           0.281
  16363518.098   -32019574.874 6 -24632881.388 2        15.500           1.781
  15964256.621   -32763257.476 7 -25529806.879 3        23.250           2.594
  17948406.090   -13697669.111 5 -10673507.506 1         9.000           0.438
  15165606.832   -37121762.508 7 -28926048.869 4        22.750           3.500
  18292759.848    -2638117.963 5  -1883998.293 1         8.000           0.375
 98  2 12  4 28 59.9800000  0  8 05 06 26 17 10 24 30 23
  17039802.918   -17631005.008 6 -13738447.873 1        12.500           0.938
  14777930.145   -49394166.897 7 -38488954.124 4        25.500           3.844
  18018860.949    -5756726.624 5  -4331089.994 1         7.750           0.344
  16330958.082   -32190685.465 6 -24766214.307 2        16.250           1.719
  15955949.942   -32806875.727 7 -25563795.128 3        21.750           2.531
  17940401.387   -13739709.927 5 -10706266.582 1         8.750           0.594
  15154779.574   -37178673.159 7 -28970394.838 4        23.250           3.500
  18251077.770    -2857154.308 5  -2054675.986 1         8.250           0.469
 98  2 12  4 29 29.9800000  0  8 05 06 26 17 10 24 30 23
  17037380.137   -17643731.662 6 -13748364.759 1        12.500           0.906
  14747599.840   -49553547.715 7 -38613146.965 4        25.500           3.844
  17981151.965    -5954874.099 5  -4485490.625 1         7.500           0.313
  16298437.621   -32361578.746 6 -24899377.873 2        16.000           1.688
  15947721.285   -32850124.385 7 -25597495.384 2        22.250           2.313
  17932395.402   -13781815.151 5 -10739075.862 1         9.250           0.625
  15144042.496   -37235089.628 7 -29014355.743 4        23.750           3.594
  18209416.293    -3076061.395 4  -2225252.954 1         6.500           0.344
 98  2 12  4 29 59.9790000  0  8 05 06 26 17 10 24 30 23
  17034982.687   -17656322.811 6 -13758176.064 1        12.250           0.969
  14717320.304   -49712673.858 7 -38737141.360 4        25.500           3.875
  17943447.694    -6152981.891 4  -4639860.346 1         7.000           0.469
  16265959.030   -32532265.553 6 -25032380.542 2        16.250           1.813
  15939566.351   -32892990.544 7 -25630897.578 2        22.750           2.313
  17924370.593   -13823972.333 5 -10771925.617 1        10.500           0.531
  15133399.093   -37291025.978 7 -29057942.536 3        23.000           3.406
  18167786.288    -3294849.085 4  -2395736.860 1         6.500           0.406
 98  2 12  4 30 29.9790000  0  8 05 06 26 17 10 24 30 23
  17032612.249   -17668788.254 5 -13767889.398 1        11.750           0.906
  14687089.265   -49871539.352 7 -38860932.654 4        25.500           3.938
  17905760.093    -6351051.549 4  -4794200.324 1         6.500           0.344
  16233513.023   -32702764.814 6 -25165237.063 2        16.000           1.750
  15931484.921   -32935462.986 7                        22.500
  17916337.327   -13866184.079 5                         9.250
  15122840.398   -37346505.686 7 -29101173.491 4        23.250           3.500
  18126169.288    -3513540.341 4  -2566145.646 1         6.750           0.375
 98  2 12  4 30 59.9790000  0  8 05 06 26 17 10 24 30 23
  17030262.366   -17681127.491 6 -13777504.412 1        12.500           0.906
  14656907.202   -50030143.944 7 -38984520.639 4        25.750           3.875
  17868079.054    -6549069.109 3  -4948499.698 1         6.000           0.375
  16201102.507   -32873085.521 6 -25297954.493 2        16.000           1.813
  15923475.046   -32977536.072 7 -25696777.211 2        22.250           2.188
  17908300.905   -13908424.594 5 -10837732.586 1         9.250           0.375
  15112369.163   -37401547.611 7 -29144063.324 4        23.250           3.531
  18084575.593    -3732141.290 4  -2736484.078 1         7.000           0.406
 98  2 12  4 31 29.9790000  0  8 05 06 26 17 10 24 30 23
  17027942.413   -17693323.760 6 -13787008.014 1        12.250           0.906
  14626781.319   -50188459.697 7 -39107883.560 4        25.750           3.875
  17830412.624    -6747009.895 3  -5102739.252 1         5.750           0.438
  16168727.163   -33043212.356 6 -25430520.852 2        16.500           1.750
  15915552.382   -33019190.046 7 -25729234.850 2        21.500           2.156
  17900261.359   -13950662.308 5 -10870645.087 1         9.750           0.438
  15101978.710   -37456132.350 7 -29186596.907 4        23.250           3.625
  18042993.148    -3950628.265 4  -2906733.655 1         6.500           0.469
 98  2 12  4 31 59.9790000  0  8 05 06 26 17 10 24 30 23
  17025652.569   -17705367.273 6 -13796392.588 1        12.250           0.969
  14596710.452   -50346482.416 7 -39231018.145 4        25.750           3.844
  17792757.991    -6944866.069 4  -5256912.845 1         6.250           0.469
  16136388.030   -33213145.896 6 -25562936.573 2        16.000           1.875
  15907702.687   -33060427.332 7 -25761367.802 2        21.500           2.156
  17892222.124   -13992900.462 5 -10903557.952 1         9.500           0.438
  15091681.968   -37510249.810 7 -29228766.373 4        23.250           3.719
  18001443.374    -4168993.648 4  -3076888.475 1         7.000           0.375
 98  2 12  4 32 29.9790000  0  8 05 06 26 17 10 24 30 23
  17023388.616   -17717253.830 6 -13805654.863 1        12.000           0.813
  14566692.366   -50504225.977 7 -39353935.199 4        25.500           3.938
  17755130.851    -7142621.223 4  -5411007.751 1         7.250           0.406
  16104091.116   -33382893.609 6 -25695207.504 2        16.500           2.031
  15899928.265   -33101274.395 7 -25793196.691 2        21.250           2.156
  17884187.827   -14035140.230 5 -10936472.051 1        11.000           0.531
  15081474.601   -37563885.126 7 -29270560.143 4        23.250           3.594
  17959913.601    -4387234.513 5  -3246946.305 1         7.500           0.469
 98  2 12  4 32 59.9790000  0  8 05 06 26 17 10 24 30 23
  17021159.124   -17728982.154 5 -13814793.816 1        11.500           0.844
  14536726.734   -50661691.697 7 -39476635.764 4        25.750           3.906
  17717517.359    -7340265.241 5  -5565016.086 1         7.500           0.344
  16071823.218   -33552459.384 6 -25827336.677 2        16.250           1.969
  15892228.913   -33141753.704 7 -25824739.000 2        21.750           2.094
  17876148.116   -14077382.039 5 -10969387.739 1        11.000           0.625
  15071359.577   -37617038.564 7 -29311978.426 4        23.750           3.719
  17918409.655    -4605339.501 5  -3416898.245 1         7.750           0.281
 98  2 12  4 33 29.9790000  0  8 05 06 26 17 10 24 30 23
  17018953.616   -17740572.393 5 -13823825.175 1        11.250           0.844
  14506817.054   -50818872.447 7 -39599114.269 4        25.750           4.000
  17679929.976    -7537792.427 5  -5718933.395 1         8.000           0.281
  16039592.882   -33721825.703 6 -25959310.393 2        16.000           1.844
  15884594.569   -33181873.705 7 -25856001.329 2        21.750           2.188
  17868103.343   -14119651.232 5 -11002324.785 1        11.250           0.594
  15061339.421   -37669692.445 7 -29353007.448 4        23.250           3.594
  17876932.554    -4823305.014 5  -3586741.528 1         8.250           0.375
 98  2 12  4 33 59.9790000  0  8 05 06 26 17 10 24 30 23
  17016767.655   -17752045.682 5 -13832765.425 1        11.000           0.750
  14476959.007   -50975780.977 7 -39721380.653 4        25.000           3.938
  17642364.726    -7735214.297 5  -5872768.628 1         8.250           0.344
  16007399.093   -33891005.665 6 -26091138.898 2        17.000           1.969
  15877023.312   -33221651.023 7 -25886996.635 2        21.000           2.125
  17860049.640   -14161968.882 5 -11035299.581 1        10.500           0.688
  15051411.757   -37721857.820 7 -29393655.808 4        23.500           3.688
  17835475.827    -5041150.185 5  -3756491.026 1         8.250           0.531
 98  2 12  4 34 29.9790000  0  8 05 06 26 17 10 24 30 23
  17014604.960   -17763422.692 5 -13841630.652 1        11.000           0.844
  14447149.765   -51132423.488 7 -39843439.748 4        26.000           3.938
  17604812.585    -7932539.383 5  -6026528.459 1         7.500           0.313
  15975241.773   -34059998.810 6 -26222821.861 2        16.750           1.875
  15869523.444   -33261075.934 7 -25917717.357 2        21.500           2.156
  17851986.624   -14204347.910 5 -11068322.207 1        10.250           0.781
  15041574.374   -37773558.599 7 -29433942.158 4        22.500           3.625
  17794044.116    -5258881.406 4  -3926151.739 1         6.750           0.500
 98  2 12  4 34 59.9790000  0  8 05 06 26 17 10 24 30 23
  17012454.280   -17774709.531 5 -13850425.601 1        11.000           0.688
  14417393.171   -51288791.318 7 -39965284.811 4        25.000           3.750
  17567284.476    -8129773.576 5  -6180217.438 1         7.500           0.313
  15943125.062   -34228770.834 6 -26354332.511 2        16.250           1.938
  15862092.335   -33300129.702 7 -25948148.861 2        21.750           2.094
  17843915.015   -14246781.394 5 -11101387.266 1        10.250           0.813
  15031823.765   -37824801.866 7 -29473872.001 4        24.000           3.500
  17752632.984    -5476494.116 5  -4095720.054 1         7.500           0.531
 98  2 12  4 35 29.9790000  0  8 05 06 26 17 10 24 30 23
  17010329.398   -17785906.910 5 -13859150.841 1        11.750           0.844
  14387689.546   -51444888.651 7 -40086919.091 4        25.750           3.875
  17529759.476    -8326928.124 4  -6333844.349 1         6.750           0.406
  15911053.788   -34397311.613 6 -26485662.966 2        17.000           1.969
  15854728.835   -33338804.552 7 -25978285.097 2        21.250           2.031
  17835828.929   -14289277.831 5 -11134501.395 1         9.750           0.563
  15022160.780   -37875575.826 7 -29513436.136 4        22.750           3.656
  17711249.655    -5693993.344 5  -4265199.981 1         8.000           0.469
 98  2 12  4 35 59.9790000  0  8 05 06 26 17 10 24 30 23
  17008214.054   -17796995.934 5 -13867791.649 1        11.250           0.781
  14358034.101   -51600728.025 7 -40208352.375 4        25.500           3.719
  17492257.640    -8524004.755 4  -6487410.529 1         7.000           0.531
  15879024.109   -34565630.112 6 -26616820.202 2        17.750           1.938
  15847443.038   -33377082.722 7 -26008112.244 2        21.000           2.188
  17827734.632   -14331825.756 5 -11167655.635 1        10.500           0.750
  15012589.280   -37925888.495 7 -29552640.837 4        22.500           3.625
  17669879.577    -5911361.318 5  -4434577.632 1         8.250           0.469
 98  2 12  4 36 29.9780000  0  8 05 06 26 17 10 24 30 23
  17006129.940   -17807958.686 5 -13876334.071 1        10.500           0.656
  14328428.697   -51756310.405 7 -40329585.391 4        25.500           3.813
  17454778.283    -8720986.120 5  -6640902.465 1         7.750           0.594
  15847035.901   -34733719.560 6 -26747798.936 2        17.500           2.094
  15840235.494   -33414964.451 7 -26037630.477 2        21.250           2.000
  17819626.346   -14374410.634 5 -11200838.656 1        10.000           0.563
  15003103.924   -37975737.282 7 -29591484.066 4        23.000           3.563
  17628548.518    -6128566.134 5  -4603828.160 1         8.000           0.531
 98  2 12  4 36 59.9780000  0  8 05 06 26 17 10 24 30 23
  17004068.830   -17818787.038 5 -13884771.762 1        10.750           0.719
  14298871.986   -51911639.548 7 -40450621.086 4        25.250           3.625
  17417309.033    -8917888.033 4  -6794332.501 1         7.000           0.531
  15815085.799   -34901605.209 6 -26878618.899 2        17.250           2.063
  15833099.674   -33452476.700 7 -26066860.805 2        20.750           2.156
  17811517.736   -14417035.156 5 -11234052.572 1        10.750           0.625
  14993704.697   -38025113.126 7 -29629958.763 4        23.000           3.625
  17587243.393    -6345613.140 4  -4772955.669 1         7.250           0.656
 98  2 12  4 37 29.9780000  0  8 05 06 26 17 10 24 30 23
  17002031.119   -17829483.112 5 -13893106.370 1        10.750           0.813
  14269363.104   -52066705.119 7 -40571451.405 4        24.750           3.688
  17379860.119    -9114700.771 4  -6947693.040 1         7.250           0.500
  15783171.846   -35069318.524 6 -27009304.604 2        18.000           2.000
  15826032.158   -33489620.921 7 -26095804.349 2        21.250           2.031
  17803399.088   -14459705.141 5 -11267301.896 1        10.750           0.594
  14984398.416   -38074025.598 7 -29668072.396 4        22.500           3.688
  17545978.604    -6562489.827 5  -4941950.488 1         8.250           0.500
 98  2 12  4 37 59.9780000  0  8 05 06 26 17 10 24 30 23
  17000024.565   -17840037.109 5 -13901330.282 1        10.750           0.844
  14239909.768   -52221475.859 7 -40692051.984 4        25.000           3.594
  17342416.135    -9311406.498 4  -7100970.219 1         6.500           0.563
  15751290.268   -35236867.629 6 -27139862.304 2        17.500           2.281
  15819034.221   -33526391.856 7 -26124457.035 2        21.750           2.125
  17795274.494   -14502391.625 5 -11300564.102 1        10.000           0.750
  14975177.182   -38122482.746 7 -29705831.232 4        23.000           3.625
  17504740.322    -6779178.247 4  -5110798.604 1         7.000           0.438
 98  2 12  4 38 29.9780000  0  8 05 06 26 17 10 24 30 23
  16998038.143   -17850466.271 5 -13909456.928 1        10.250           0.688
  14210519.338   -52375927.571 7 -40812403.964 4        24.750           3.688
  17305009.166    -9508004.354 4  -7254163.316 1         6.750           0.375
  15719437.643   -35404249.583 6 -27270289.788 2        18.000           2.063
  15812101.822   -33562821.632 7 -26152843.852 2        21.500           2.156
  17787149.416   -14545103.109 5 -11333845.798 1         9.500           0.844
  14966040.096   -38170503.075 7 -29743249.694 4        23.000           3.531
  17463540.244    -6995687.736 5  -5279507.269 1         8.750           0.406
 98  2 12  4 38 59.9780000  0  8 05 06 26 17 10 24 30 23
  16996073.940   -17860798.540 5 -13917508.051 1        10.250           0.719
  14181192.432   -52530041.087 7 -40932492.417 4        24.500           3.594
  17267626.354    -9704494.294 5  -7407272.344 1         7.750           0.438
  15687619.729   -35571456.880 6 -27400581.166 2        19.000           2.125
  15805234.276   -33598904.583 7 -26180960.442 2        21.500           2.063
  17779010.330   -14587849.303 5 -11367154.534 1         8.250           0.688
  14956984.205   -38218089.842 7 -29780330.311 4        22.000           3.563
  17422372.526    -7212031.957 5  -5448087.185 1         9.000           0.594
 98  2 12  4 39 29.9780000  0  8 05 06 26 17 10 24 30 23
  16994124.557   -17871053.371 5 -13925498.847 1        10.500           0.625
  14151930.026   -52683822.394 7 -41052321.998 4        25.250           3.594
  17230250.901    -9900874.271 4  -7560295.697 1         6.750           0.438
  15655832.479   -35738483.431 6 -27530731.696 2        17.500           2.156
  15798432.393   -33634642.394 7 -26208808.086 2        21.000           2.094
  17770867.744   -14630625.216 5 -11400486.449 1         8.500           0.781
  14948008.799   -38265259.577 7 -29817085.981 3        22.250           3.344
  17381232.815    -7428211.319 5  -5616538.616 1         8.000           0.531
 98  2 12  4 39 59.9780000  0  8 05 06 26 17 10 24 30 23
  16992184.705   -17881240.015 5 -13933436.509 1        10.500           0.625
  14122726.643   -52837281.771 7 -41171900.739 4        25.250           3.563
  17192907.549   -10097134.272 5  -7713225.555 1         7.750           0.625
  15624090.276   -35905312.492 6 -27660728.363 2        18.250           2.000
  15791698.635   -33670055.067 7 -26236402.377 2        21.750           1.938
  17762722.205   -14673434.530 5 -11433844.362 1         7.750           0.781
  14939110.736   -38312006.667 7 -29853512.299 3        22.500           3.188
  17340126.947    -7644227.676 5  -5784863.013 1         8.000           0.563
 98  2 12  4 40 29.9780000  0  8 05 06 26 17 10 24 30 23
  16990254.986   -17891369.696 5 -13941329.764 1         9.750           0.594
  14093582.596   -52990436.127 7 -41291241.791 3        24.500           3.438
  17155575.947   -10293261.531 5  -7866051.988 1         8.250           0.625
  15592384.838   -36071924.776 6 -27790556.087 2        18.750           2.188
  15785020.776   -33705129.027 7 -26263732.733 2        21.750           2.063
  17754568.315   -14716286.086 5 -11467235.208 1         8.250           0.688
  14930301.502   -38358310.054 7 -29889592.885 3        22.500           3.469
  17299051.994    -7860083.158 5  -5953062.078 1         9.000           0.500
 98  2 12  4 40 59.9780000  0  8 05 06 26 17 10 24 30 23
  16988338.807   -17901438.212 5 -13949175.383 1         9.500           0.625
  14064494.971   -53143297.697 7 -41410354.708 4        24.750           3.500
  17118288.072   -10489243.764 5  -8018765.397 1         8.750           0.688
  15560717.229   -36238322.210 6 -27920216.387 2        18.500           2.281
  15778412.986   -33739848.394 7 -26290786.781 2        22.000           2.063
  17746412.674   -14759176.685 5 -11500656.467 1         8.250           0.688
  14921577.307   -38404162.799 7 -29925322.315 3        21.750           3.313
  17258004.549    -8075779.729 5  -6121137.303 1         8.500           0.406
 98  2 12  4 41 29.9780000  0  8 05 06 26 17 10 24 30 23
  16986436.408   -17911441.016 5 -13956969.777 1         9.750           0.563
  14035460.065   -53295874.810 7 -41529245.962 3        24.750           3.406
  17081017.994   -10685078.269 5  -8171363.696 1         8.250           0.688
  15529091.752   -36404509.683 6 -28049713.088 2        18.500           2.219
  15771870.596   -33774236.106 7 -26317582.407 2        21.750           2.094
  17738236.080   -14802118.446 5 -11534117.601 1         8.000           0.594
  14912932.166   -38449581.013 7 -29960713.160 4        22.250           3.563
  17216990.010    -8291323.685 5  -6289093.629 1         9.000           0.500
 98  2 12  4 41 59.9780000  0  8 05 06 26 17 10 24 30 23
  16984552.197   -17921359.100 5 -13964698.162 1         9.750           0.625
  14006481.611   -53448156.918 7 -41647907.346 3        24.500           3.469
  17043787.080   -10880754.359 5  -8323838.556 1         8.500           0.656
  15497508.815   -36570482.722 6 -28179042.704 2        18.750           2.188
  15765389.979   -33808280.608 7 -26344110.587 2        21.250           2.000
  17730058.026   -14845112.344 5 -11567619.359 1         8.500           0.563
  14904373.729   -38494555.857 7 -29995758.524 3        21.750           3.219
  17176002.338    -8506717.162 5  -6456932.688 1         9.000           0.625
 98  2 12  4 42 29.9780000  0  8 05 06 26 17 10 24 30 23
  16982679.736   -17931184.289 5 -13972354.166 1        10.000           0.688
  13977561.151   -53600137.207 7 -41766333.544 3        24.750           3.344
  17006580.010   -11076283.648 5  -8476199.034 1         8.250           0.563
  15465966.893   -36736246.346 6 -28308209.148 2        18.500           2.281
  15758978.908   -33841986.147 7 -26370374.645 2        21.500           2.000
  17721864.932   -14888162.814 5 -11601165.202 1         8.000           0.500
  14895894.291   -38539108.828 7 -30030475.148 3        22.250           2.938
  17135041.885    -8721958.197 5  -6624652.943 1         9.250           0.625
 98  2 12  4 42 59.9780000  0  8 05 06 26 17 10 24 30 23
  16980831.307   -17940900.365 5 -13979925.158 1         9.500           0.594
  13948700.486   -53751797.113 7 -41884510.093 3        24.750           3.375
  16969398.026   -11271665.628 5  -8628444.716 1         8.750           0.531
  15434460.830   -36901807.072 6 -28437217.486 2        18.000           2.219
  15752626.830   -33875373.603 7 -26396390.848 2        21.750           2.094
  17713655.408   -14931269.547 5 -11634754.874 1         7.500           0.594
  14887493.151   -38583261.277 7 -30064879.679 3        22.500           3.156
  17094113.963    -8937031.385 5  -6792242.417 1         9.250           0.531
 98  2 12  4 43 29.9770000  0  8 05 06 26 17 10 24 30 23
  16979001.005   -17950520.865 5 -13987421.675 1         9.500           0.688
  13919901.380   -53903136.106 7 -42002436.584 3        24.500           3.406
  16932245.677   -11466904.849 5  -8780579.159 1         9.250           0.500
  15402994.052   -37067159.761 6 -28566063.703 2        19.250           2.344
  15746330.177   -33908450.730 7 -26422165.227 2        21.250           2.125
  17705451.903   -14974421.908 5 -11668380.141 1         7.500           0.125
  14879169.443   -38627007.382 7 -30098967.588 3        22.000           2.938
  17053222.935    -9151917.010 5  -6959685.762 1         9.250           0.594
 98  2 12  4 43 59.9770000  0  8 05 06 26 17 10 24 30 23
  16977188.450   -17960045.117 5 -13994843.176 1         9.250           0.563
  13891161.716   -54054164.038 7 -42120120.686 3        24.000           3.438
  16895113.091   -11662014.334 5  -8932612.529 1         9.750           0.469
  15371568.318   -37232316.779 6 -28694757.467 2        18.750           2.281
  15740097.943   -33941201.641 7 -26447685.415 2        21.500           1.969
  17697237.630   -15017606.457 5                         8.500
  14870923.427   -38670340.965 7                        22.250
  17012367.568    -9366611.494 5  -7126980.153 1         9.250           0.625
 98  2 12  4 44 29.9770000  0  8 05 06 26 17 10 24 30 23
  16975392.755   -17969491.154 5 -14002203.719 1         9.250           0.594
  13862480.669   -54204882.052 7 -42237563.294 3        24.500           3.406
  16858013.153   -11856983.715 5  -9084536.729 1        10.000           0.438
  15340175.778   -37397285.253 6 -28823304.301 2        18.500           2.313
  15733924.700   -33973631.965 7 -26472955.794 2        21.250           1.875
  17689008.841   -15060820.478 5 -11735703.715 1         8.750           0.313
  14862755.794   -38713265.721 7 -30166181.924 3        22.250           2.938
  16971554.255    -9581093.590 5  -7294109.023 1         9.250           0.625
 98  2 12  4 44 59.9770000  0  8 05 06 26 17 10 24 30 23
  16973601.286   -17978883.372 5 -14009522.330 1         8.750           0.500
  13833860.583   -54355287.073 7 -42354762.006 3        24.750           3.313
  16820945.958   -12051800.673 5  -9236342.169 1         9.750           0.531
  15308818.528   -37562064.323 6 -28951703.560 2        18.750           2.313
  15727818.364   -34005737.392 7 -26497973.014 2        21.000           1.969
  17680778.950   -15104056.371 5 -11769394.010 1         9.250           0.375
  14854667.216   -38755770.235 7 -30199302.342 3        22.000           2.969
  16930781.161    -9795361.753 5  -7461071.203 1         9.750           0.719
 98  2 12  4 45 29.9770000  0  8 05 06 26 17 10 24 30 23
  16971819.786   -17988239.418 5 -14016812.762 1         8.250           0.594
  13805300.450   -54505378.661 7 -42471716.489 3        25.000           3.375
  16783897.857   -12246469.425 5  -9388032.094 1         9.500           0.563
  15277494.497   -37726651.998 6 -29079953.662 2        18.750           2.281
  15721769.325   -34037516.708 7 -26522736.120 2        20.250           2.063
  17672550.474   -15147315.191 5 -11803102.186 1        10.250           0.219
  14846658.888   -38797849.968 7 -30232091.782 3        22.250           3.063
  16890045.544   -10009420.176 5  -7627869.941 1         9.250           0.656
 98  2 12  4 45 59.9770000  0  8 05 06 26 17 10 24 30 23
  16970048.482   -17997556.055 5 -14024072.501 1         8.750           0.625
  13776797.607   -54655142.144 7 -42588415.310 3        24.750           3.281
  16746888.833   -12440983.826 5  -9539601.759 1         9.250           0.563
  15246213.255   -37891062.247 6 -29208065.522 2        19.000           2.313
  15715776.661   -34068980.852 6 -26547253.630 2        19.500           1.813
  17664310.271   -15190610.728 5 -11836838.969 1        10.250           0.344
  14838731.474   -38839525.966 7 -30264566.604 3        22.250           2.750
  16849349.216   -10223280.495 5  -7794514.325 1         9.250           0.688
 98  2 12  4 46 29.9770000  0  8 05 06 26 17 10 24 30 23
  16968285.044   -18006835.090 5 -14031302.921 1         9.000           0.656
  13748366.599   -54804563.740 7 -42704847.724 3        25.250           3.313
  16709900.325   -12635335.800 5  -9691044.827 1         9.250           0.531
  15214962.489   -38055278.243 6 -29336026.008 2        19.000           2.406
  15709851.997   -34100146.965 6 -26571538.917 2        19.750           1.688
  17656068.560   -15233938.040 5 -11870600.542 1        10.750           0.281
  14830875.138   -38880802.715 7 -30296730.316 3        21.500           2.719
  16808690.661   -10436936.306 5  -7960999.335 1         9.500           0.656
 98  2 12  4 46 59.9770000  0  8 05 06 26 17 10 24 30 23
  16966522.153   -18016090.731 5 -14038515.108 1         8.750           0.531
  13719996.318   -54953647.933 7 -42821017.227 3        25.000           3.406
  16672946.888   -12829540.469 5  -9842373.148 1         9.500           0.500
  15183749.575   -38219299.420 6 -29463834.698 2        19.250           2.375
  15703974.068   -34131029.192 7 -26595602.988 2        20.500           1.875
  17647808.021   -15277315.758 5 -11904401.330 1        10.250           0.344
  14823093.380   -38921696.166 7 -30328595.369 3        21.750           2.969
  16768070.458   -10650411.765 5  -8127343.816 1         9.750           0.656
 98  2 12  4 47 29.9770000  0  8 05 06 26 17 10 24 30 23
  16964773.489   -18025302.670 5 -14045693.250 1         9.250           0.469
  13691691.372   -55102384.880 7 -42936916.146 3        24.750           3.313
  16636017.075   -13023595.148 5  -9993584.586 1         9.750           0.563
  15152576.255   -38383122.884 6 -29591489.319 2        18.750           2.469
  15698155.755   -34161615.109 7 -26619436.178 2        20.500           1.906
  17639540.200   -15320740.326 5 -11938238.685 1         9.500           0.219
  14815383.896   -38962204.527 7 -30360160.342 3        21.750           2.781
  16727477.864   -10863709.042 5  -8293549.446 1         9.750           0.688
 98  2 12  4 47 59.9770000  0  8 05 06 26 17 10 24 30 23
  16963024.482   -18034469.337 5 -14052836.113 1         8.750           0.500
  13663451.614   -55250784.731 7 -43052552.392 3        24.500           3.313
  16599125.263   -13217485.089 5 -10144667.660 1        10.500           0.563
  15121439.693   -38546744.589 6 -29718986.729 3        19.500           2.531
  15692389.872   -34191906.450 7 -26643039.823 2        20.000           1.688
  17631274.911   -15364205.422 5 -11972107.584 1        10.250           0.281
  14807749.638   -39002335.102 7 -30391430.933 3        21.000           2.688
  16686920.927   -11076834.451 5  -8459621.155 1        10.000           0.781
 98  2 12  4 48 29.9770000  0  8 05 06 26 17 10 24 30 23
  16961290.341   -18043590.668 5 -14059943.645 1         8.500           0.438
  13635274.560   -55398856.090 7 -43167932.678 3        25.250           3.281
  16562257.716   -13411201.279 5 -10295615.328 1         9.750           0.500
  15090347.021   -38710152.241 6 -29846317.337 2        19.000           2.438
  15686686.872   -34221888.330 7 -26666402.327 2        20.250           1.750
  17622997.802   -15407707.397 5 -12006005.222 1        10.750           0.281
  14800185.568   -39042068.576 7 -30422392.098 3        21.250           2.844
  16646401.583   -11289780.280 5  -8625552.948 1        10.500           0.719
 98  2 12  4 48 59.9770000  0  8 05 06 26 17 10 24 30 23
  16959560.841   -18052659.493 5 -14067010.259 1         8.250           0.469
  13607160.482   -55546597.943 7 -43283056.196 3        25.000           3.375
  16525430.685   -13604733.032 5 -10446419.309 1         9.000           0.688
  15059290.489   -38873354.091 6 -29973487.587 2        19.000           2.375
  15681043.396   -34251541.720 7 -26689508.860 2        20.000           1.750
  17614706.810   -15451250.302 5 -12039934.755 1        10.250           0.344
  14792700.169   -39081403.875 7 -30453042.992 3        21.000           2.938
  16605910.364   -11502557.786 5  -8791353.586 1        10.250           0.750
 98  2 12  4 49 29.9770000  0  8 05 06 26 17 10 24 30 23
  16957848.919   -18061667.569 5 -14074029.523 1         8.750           0.563
  13579107.974   -55694016.754 7 -43397928.003 3        25.000           3.156
  16488635.857   -13798067.842 5 -10597069.809 1         8.250           0.625
  15028271.771   -39036353.226 6 -30100499.880 2        19.750           2.406
  15675460.099   -34280869.351 6 -26712361.570 2        19.750           1.656
  17606421.974   -15494823.211 5 -12073887.675 1        10.500           0.313
  14785292.107   -39120346.543 7 -30483387.949 3        21.000           2.875
  16565457.466   -11715151.054 5  -8957010.650 1        10.250           0.719
 98  2 12  4 49 59.9760000  0  7 05 06 26 17 10 30 23
  16956142.399   -18070626.443 5 -14081010.461 1         8.000           0.500
  13551115.703   -55841123.622 7 -43512556.734 3        25.000           3.156
  16451891.360   -13991191.528 5 -10747555.775 1         9.500           0.563
  14997288.961   -39199157.951 6 -30227360.683 3        19.750           2.500
  15669938.703   -34309883.649 6 -26734970.117 2        19.500           1.563
  14777955.594   -39158896.016 7 -30513426.512 3        20.750           2.750
  16525041.688   -11927535.210 5  -9122504.765 1        10.250           0.750
 98  2 12  4 50 29.9760000  0  7 05 06 26 17 10 30 23
  16954451.399   -18079531.859 5 -14087949.745 1         7.500           0.406
  13523182.289   -55987914.134 7 -43626938.954 3        25.000           3.156
  16415178.891   -14184114.492 5 -10897885.361 1        10.250           0.594
  14966342.414   -39361777.578 6 -30354077.247 3        19.250           2.500
  15664479.203   -34338584.124 7 -26757334.119 2        20.000           1.563
  14770695.297   -39197051.018 7 -30543157.692 3        20.750           2.750
  16484666.641   -12139710.344 5  -9287836.017 1        10.750           0.906
 98  2 12  4 50 59.9760000  0  7 05 06 26 17 10 30 23
  16952763.969   -18088378.591 4 -14094843.320 1         7.250           0.344
  13495310.039   -56134366.402 7 -43741057.610 3        25.000           3.313
  16378509.641   -14376817.424 5 -11048043.492 1        11.250           0.656
  14935435.969   -39524199.712 6 -30480639.925 2        19.750           2.375
  15659072.617   -34366987.885 6 -26779466.915 2        19.000           1.625
  14763505.149   -39234824.481 7 -30572591.572 3        20.500           2.781
  16444328.266   -12351661.306 5  -9452992.574 1        10.500           0.844
 98  2 12  4 51 29.9760000  0  7 05 06 26 17 10 30 23
  16951093.094   -18097181.186 5 -14101702.470 1         7.500           0.438
  13467507.617   -56280485.348 7 -43854916.521 3        24.750           3.281
  16341881.961   -14569309.680 5 -11198037.464 1        11.500           0.750
  14904560.328   -39686435.426 7 -30607057.346 3        20.000           2.563
  15653721.031   -34395118.530 6 -26801386.907 2        19.500           1.625
  14756390.391   -39272215.776 7 -30601727.671 3        20.750           2.656
  16404043.430   -12563375.189 5  -9617964.414 1        10.250           0.750
 98  2 12  4 51 59.9760000  0  7 05 06 26 17 10 30 23
  16949421.813   -18105948.737 5 -14108534.338 1         8.250           0.469
  13439767.399   -56426248.482 7 -43968498.187 3        25.000           3.156
  16305288.211   -14761585.851 5 -11347863.045 1        10.250           0.813
  14873729.188   -39848478.794 6 -30733324.883 3        19.000           2.531
  15648416.406   -34422987.945 6 -26823103.339 2        18.750           1.563
  14749350.156   -39309222.181 7 -30630563.828 3        20.750           2.750
  16363803.219   -12774854.478 6  -9782753.461 1        12.250           0.781
 98  2 12  4 52 29.9760000  0  7 05 06 26 17 10 30 23
  16947760.742   -18114677.504 5 -14115335.968 1         8.500           0.531
  13412103.524   -56571634.964 7 -44081786.356 3        25.250           3.188
  16268741.024   -14953646.961 5 -11497521.023 1        10.250           0.844
  14842932.797   -40010311.985 7 -30859428.636 3        20.500           2.500
  15643161.375   -34450599.046 6 -26844618.478 1        18.750           1.406
  14742378.750   -39345853.397 7 -30659107.650 3        20.000           2.813
  16323601.852   -12986105.363 5  -9947364.529 1        11.000           0.875
 98  2 12  4 52 59.9760000  0  7 05 06 26 17 10 30 23
  16946105.281   -18123391.020 5 -14122125.713 1         8.000           0.469
  13384508.555   -56716652.987 7 -44194787.415 3        25.250           3.094
  16232234.328   -15145499.804 5 -11647016.723 1        10.250           0.781
  14812170.828   -40171956.418 7 -30985385.319 3        20.000           2.625
  15637955.945   -34477955.499 6 -26865935.194 2        18.250           1.594
  14735478.500   -39382114.957 7 -30687363.415 3        21.500           2.844
  16283445.641   -13197128.620 5 -10111798.198 1        11.000           0.906
 98  2 12  4 53 29.9760000  0  7 05 06 26 17 10 30 23
  16944443.188   -18132107.509 4 -14128917.787 1         7.250           0.344
  13356981.813   -56861311.591 7 -44307508.397 3        25.500           3.125
  16195768.063   -15337144.105 5 -11796349.916 1        10.750           0.813
  14781443.563   -40333419.028 7 -31111200.307 3        20.000           2.594
  15632803.469   -34505040.127 6 -26887040.110 1        18.500           1.469
  14728647.125   -39418004.749 7 -30715329.498 3        20.750           2.719
  16243332.336   -13407926.212 6 -10276056.057 1        12.250           0.875
 98  2 12  4 53 59.9760000  0  7 05 06 26 17 10 30 23
  16942780.227   -18140842.178 4 -14135724.023 1         7.250           0.344
  13329520.086   -57005614.027 7 -44419951.861 3        25.000           3.125
  16159337.602   -15528575.802 5 -11945517.459 1        11.250           0.625
  14750750.805   -40494710.728 7 -31236882.139 3        20.250           2.594
  15627700.086   -34531854.477 6 -26907934.408 1        18.750           1.469
  14721885.219   -39453542.645 7 -30743021.369 3        20.750           2.500
  16203257.172   -13618518.063 6 -10440153.607 1        12.500           0.906
 98  2 12  4 54 29.9760000  0  7 05 06 26 17 10 30 23
  16941118.477   -18149588.406 5 -14142539.264 1         7.500           0.375
  13302126.266   -57149570.109 7 -44532125.427 3        25.250           3.063
  16122950.313   -15719800.112 5 -12094523.415 1        10.500           0.719
  14720091.367   -40655839.262 7 -31362436.812 3        20.750           2.531
  15622651.797   -34558384.039 6 -26928606.801 1        18.500           1.406
  14715190.422   -39488726.255 7 -30770437.185 3        20.500           2.719
  16163222.117   -13828904.260 5 -10604090.867 1        11.250           0.906
 98  2 12  4 54 59.9760000  0  7 05 06 26 17 10 30 23
  16939453.344   -18158337.113 5 -14149356.433 1         7.750           0.344
  13274797.438   -57293179.979 7 -44644029.224 3        25.000           3.031
  16086601.555   -15910803.676 5 -12243357.337 1        10.250           0.750
  14689464.352   -40816801.273 7 -31487861.733 3        20.000           2.594
  15617663.703   -34584621.417 6 -26949051.507 2        19.250           1.500
  14708560.156   -39523563.152 7 -30797582.834 3        21.250           2.688
  16123227.461   -14039081.507 6 -10767865.323 1        12.250           0.906
 98  2 12  4 55 29.9760000  0  7 05 06 26 17 10 30 23
  16937790.156   -18167082.858 5 -14156171.287 1         7.750           0.438
  13247534.188   -57436443.529 7 -44755663.161 3        25.250           3.156
  16050299.125   -16101579.643 5 -12392013.930 1        11.000           0.750
  14658864.766   -40977586.111 7 -31613148.604 3        20.000           2.531
  15612717.781   -34610591.669 6 -26969288.064 2        18.750           1.563
  14701997.297   -39558061.212 7 -30824464.434 3        20.500           2.531
  16083268.250   -14249066.538 6 -10931490.037 1        12.250           0.906
 98  2 12  4 55 59.9760000  0  7 05 06 26 17 10 30 23
  16936128.586   -18175815.380 5 -14162975.850 1         7.750           0.406
  13220340.789   -57579351.364 7 -44867019.920 3        25.000           3.031
  16014032.141   -16292139.142 5 -12540501.838 1        11.000           0.906
  14628305.617   -41138189.091 7 -31738293.762 3        20.500           2.594
  15607823.992   -34636315.448 6 -26989332.579 2        18.250           1.531
  14695494.281   -39592227.760 7 -30851087.725 3        21.250           2.531
  16043345.070   -14458856.861 5 -11094963.000 1        11.750           1.063
 98  2 12  4 56 29.9760000  0  7 05 06 26 17 10 30 23
  16934472.235   -18184520.472 4 -14169759.040 1         7.250           0.406
  13193214.852   -57721902.343 7 -44978098.607 3        25.250           3.063
  15977816.555   -16482471.922 5 -12688813.061 1        11.000           0.781
  14597782.867   -41298575.916 7 -31863270.494 3        20.000           2.625
  15602973.149   -34661792.350 6 -27009184.711 1        18.000           1.406
  14689060.164   -39626047.897 7 -30877441.077 3        21.250           2.625
  16003466.078   -14668429.628 6 -11258266.441 1        12.250           1.031
 98  2 12  4 56 59.9750000  0  7 05 06 26 17 10 30 23
  16932818.050   -18193214.140 4 -14176533.343 1         7.250           0.438
  13166155.667   -57864092.015 7 -45088895.748 3        25.500           3.156
  15941637.691   -16672567.692 5 -12836939.612 1         9.750           0.781
  14567309.495   -41458731.757 7 -31988067.233 3        20.500           2.750
  15598170.636   -34687028.858 6 -27028849.519 1        18.250           1.469
  14682687.917   -39659525.234 7 -30903527.318 2        20.500           2.438
  15963630.597   -14877765.834 6 -11421385.559 1        12.500           0.906
 98  2 12  4 57 29.9750000  0  7 05 06 26 17 10 30 23
  16931163.027   -18201908.501 5 -14183308.171 1         7.500           0.313
  13139166.542   -58005924.737 7 -45199414.754 3        25.500           3.094
  15905506.964   -16862444.104 5 -12984895.216 1        10.250           0.781
  14536873.386   -41618663.816 7 -32112689.587 3        21.000           2.625
  15593414.730   -34712026.528 6 -27048328.225 2        17.250           1.594
  14676387.331   -39692632.883 7 -30929325.490 2        21.000           2.438
  15923842.214   -15086859.817 6 -11584315.911 1        12.000           1.031
 98  2 12  4 57 59.9750000  0  7 05 06 26 17 10 30 23
  16929506.347   -18210600.486 5 -14190081.137 1         7.500           0.375
  13112246.737   -58147399.174 7 -45309654.579 3        25.750           3.094
  15869420.433   -17052098.118 5 -13132677.533 1        11.000           0.594
  14506479.355   -41778373.979 7 -32237139.058 3        20.750           2.594
  15588707.870   -34736766.761 6 -27067606.330 2        17.250           1.531
  14670156.784   -39725371.878 7 -30954836.406 2        20.750           2.438
  15884105.675   -15295678.953 6 -11747032.115 1        13.500           0.969
 98  2 12  4 58 29.9750000  0  7 05 06 26 17 10 30 23
  16927855.620   -18219297.939 5 -14196858.378 1         8.000           0.344
  13085390.417   -58288526.848 7 -45419624.197 3        25.250           2.969
  15833373.277   -17241523.820 5 -13280281.976 1        11.250           0.750
  14476127.652   -41937873.227 7 -32361424.151 3        20.500           2.813
  15584048.714   -34761245.877 6 -27086680.981 1        18.000           1.375
  14664000.847   -39757741.160 7 -30980059.238 2        20.750           2.313
  15844421.339   -15504221.174 6 -11909532.557 1        12.750           1.063
 98  2 12  4 58 59.9750000  0  7 05 06 26 17 10 30 23
  16926198.878   -18227991.114 4 -14203632.281 1         7.250           0.281
  13058604.909   -58429286.286 7 -45529306.877 3        25.750           3.063
  15797370.558   -17430710.025 5 -13427699.794 1        11.250           0.719
  14445809.355   -42097197.211 7 -32485572.686 3        20.750           2.656
  15579440.402   -34785458.087 6 -27105547.621 1        17.500           1.469
  14657910.402   -39789739.193 7 -31004992.766 2        20.250           2.406
  15804787.378   -15712491.378 6 -12071821.020 1        12.000           1.125
 98  2 12  4 59 29.9750000  0  7 05 06 26 17 10 30 23
  16924546.136   -18236674.406 4 -14210398.464 1         6.500           0.406
  13031889.191   -58569667.473 7 -45638694.822 3        25.250           3.094
  15761417.519   -17619644.782 5 -13574921.667 1        10.500           0.750
  14415524.167   -42256365.042 7 -32609599.549 3        21.250           2.656
  15574880.347   -34809421.197 6 -27124220.180 1        16.500           1.469
  14651890.066   -39821375.003 7 -31029644.048 2        21.000           2.313
  15765204.886   -15920503.841 6 -12233908.624 1        13.750           1.063
 98  2 12  4 59 59.9750000  0  7 05 06 26 17 10 30 23
  16922896.847   -18245348.564 4 -14217157.549 1         7.000           0.375
  13005249.456   -58709663.502 7 -45747782.634 3        25.750           3.031
  15725518.862   -17808312.954 5 -13721935.788 1        10.500           0.875
  14385262.394   -42415393.924 7 -32733518.145 3        21.000           2.813
  15570367.050   -34833143.453 6 -27142705.063 2        17.000           1.531
  14645932.769   -39852674.878 7 -31054033.563 2        20.000           2.156
  15725666.730   -16128279.070 6 -12395811.431 1        13.500           0.969
 98  2 12  5  0 29.9750000  0  7 05 06 26 17 10 30 23
  16921245.894   -18254032.733 4 -14223924.477 1         7.000           0.406
  12978683.581   -58849277.768 7 -45856572.979 3        25.750           3.063
  15689661.136   -17996707.742 5 -13868736.894 1        10.250           0.906
  14355022.159   -42574291.768 7 -32857334.625 3        20.750           2.844
  15565899.144   -34856639.143 6 -27161013.395 1        17.500           1.469
  14640036.737   -39883657.116 7 -31078175.562 2        20.000           2.281
  15686168.761   -16335847.191 6 -12557552.801 1        13.000           1.156
 98  2 12  5  0 59.9750000  0  7 05 06 26 17 10 30 23
  16919595.300   -18262739.181 4 -14230708.711 1         7.250           0.313
  12952188.198   -58988504.831 7 -45965061.598 3        25.500           3.031
  15653871.167   -18184816.136 5 -14015314.844 1        11.500           0.844
  14324810.902   -42733051.380 7 -32981043.396 3        21.000           2.719
  15561466.948   -34879912.644 6 -27179148.579 1        16.250           1.281
  14634198.917   -39914340.409 7 -31102084.643 2        20.250           2.344
  15646709.495   -16543204.007 6 -12719129.531 1        13.750           1.250
 98  2 12  5  1 29.9750000  0  7 05 06 26 17 10 30 23
  16917919.261   -18271489.822 4 -14237527.418 1         6.750           0.344
  12925764.441   -59127358.619 7 -46073259.356 3        25.500           3.063
  15618128.112   -18372646.504 5 -14161676.178 1        11.250           0.750
  14294635.378   -42891631.222 7 -33104612.091 3        20.750           2.969
  15557084.378   -34902957.943 6 -27197105.963 1        17.000           1.344
  14628411.222   -39944755.050 6 -31125784.361 2        19.500           1.906
  15607292.058   -16750337.752 6 -12880532.451 1        13.250           1.094
 98  2 12  5  1 59.9750000  0  7 05 06 26 17 10 30 23
  16916248.222   -18280287.604 4 -14244382.828 1         7.000           0.219
  12899409.667   -59265848.459 7 -46181173.524 3        25.750           3.063
  15582440.284   -18560194.449 5 -14307817.420 1        11.000           0.719
  14264499.120   -43050004.250 7 -33228019.628 3        21.250           2.875
  15552742.917   -34925756.015 6 -27214870.697 1        16.250           1.375
  14622673.808   -39974907.445 6 -31149279.712 2        19.250           2.125
  15567919.511   -16957231.368 6 -13041748.267 1        12.750           1.063
 98  2 12  5  2 29.9750000  0  7 05 06 26 17 10 30 23
  16914566.902   -18289135.079 4 -14251276.971 1         7.000           0.313
  12873125.394   -59403978.997 7 -46288807.714 3        25.500           3.063
  15546800.355   -18747465.902 5 -14453743.217 1        11.500           0.906
  14234404.683   -43208150.964 7 -33351250.826 3        21.500           2.906
  15548453.573   -34948306.059 6 -27232442.168 1        16.500           1.313
  14616986.261   -40004790.766 6 -31172565.434 2        19.750           2.313
  15528601.214   -17163865.960 6 -13202762.223 1        13.750           1.188
 98  2 12  5  2 59.9750000  0  7 05 06 26 17 10 30 23
  16912875.081   -18298027.243 4 -14258205.974 1         6.500           0.250
  12846912.573   -59541730.145 7 -46396146.269 3        26.000           3.094
  15511214.073   -18934467.459 6 -14599458.692 1        12.000           1.125
  14204355.292   -43366060.881 7 -33474297.497 3        20.750           3.000
  15544208.339   -34970606.367 6 -27249819.032 1        15.500           1.219
  14611354.081   -40034392.136 6 -31195631.431 2        19.500           2.063
  15489334.878   -17370220.441 6 -13363557.906 1        13.500           1.188
 98  2 12  5  3 29.9750000  0  7 05 06 26 17 10 30 23
  16911168.175   -18306955.191 3 -14265162.810 1         5.500           0.313
  12820775.847   -59679088.735 7 -46503178.933 3        25.750           3.063
  15475681.277   -19121212.779 6 -14744974.499 1        13.000           0.969
  14174346.534   -43523743.175 7 -33597166.802 3        21.250           2.938
  15540011.941   -34992667.250 6 -27267009.330 1        16.000           1.094
  14605778.417   -40063698.426 6 -31218467.492 2        19.500           2.000
  15450114.409   -17576311.138 6 -13524148.023 1        13.750           1.156
 98  2 12  5  3 59.9740000  0  7 05 06 26 17 10 30 23
  16909471.459   -18315901.945 3 -14272134.321 1         6.000           0.219
  12794715.819   -59816031.091 7 -46609887.267 3        25.750           3.063
  15440195.264   -19307683.255 5 -14890276.158 1        11.750           1.031
  14144379.412   -43681230.610 7 -33719884.275 3        21.500           2.938
  15535853.319   -35014503.854 6 -27284024.858 1        16.000           1.219
  14600265.069   -40092664.755 6 -31241038.665 2        19.500           2.094
  15410950.647   -17782127.448 6 -13684524.361 1        14.250           1.219
 98  2 12  5  4 29.9740000  0  8 05 06 26 17 10 22 30 23
  16907761.967   -18324873.813 4 -14279125.441 1         6.750           0.281
  12768735.483   -59952561.966 7 -46716274.954 3        26.000           3.094
  15404761.365   -19493898.049 5 -15035378.570 1        11.250           0.781
  14114441.725   -43838554.422 7 -33842474.246 3        21.500           3.063
  15531741.670   -35036136.623 6 -27300881.568 1        16.500           1.313
  16994021.029          -0.63614                         6.500
  14594816.139   -40121290.847 6 -31263344.715 2        19.000           2.000
  15371831.131   -17987687.884 6 -13844701.303 1        13.750           1.188
 98  2 12  5  4 59.9740000  0  8 05 06 26 17 10 22 30 23
  16906053.389   -18333872.048 4 -14286137.078 1         7.250           0.344
  12742831.350   -60088675.833 7 -46822337.713 3        25.750           3.063
  15369378.069   -19679846.389 5 -15180273.360 1        11.750           0.781
  14084535.537   -43995718.702 7 -33964939.905 3        21.250           3.031
  15527659.350   -35057578.719 6 -27317589.702 1        16.250           1.250
  16959430.248     -181773.842 3        -0.07011         5.500           0.250
  14589433.608   -40149584.515 6 -31285391.735 2        19.000           1.938
  15332765.053   -18192984.198 6 -14004672.416 1        13.250           1.219
 98  2 12  5  5 29.9740000  0  8 05 06 26 17 10 22 30 23
  16904333.100   -18342896.289 4 -14293168.972 1         7.000           0.438
  12717009.272   -60224383.313 7 -46928083.798 3        25.250           3.063
  15334044.779   -19865506.933 6 -15324943.905 1        12.250           0.844
  14054659.975   -44152714.100 7 -34087273.976 3        22.000           2.969
  15523613.147   -35078825.258 6 -27334145.442 1        16.000           1.125
  16924916.311     -363145.810 3   -141328.931 1         5.250           0.250
  14584112.514   -40177546.914 6 -31307180.625 2        19.250           1.938
  15293753.631   -18398007.219 6 -14164430.610 1        15.000           1.125
 98  2 12  5  5 59.9740000  0  8 05 06 26 17 10 22 30 23
  16902605.678   -18351967.846 4 -14300237.750 1         7.000           0.344
  12691256.725   -60359711.477 7 -47033534.317 3        25.250           3.063
  15298773.694   -20050861.195 6 -15469375.786 1        13.000           1.063
  14024815.717   -44309540.922 7 -34209476.678 3        22.000           3.250
  15519610.631   -35099877.543 6 -27350549.812 1        16.250           1.094
  16890478.529     -544139.767 3   -282363.182 1         5.250           0.250
  14578847.834   -40205202.948 6 -31328730.776 2        19.000           1.750
  15254790.990   -18602743.162 6 -14323965.113 1        13.750           1.375
 98  2 12  5  6 29.9740000  0  8 05 06 26 17 10 22 30 23
  16900869.639   -18361100.782 4 -14307354.337 1         6.500           0.406
  12665574.975   -60494665.369 7 -47138693.192 3        25.250           3.031
  15263558.881   -20235903.122 6 -15613564.286 1        12.750           1.156
  13995011.319   -44466166.589 7 -34331522.638 3        22.000           2.938
  15515644.272   -35120726.569 6 -27366795.800 1        15.750           1.156
  16856109.451     -724757.045 4   -423103.942 1         7.000           0.281
  14573639.569   -40232578.248 6 -31350062.174 2        19.000           1.781
  15215884.154   -18807199.761 6 -14483281.900 1        13.750           1.438
 98  2 12  5  6 59.9740000  0  8 05 06 26 17 10 22 30 23
  16899120.537   -18370305.581 3 -14314526.934 1         6.000           0.250
  12639966.459   -60629238.458 7 -47243555.342 3        25.250           3.094
  15228410.076   -20420629.534 6 -15757506.908 1        12.500           1.156
  13965245.717   -44622590.533 7 -34453411.419 3        21.750           3.188
  15511713.233   -35141371.674 6 -27382882.915 1        15.750           1.031
  16821805.397     -904994.460 3   -563548.736 1         5.000           0.188
  14568484.600   -40259677.421 6 -31371178.413 2        18.750           1.844
  15177030.162   -19011384.528 6 -14642386.899 1        15.250           1.188
 98  2 12  5  7 29.9740000  0  8 05 06 26 17 10 22 30 23
  16897353.217   -18379582.310 3 -14321755.565 1         5.500           0.344
  12614430.342   -60763427.576 7 -47348118.314 3        25.000           3.094
  15193317.225   -20605031.120 5 -15901196.441 1        11.750           0.969
  13935518.029   -44778807.461 7 -34575138.876 3        21.750           3.125
  15507827.108   -35161802.429 6 -27398802.981 1        16.250           1.156
  16787590.537    -1084830.506 3   -703680.679 1         6.000           0.250
  14563381.014   -40286496.522 7 -31392076.424 2        20.000           1.875
  15138223.779   -19215306.829 6 -14801287.392 1        13.750           1.375
 98  2 12  5  7 59.9740000  0  8 05 06 26 17 10 22 30 23
  16895573.404   -18388930.509 3 -14329039.890 1         5.500           0.250
  12588972.115   -60897222.846 7 -47452374.350 3        25.250           3.000
  15158281.334   -20789118.911 5 -16044641.445 1        11.500           0.906
  13905828.194   -44934823.110 7 -34696709.505 3        22.000           3.188
  15503975.444   -35182035.869 6 -27414569.283 1        15.500           0.969
  16753445.904    -1264246.957 3   -843485.740 1         5.750           0.406
  14558330.069   -40313038.843 6 -31412758.752 2        19.250           1.656
  15099470.584   -19418966.493 6 -14959983.214 2        14.750           1.531
 98  2 12  5  8 29.9740000  0  8 05 06 26 17 10 22 30 23
  16893783.811   -18398347.895 3 -14336378.137 1         6.000           0.156
  12563587.233   -61030607.276 7 -47556310.271 3        25.000           2.938
  15123310.436   -20972913.221 6 -16187857.771 1        12.250           0.813
  13876178.115   -45090638.282 7 -34818123.911 3        22.500           3.281
  15500161.467   -35202075.108 6 -27430184.274 1        15.000           1.031
  16719380.920    -1443230.778 4   -982953.663 1         7.000           0.344
  14553331.819   -40339297.946 6 -31433220.398 2        19.000           1.938
  15060763.529   -19622367.961 6 -15118477.834 1        14.500           1.344
 98  2 12  5  8 59.9740000  0  8 05 06 26 17 10 22 30 23
  16891979.217   -18407821.285 3 -14343759.975 1         6.000           0.250
  12538284.623   -61163578.619 7 -47659924.308 3        25.000           2.938
  15088393.608   -21156418.480 6 -16330848.863 1        13.500           0.938
  13846565.194   -45246265.065 7 -34939391.519 3        22.750           3.250
  15496381.600   -35221937.129 6 -27445661.177 1        14.750           1.063
  16685404.584    -1621779.900 4  -1122082.843 1         6.500           0.344
  14548388.850   -40365273.294 6 -31453460.942 2        18.250           1.969
  15022109.967   -19825495.581 6 -15276759.092 1        14.750           1.375
 98  2 12  5  9 29.9740000  0  8 05 06 26 17 10 22 30 23
  16890165.819   -18417344.200 4 -14351180.435 1         6.750           0.219
  12513059.076   -61296144.883 7 -47763222.697 3        25.000           2.844
  15053527.959   -21339634.255 6 -16473614.383 1        13.250           0.969
  13816983.397   -45401713.487 7 -35060520.142 3        22.500           3.313
  15492631.115   -35241636.249 6 -27461011.143 1        15.250           1.063
  16651514.779    -1799887.608 5  -1260868.075 1         7.500           0.313
  14543499.475   -40390973.164 6 -31473486.822 2        18.750           1.531
  14983508.397   -20028342.579 6 -15434821.679 1        14.250           1.469
 98  2 12  5  9 59.9740000  0  8 05 06 26 17 10 22 30 23
  16888346.959   -18426915.466 4 -14358638.585 1         7.000           0.281
  12487910.678   -61428295.236 7 -47866197.007 3        25.500           2.906
  15018718.764   -21522557.874 6 -16616152.257 1        13.250           1.000
  13787433.795   -45556994.716 7 -35181518.490 3        22.000           3.063
  15488913.998   -35261180.985 6 -27476240.808 1        15.000           1.125
  16617701.225    -1977559.699 4  -1399313.892 1         7.000           0.438
  14538659.803   -40416408.705 6 -31493306.707 2        19.000           1.594
  14944960.998   -20230903.690 6 -15592661.475 1        14.000           1.344
 98  2 12  5 10 29.9730000  0  7 06 26 17 10 22 30 23
  12462844.736   -61560020.756 7 -47968840.261 3        25.500           2.969
  14983967.462   -21705162.847 5 -16758441.816 1        11.750           1.188
  13757917.392   -45712111.206 7 -35302388.473 3        22.750           3.188
  15485228.548   -35280553.342 6 -27491336.151 1        14.000           1.094
  16583975.486    -2154799.578 5  -1537422.890 1         8.250           0.531
  14533866.767   -40441581.159 6 -31512921.603 2        18.500           1.875
  14906472.962   -20433172.283 6 -15750273.347 1        14.500           1.219
 98  2 12  5 10 59.9730000  0  7 06 26 17 10 22 30 23
  12437856.611   -61691341.797 7 -48071168.353 3        25.750           2.906
  14949280.720   -21887446.967 6 -16900481.353 1        12.250           1.156
  13728422.696   -45867091.591 7 -35423152.395 3        22.250           3.250
  15481572.986   -35299767.971 6 -27506308.595 1        14.000           1.063
  16550332.173    -2331630.013 5  -1675212.814 1         7.750           0.500
  14529123.048   -40466516.293 6 -31532351.578 2        18.500           1.750
  14868032.321   -20635170.211 6 -15907674.329 2        15.000           1.500
 98  2 12  5 11 29.9730000  0  7 06 26 17 10 22 30 23
  12412945.017   -61822245.367 7 -48173171.142 3        25.250           2.813
  14914662.439   -22069379.982 6 -17042247.321 1        14.000           1.031
  13698960.071   -46021929.278 7 -35543805.128 3        22.250           3.406
  15477949.181   -35318790.934 6 -27521131.688 1        14.250           1.031
  16516757.329    -2508042.416 5  -1812677.058 1         8.000           0.469
  14524423.415   -40491219.738 6 -31551601.004 2        18.750           1.594
  14829646.814   -20836891.633 6 -16064859.818 1        14.500           1.375
 98  2 12  5 11 59.9730000  0  7 06 26 17 10 22 30 23
  12388115.103   -61952737.166 7 -48274853.067 3        25.500           2.938
  14880110.650   -22250961.244 6 -17183739.206 1        13.750           1.031
  13669521.259   -46176615.490 7 -35664339.823 3        22.250           3.250
  15474372.798   -35337600.875 6 -27535788.787 1        14.000           1.125
  16483262.329    -2684056.915 5  -1949831.214 1         7.750           0.500
  14519764.665   -40515695.379 6 -31570672.923 2        17.750           1.688
  14791312.986   -21038338.822 6 -16221831.649 1        15.500           1.375
 98  2 12  5 12 29.9730000  0  7 06 26 17 10 22 30 23
  12363360.025   -62082823.072 7 -48376218.715 3        25.250           2.906
  14845621.790   -22432189.193 6 -17324955.772 1        13.500           0.969
  13640119.095   -46331134.397 7 -35784744.156 3        23.250           3.375
  15470835.571   -35356185.921 6 -27550270.639 1        12.750           1.000
  16449841.025    -2859686.382 5  -2086685.342 1         7.750           0.563
  14515151.282   -40539941.296 6 -31589565.841 2        18.750           1.625
  14753030.173   -21239507.434 6 -16378586.411 2        14.250           1.563
 98  2 12  5 12 59.9730000  0  7 06 26 17 10 22 30 23
  12338685.236   -62212491.125 7 -48477258.754 3        25.250           2.875
  14811200.501   -22613073.808 6 -17465904.800 1        13.500           0.969
  13610749.204   -46485466.392 7 -35905002.848 3        22.750           3.188
  15467341.189   -35374546.452 6 -27564577.555 1        13.250           1.063
  16416492.439    -3034922.264 4  -2223232.801 1         7.000           0.438
  14510581.759   -40563949.286 6 -31608273.355 2        17.750           1.625
  14714802.876   -21440397.141 6 -16535123.801 2        15.250           1.563
 98  2 12  5 13 29.9730000  0  7 06 26 17 10 22 30 23
  12314089.290   -62341738.199 7 -48577970.769 3        24.750           2.969
  14776842.806   -22793619.937 6 -17606590.085 1        14.000           1.094
  13581420.056   -46639596.393 7 -36025104.144 3        22.750           3.313
  15463890.736   -35392685.810 6 -27578712.118 1        13.500           1.094
  16383224.361    -3209761.711 4  -2359471.323 1         7.250           0.406
  14506062.884   -40587697.025 6 -31626778.088 2        18.250           1.531
  14676631.876   -21641000.406 6 -16691438.032 1        16.250           1.438
 98  2 12  5 13 59.9730000  0  7 06 26 17 10 22 30 23
  12289574.189   -62470562.881 7 -48678353.638 3        25.000           2.938
  14742554.415   -22973836.087 6 -17747018.228 1        15.250           1.156
  13552131.970   -46793515.817 7 -36145041.333 4        22.250           3.500
  15460472.814   -35410636.566 6 -27592699.723 1        13.500           1.000
  16350032.157    -3384199.948 5  -2495397.258 1         7.750           0.375
  14501594.790   -40611172.102 6 -31645070.331 2        17.500           1.531
  14638513.493   -21841303.778 6 -16847518.573 1        14.750           1.438
 98  2 12  5 14 29.9730000  0  7 06 26 17 10 22 30 23
  12265142.048   -62598957.306 7 -48778401.247 3        25.000           2.844
  14708319.236   -23153719.656 6 -17887187.220 1        13.500           1.031
  13522879.103   -46947230.765 7 -36264819.204 3        22.500           3.344
  15457090.454   -35428425.559 6 -27606561.293 1        13.500           1.125
  16316919.509    -3558210.342 4  -2630989.762 1         7.250           0.500
  14497180.962   -40634371.043 6 -31663147.434 1        16.250           1.469
  14600457.486   -22041293.902 6 -17003355.012 2        15.500           1.656
 98  2 12  5 14 59.9730000  0  7 06 26 17 10 22 30 23
  12240790.220   -62726925.060 7 -48878116.383 3        25.250           2.906
  14674154.868   -23333264.917 6 -18027092.587 1        13.500           1.000
  13493667.173   -47100747.795 7 -36384442.847 3        22.500           3.438
  15453730.462   -35446075.960 6 -27620314.867 1        13.500           0.969
  16283887.165    -3731764.286 4  -2766226.632 1         6.750           0.313
  14492819.634   -40657295.193 6 -31681010.411 2        18.250           1.563
  14562461.298   -22240961.424 6 -17158940.068 2        15.500           1.781
 98  2 12  5 15 29.9730000  0  7 06 26 17 10 22 30 23
  12216518.329   -62854481.688 7 -48977511.162 3        25.500           2.906
  14640053.017   -23512466.278 6 -18166729.993 1        14.250           1.000
  13464490.001   -47254074.303 7 -36503918.034 3        22.500           3.375
  15450395.868   -35463603.860 6 -27633972.970 1        13.750           1.094
  16250952.501    -3904853.704 4  -2901101.515 1         7.000           0.500
  14488508.251   -40679960.053 6 -31698671.327 1        17.000           1.438
  14524530.861   -22440291.299 6 -17314262.027 2        15.750           1.500
 98  2 12  5 15 59.9730000  0  7 06 26 17 10 22 30 23
  12192324.486   -62981624.683 7 -49076583.627 3        25.000           2.844
  14606013.392   -23691329.036 6 -18306103.565 1        14.500           1.063
  13435346.095   -47407222.400 7 -36623254.207 3        22.750           3.344
  15447079.798   -35481017.021 6 -27647541.672 1        13.750           1.000
  16218104.782    -4077471.892 4  -3035609.209 1         6.750           0.250
  14484238.657   -40702387.673 6 -31716147.421 1        16.000           1.344
  14486660.095   -22639291.001 6 -17469326.713 1        16.250           1.469
 98  2 12  5 16 29.9730000  0  7 06 26 17 10 22 30 23
  12168210.470   -63108338.917 7 -49175321.996 3        25.000           2.875
  14572041.564   -23869848.120 6 -18445209.326 1        13.250           1.031
  13406236.712   -47560188.831 7 -36742448.808 4        22.500           3.531
  15443787.900   -35498306.990 6 -27661014.376 1        13.250           0.938
  16185348.611    -4249609.258 4  -3169742.237 1         6.500           0.375
  14480013.204   -40724600.366 6 -31733456.012 1        18.000           1.250
  14448851.118   -22837975.475 6 -17624145.774 2        16.000           1.750
 98  2 12  5 16 59.9730000  0  7 06 26 17 10 22 30 23
  12144179.157   -63234616.582 7 -49273720.183 3        25.250           2.969
  14538138.853   -24048016.712 6 -18584041.969 1        13.500           1.063
  13377168.423   -47712965.400 7 -36861495.469 3        23.000           3.313
  15440523.759   -35515473.045 6 -27674390.521 1        13.500           1.031
  16152679.064    -4421281.775 4  -3303513.047 1         6.750           0.250
  14475822.321   -40746611.158 6 -31750607.272 2        16.750           1.594
  14411106.306   -23036346.038 6 -17778720.210 2        16.500           1.688
 98  2 12  5 17 29.9720000  0  7 06 26 17 10 22 30 23
  12120235.926   -63360445.486 7 -49371768.686 3        25.500           2.781
  14504306.926   -24225829.087 6 -18722597.046 1        14.500           1.031
  13348128.621   -47865554.666 7 -36980396.186 3        22.500           3.406
  15437284.856   -35532493.738 6 -27687653.414 1        13.750           0.969
  16120095.965    -4592505.806 4  -3436934.406 1         6.250           0.313
  14471672.067   -40768423.127 6 -31767603.659 1        16.000           1.438
  14373415.473   -23234403.068 6 -17933050.351 2        16.500           1.719
 98  2 12  5 17 59.9720000  0  7 06 26 17 10 22 30 23
  12096377.660   -63485825.508 7 -49469467.395 3        25.500           2.875
  14470534.926   -24403274.619 6 -18860866.283 1        14.250           1.094
  13319125.410   -48017967.254 7 -37099159.226 3        22.500           3.281
  15434076.809   -35549353.867 6 -27700791.174 1        13.250           0.938
  16087591.332    -4763305.986 3  -3570025.471 1         5.750           0.344
  14467558.793   -40790033.751 6 -31784443.099 1        17.500           1.375
  14335780.278   -23432182.731 6 -18087164.362 2        16.250           1.750
 98  2 12  5 18 29.9720000  0  7 06 26 17 10 22 30 23
  12072604.645   -63610756.050 7 -49566815.877 3        25.500           2.906
  14436846.223   -24580319.339 6 -18998823.192 1        14.250           1.281
  13290157.043   -48170185.160 7 -37217770.568 4        22.500           3.563
  15430902.051   -35566031.144 6 -27713786.456 1        12.500           0.969
  16055178.957    -4933679.688 4  -3702784.181 1         6.500           0.313
  14463487.293   -40811432.169 6 -31801117.191 1        15.750           1.375
  14298198.910   -23629672.284 6 -18241052.305 2        17.000           1.813
 98  2 12  5 18 59.9720000  0  7 06 26 17 10 22 30 23
  12048910.887   -63735263.688 7 -49663834.820 3        25.500           2.844
  14403230.426   -24756960.190 6 -19136465.380 1        13.000           1.219
  13261225.926   -48322226.579 7 -37336244.382 3        22.750           3.438
  15427765.434   -35582528.298 6 -27726641.386 1        12.250           0.969
  16022831.481    -5103638.482 3  -3835219.689 1         6.000           0.281
  14459457.981   -40832603.557 6 -31817614.405 1        16.250           1.375
  14260672.809   -23826874.620 6 -18394716.447 2        17.500           1.750
 98  2 12  5 19 29.9720000  0  7 06 26 17 10 22 30 23
  12025296.887   -63859351.025 7 -49760526.257 3        25.000           2.813
  14369696.754   -24933187.483 6 -19273785.320 1        14.000           1.250
  13232321.473   -48474105.350 7 -37454591.467 4        22.250           3.500
  15424660.465   -35598835.478 6 -27739348.294 1        12.750           0.875
  15990567.379    -5273161.267 3  -3967315.321 1         5.500           0.500
  14455473.582   -40853542.927 6 -31833930.795 1        16.750           1.219
  14223197.137   -24023811.841 6 -18548174.014 2        18.000           1.750
 98  2 12  5 19 59.9720000  0  7 06 26 17 10 22 30 23
  12001766.387   -63983008.941 7 -49856883.079 3        25.500           2.813
  14336239.074   -25108998.961 6 -19410781.267 1        13.750           1.219
  13203455.645   -48625813.998 7 -37572805.978 3        23.000           3.469
  15421591.231   -35614975.686 6 -27751925.076 1        12.750           0.813
  15958398.004    -5442236.167 4  -4099061.994 1         7.000           0.344
  14451532.809   -40874256.136 6 -31850070.961 1        15.500           1.125
  14185772.723   -24220474.245 6 -18701417.434 2        17.250           1.813
 98  2 12  5 20 29.9720000  0  7 06 26 17 10 22 30 23
  11978318.153   -64106223.347 7 -49952894.307 3        25.250           2.813
  14302865.106   -25284408.643 6 -19547464.123 1        14.250           1.188
  13174616.590   -48777366.452 7 -37690898.793 3        23.000           3.469
  15418544.637   -35630970.906 6 -27764388.885 1        12.000           0.938
  15926310.567    -5610845.484 4  -4230445.914 1         6.500           0.375
  14447633.809   -40894749.002 6 -31866039.443 1        16.000           1.281
  14148407.324   -24416821.551 6 -18854415.329 2        16.250           1.875
 98  2 12  5 20 59.9720000  0  7 06 26 17 10 22 30 23
  11954957.481   -64228986.029 7 -50048553.547 3        25.000           2.719
  14269551.848   -25459443.659 6 -19683855.020 1        13.500           1.281
  13145803.465   -48928779.464 7 -37808882.929 4        23.000           3.531
  15415522.512   -35646843.859 5 -27776757.431 1        11.500           0.813
  15894319.645    -5778984.023 4  -4361462.958 1         6.750           0.344
  14443773.613   -40915038.532 6 -31881849.478 1        16.500           1.219
  14111106.965   -24612850.614 6 -19007165.227 2        16.750           1.844
 98  2 12  5 21 29.9720000  0  7 06 26 17 10 22 30 23
  11931683.793   -64351296.145 7 -50143860.136 3        26.000           2.750
  14236316.910   -25634122.942 6 -19819968.723 1        14.250           1.281
  13117015.035   -49080050.542 7 -37926756.490 4        23.250           3.500
  15412521.332   -35662612.702 5 -27789044.825 1        11.250           0.813
  15862410.254    -5946660.712 4  -4492120.121 1         7.250           0.250
  14439944.246   -40935153.131 6 -31897523.198 1        14.750           1.156
  14073865.309   -24808553.327 6 -19159660.841 2        17.750           1.875
 98  2 12  5 21 59.9720000  0  7 06 26 17 10 22 30 23
  11908496.473   -64473151.347 7 -50238812.239 3        25.250           2.813
  14203140.942   -25808452.362 6 -19955809.820 1        14.250           1.313
  13088258.270   -49231168.762 7 -38044510.932 4        23.750           3.531
  15409540.684   -35678296.475 5 -27801265.976 1        11.500           0.781
  15830588.379    -6113890.722 5  -4622429.257 1         7.750           0.313
  14436148.926   -40955100.590 6 -31913066.694 1        16.000           1.219
  14036692.309   -25003900.360 6 -19311879.308 2        16.750           1.906
 98  2 12  5 22 29.9720000  0  7 06 26 17 10 22 30 23
  11885392.543   -64594560.959 7 -50333417.147 3        25.500           2.844
  14170031.285   -25982430.616 6 -20091377.272 1        13.750           1.281
  13059532.746   -49382135.504 7 -38162147.343 3        23.500           3.375
  15406574.926   -35693882.997 5 -27813411.306 1        11.000           0.688
  15798850.629    -6280667.074 5  -4752384.869 1         8.750           0.438
  14432385.707   -40974876.345 6 -31928476.357 1        16.500           1.375
  13999584.043   -25198901.487 6 -19463828.225 2        17.250           2.031
 98  2 12  5 22 59.9720000  0  7 06 26 17 10 22 30 23
  11862370.410   -64715535.325 7 -50427682.883 3        25.250           2.813
  14136992.176   -26156040.921 6 -20226658.016 1        13.250           1.313
  13030840.379   -49532922.249 7 -38279643.493 4        23.500           3.531
  15403627.301   -35709354.342 5 -27825466.914 1        10.750           0.781
  15767199.707    -6446992.880 5  -4881989.403 1         8.000           0.406
  14428655.551   -40994476.463 6 -31943749.201 1        14.750           1.156
  13962539.028   -25393575.911 6 -19615522.561 2        17.500           2.063
 98  2 12  5 23 29.9720000  0  7 06 26 17 10 22 30 23
  11839435.856   -64836065.666 7 -50521602.632 3        25.500           2.813
  14104033.778   -26329258.275 6 -20361632.550 1        14.500           1.375
  13002183.379   -49683508.501 7 -38396983.419 4        23.500           3.656
  15400704.160   -35724714.123 5 -27837435.570 1        10.750           0.781
  15735634.574    -6612868.072 5  -5011242.822 1         9.500           0.375
  14424963.106   -41013886.462 6 -31958873.869 1        14.750           1.000
  13925555.551   -25587927.478 6 -19766965.333 2        17.500           1.938
 98  2 12  5 23 59.9720000  0  7 06 26 17 10 22 30 23
  11816583.278   -64956143.561 7 -50615169.833 3        25.250           2.781
  14071152.692   -26502060.843 6 -20496283.886 1        14.500           1.469
  12973565.668   -49833896.151 7 -38514168.588 3        24.250           3.469
  15397806.199   -35739954.214 5 -27849310.972 1        10.750           0.719
  15704157.504    -6778285.158 5  -5140139.280 1         9.250           0.375
  14421306.832   -41033092.731 6 -31973839.781 1        16.250           1.188
  13888629.160   -25781973.604 6 -19918170.099 2        17.250           1.938
 98  2 12  5 24 29.9710000  0  7 06 26 17 10 22 30 23
  11793815.780   -65075780.800 7 -50708393.657 3        25.500           2.844
  14038344.984   -26674435.097 6 -20630601.463 1        14.000           1.313
  12944986.445   -49984088.355 7 -38631201.461 4        24.000           3.500
  15394932.382   -35755066.930 5 -27861087.124 1        11.250           0.688
  15672768.468    -6943235.408 5  -5268671.936 1         8.000           0.375
  14417690.827   -41052104.369 6 -31988654.054 1        15.250           1.344
  13851759.741   -25975729.270 6 -20069148.520 2        18.000           1.938
 98  2 12  5 24 59.9710000  0  7 06 26 17 10 22 30 23
  11771135.273   -65194972.933 7 -50801270.654 3        25.500           2.844
  14005628.609   -26846373.756 6 -20764579.616 1        14.750           1.344
  12916444.398   -50134079.156 7 -38748077.398 4        24.250           3.625
  15392078.616   -35770056.593 5 -27872767.384 1        11.250           0.688
  15641464.882    -7107723.499 5  -5396844.514 1         9.750           0.469
  14414107.976   -41070925.835 6 -32003320.165 1        15.250           1.281
  13814945.405   -26169191.724 6 -20219898.475 2        17.750           2.125
 98  2 12  5 25 29.9710000  0  7 06 26 17 10 22 30 23
  11748540.366   -65313710.055 7 -50893793.094 3        25.500           2.813
  13972991.546   -27017876.162 6 -20898217.833 1        14.750           1.469
  12887934.491   -50283895.492 7 -38864817.385 4        24.500           3.563
  15389246.624   -35784926.506 5 -27884354.306 1        10.750           0.938
  15610254.413    -7271742.683 5  -5524651.671 1         8.750           0.438
  14410563.015   -41089562.709 6 -32017842.393 1        15.250           0.906
  13778187.804   -26362344.259 6 -20370406.939 2        17.250           1.938
 98  2 12  5 25 59.9710000  0  7 06 26 17 10 22 30 23
  11726030.804   -65432008.682 7 -50985973.839 3        25.750           2.875
  13940440.445   -27188940.443 6 -21031514.661 1        15.250           1.469
  12859455.241   -50433555.743 7 -38981435.753 4        25.000           3.500
  15386446.757   -35799663.294 5 -27895837.538 1        11.000           0.813
  15579131.296    -7435286.051 5  -5652088.061 1         8.500           0.500
  14407045.952   -41108031.598 6 -32032233.733 1        13.750           1.063
  13741496.374   -26555160.624 6 -20520653.430 2        18.000           2.063
 98  2 12  5 26 29.9710000  0  7 06 26 17 10 22 30 23
  11703601.687   -65549868.643 7 -51077812.777 3        25.750           2.906
  13907972.835   -27359578.411 6 -21164479.294 1        15.500           1.438
  12831004.476   -50583058.839 7 -39097931.654 4        24.000           3.531
  15383662.960   -35814273.384 5 -27907222.045 1        10.750           0.844
  15548103.585    -7598353.431 5  -5779153.574 1         8.750           0.500
  14403564.124   -41126338.221 6 -32046498.650 1        14.750           1.219
  13704873.124   -26747610.431 6 -20670614.314 2        18.250           2.125
 98  2 12  5 26 59.9710000  0  7 06 26 17 10 22 30 23
  11681261.116   -65667262.549 7 -51169288.556 3        25.000           2.813
  13875579.140   -27529797.253 6 -21297117.333 1        14.750           1.469
  12802587.851   -50732396.335 7 -39214298.525 4        24.750           3.531
  15380907.187   -35828754.987 5 -27918506.415 1        11.500           0.969
  15517160.054    -7760948.992 5  -5905851.431 1         7.750           0.563
  14400112.624   -41144473.040 6 -32060629.696 1        14.250           1.094
  13668324.999   -26939679.859 6 -20820278.774 2        17.750           2.125
 98  2 12  5 27 29.9710000  0  7 06 26 17 10 22 30 23
  11659012.273   -65784195.720 7 -51260405.313 3        26.000           2.844
  13843270.515   -27699597.592 6 -21429429.273 1        15.000           1.406
  12774200.015   -50881576.412 7 -39330542.731 3        24.500           3.406
  15378176.187   -35843109.823 6 -27929692.000 1        12.000           0.875
  15486312.835    -7923077.460 5  -6032185.302 1         9.000           0.469
  14396692.624   -41162437.595 6 -32074628.031 1        13.250           0.844
  13631844.640   -27131376.845 6 -20969653.026 2        17.750           2.156
 98  2 12  5 27 59.9710000  0  7 06 26 17 10 22 30 23
  11636844.585   -65900677.175 7 -51351170.090 3        25.750           2.906
  13811032.570   -27868978.454 6 -21561414.346 1        15.750           1.344
  12745849.999   -51030562.905 7 -39446636.090 4        24.000           3.594
  15375465.593   -35857352.600 6 -27940790.271 1        12.000           0.719
  15455544.187    -8084744.001 5  -6158159.247 1         8.500           0.500
  14393304.757   -41180243.134 6 -32088502.478 1        13.500           1.000
  13595436.655   -27322711.500 6 -21118744.959 2        18.000           2.156
 98  2 12  5 28 29.9710000  0  7 06 26 17 10 22 30 23
  11614768.077   -66016688.778 7 -51441568.747 3        25.000           2.875
  13778878.749   -28037954.083 6 -21693083.649 1        15.750           1.438
  12717535.335   -51179345.225 7 -39562570.353 3        24.000           3.375
  15372773.445   -35871506.061 5 -27951818.930 1        11.000           0.813
  15424868.960    -8245963.273 5  -6283784.643 1         9.000           0.594
  14389948.280   -41197894.292 6 -32102256.615 1        14.000           1.094
  13559090.077   -27513717.237 6 -21267580.570 2        18.000           2.094
 98  2 12  5 28 59.9710000  0  7 06 26 17 10 22 30 23
  11592782.773   -66132232.366 7 -51531602.715 3        25.750           2.844
  13746802.968   -28206513.225 6 -21824428.425 2        15.750           1.531
  12689261.874   -51327925.670 7 -39678347.314 3        24.250           3.406
  15370092.710   -35885578.178 5 -27962784.222 1        11.250           0.750
  15394274.163    -8406731.132 5  -6409058.310 1         8.500           0.625
  14386612.749   -41215408.696 6 -32115904.222 1        13.250           1.031
  13522800.609   -27704411.244 6 -21416173.287 2        18.000           2.250
 98  2 12  5 29 29.9710000  0  7 06 26 17 10 22 30 23
  11570882.679   -66247312.345 7 -51621275.438 3        25.750           2.750
  13714805.710   -28374645.628 6 -21955440.668 1        15.500           1.438
  12661026.421   -51476302.704 7 -39793965.772 3        24.000           3.406
  15367432.054   -35899580.542 5 -27973695.158 1        11.750           0.750
  15363767.218    -8567033.107 5  -6533968.949 1         9.000           0.594
  14383303.101   -41232792.868 6 -32129450.337 1        12.500           0.906
  13486576.007   -27894783.284 6 -21564515.119 2        18.750           2.250
 98  2 12  5 29 59.9710000  0  7 06 26 17 10 22 30 23
  11549072.484   -66361918.051 7 -51710578.600 3        25.750           2.781
  13682898.273   -28542361.982 6 -22086128.719 1        16.000           1.375
  12632829.468   -51624477.785 7 -39909426.861 3        23.750           3.438
  15364779.655   -35913512.078 5 -27984550.907 1        11.250           0.813
  15333355.601    -8726866.641 5  -6658514.589 1         8.250           0.594
  14380020.234   -41250047.769 6 -32142895.723 1        13.500           1.000
  13450407.937   -28084831.562 6 -21712604.673 2        18.500           2.281
 98  2 12  5 30 29.9710000  0  7 06 26 17 10 22 30 23
  11527360.515   -66476028.431 7 -51799495.789 3        26.250           2.781
  13651056.937   -28709660.063 6 -22216490.846 1        16.250           1.438
  12604666.273   -51772482.941 7 -40024755.548 3        23.500           3.438
  15362142.429   -35927365.807 5 -27995346.017 1        11.000           0.750
  15303030.624    -8886215.511 5  -6782682.538 1         8.500           0.625
  14376766.679   -41267153.956 6 -32156225.238 1        13.750           1.000
  13414308.148   -28274552.911 6 -21860439.466 2        18.500           2.250
 98  2 12  5 30 59.9700000  0  7 06 26 17 10 22 30 23
  11505737.705   -66589653.286 7 -51888034.640 3        25.750           2.781
  13619305.377   -28876522.775 6 -22346513.729 1        16.000           1.438
  12576528.737   -51920332.631 7 -40139963.085 3        23.750           3.344
  15359521.424   -35941137.596 5 -28006077.290 1        10.750           0.625
  15272805.737    -9045060.030 5  -6906457.496 1         9.000           0.469
  14373538.783   -41284118.887 6 -32169444.664 1        13.250           0.875
  13378271.307   -28463917.090 6 -22007995.952 2        19.000           2.406
 98  2 12  5 31 29.9700000  0  7 06 26 17 10 22 30 23
  11484203.565   -66702811.004 7 -51976209.490 3        25.750           2.719
  13587631.494   -29042970.030 6 -22476212.875 2        15.750           1.531
  12548419.205   -52068053.324 7 -40255070.111 4        23.750           3.563
  15356917.432   -35954829.287 5 -28016746.114 1         9.250           0.563
  15242669.377    -9203415.448 5  -7029851.363 1         8.750           0.469
  14370337.244   -41300941.441 6 -32182553.157 1        13.000           0.781
  13342302.315   -28652939.090 6 -22155285.804 3        19.750           2.500
 98  2 12  5 31 59.9700000  0  7 06 26 17 10 22 30 23
  11462762.658   -66815496.174 7 -52064016.124 3        26.250           2.719
  13556039.799   -29208976.582 6 -22605568.614 1        15.500           1.406
  12520331.283   -52215648.816 7 -40370079.578 4        24.250           3.531
  15354324.158   -35968432.028 5 -28027345.656 1         9.250           0.625
  15212630.619    -9361271.418 5  -7152856.024 1         8.250           0.500
  14367165.463   -41317611.106 6 -32195542.484 1        13.250           1.000
  13306399.994   -28841602.985 6 -22302296.616 2        18.500           2.406
 98  2 12  5 32 29.9700000  0  7 06 26 17 10 22 30 23
  11441404.158   -66927724.102 7 -52151466.465 3        25.500           2.844
  13524536.799   -29374527.108 6 -22734568.992 1        16.250           1.406
  12492268.674   -52363128.052 7 -40484998.455 3        24.000           3.438
  15351757.026   -35981959.270 5 -28037886.385 1         9.250           0.469
  15182687.002    -9518630.294 5  -7275473.333 1         8.250           0.500
  14364020.065   -41334146.779 6 -32208427.439 1        14.000           1.031
  13270570.487   -29029896.795 6 -22449019.051 3        19.250           2.625
 98  2 12  5 32 59.9700000  0  7 06 26 17 10 22 30 23
  11420134.565   -67039507.072 7 -52238570.086 3        26.000           2.656
  13493124.846   -29539605.530 6 -22863201.517 1        16.750           1.438
  12464229.479   -52510461.690 7 -40599803.878 3        23.750           3.438
  15349193.635   -35995406.610 5 -28048364.823 1         9.250           0.656
  15152834.354    -9675500.054 5  -7397709.525 1         8.000           0.500
  14360895.612   -41350566.685 6 -32221222.175 1        12.750           1.031
  13234810.651   -29217813.004 7 -22595447.242 3        20.000           2.594
 98  2 12  5 33 29.9700000  0  7 06 26 17 10 22 30 23
  11398947.354   -67150840.653 7 -52325323.534 3        25.750           2.719
  13461800.291   -29704210.377 6 -22991465.012 1        16.750           1.469
  12436229.158   -52657621.947 7 -40714474.204 4        24.250           3.625
  15346649.666   -36008778.415 5 -28058784.427 1         8.500           0.531
  15123079.846    -9831884.784 5  -7519567.774 1         8.500           0.563
  14357792.471   -41366858.874 5 -32233917.422 1        11.750           0.750
  13199118.822   -29405374.663 6 -22741599.164 3        19.000           2.594
 98  2 12  5 33 59.9700000  0  7 06 26 17 10 22 30 23
  11377848.768   -67261712.346 7 -52411717.070 3        26.000           2.719
  13430571.682   -29868333.419 6 -23119353.081 1        16.750           1.438
  12408263.572   -52804579.877 7 -40828986.862 3        23.750           3.375
  15344121.033   -36022070.162 5 -28069141.619 1         8.750           0.438
  15093409.643    -9987781.797 5  -7641045.976 1         8.250           0.438
  14354718.322   -41383023.913 6 -32246513.556 1        12.500           0.781
  13163491.541   -29592592.657 7 -22887483.294 3        20.000           2.719
 98  2 12  5 34 29.9700000  0  7 06 26 17 10 22 30 23
  11356840.237   -67372115.518 7 -52497745.524 3        26.250           2.781
  13399428.299   -30031983.482 6 -23246872.594 1        16.250           1.469
  12380339.049   -52951314.057 7 -40943325.186 4        23.500           3.531
  15341608.572   -36035282.957 5 -28079437.322 1         9.000           0.625
  15063833.768   -10143193.646 5  -7762146.134 1         8.250           0.500
  14351664.549   -41399075.348 6 -32259021.180 1        13.250           0.938
  13127925.744   -29779488.356 6 -23033116.278 3        19.000           2.594
 98  2 12  5 34 59.9700000  0  7 06 26 17 10 22 30 23
  11335923.237   -67482038.769 7 -52583400.017 3        25.750           2.719
  13368374.065   -30195166.871 6 -23374028.469 1        16.750           1.406
  12352461.432   -53097819.662 7 -41057485.386 4        23.750           3.531
  15339106.588   -36048419.984 5 -28089673.939 1         8.750           0.406
  15034356.143   -10298118.828 5  -7882867.065 1         8.000           0.531
  14348634.463   -41415003.651 6 -32271432.859 1        12.750           0.938
  13092422.533   -29966076.750 6 -23178509.819 3        19.750           2.625
 98  2 12  5 35 29.9700000  0  7 06 26 17 10 22 30 23
  11315098.729   -67591468.102 7 -52668669.636 3        26.000           2.719
  13337412.151   -30357872.727 6 -23500812.236 1        16.250           1.406
  12324623.619   -53244103.052 7 -41171472.439 4        23.250           3.656
  15336619.713   -36061483.124 5 -28099853.008 1        10.000           0.438
  15004968.119   -10452551.550 5  -8003204.247 1         9.000           0.438
  14345624.916   -41430799.080 6 -32283741.010 1        12.500           0.844
  13056977.291   -30152336.435 7 -23323647.205 3        20.000           2.719
 98  2 12  5 35 59.9700000  0  7 06 26 17 10 22 30 23
  11294368.658   -67700404.933 7 -52753555.488 3        25.500           2.781
  13306542.908   -30520104.528 6 -23627226.608 1        16.500           1.469
  12296821.963   -53390200.946 7 -41285314.948 4        23.750           3.531
  15334147.565   -36074476.055 5 -28109977.356 1         9.000           0.438
  14975673.213   -10606506.323 5  -8123169.037 1         9.000           0.500
  14342641.112   -41446489.254 6 -32295967.141 1        13.000           0.781
  13021599.416   -30338245.343 6 -23468511.275 3        19.750           2.750
 98  2 12  5 36 29.9700000  0  7 06 26 17 10 22 30 23
  11273730.901   -67808858.704 7 -52838064.929 3        25.500           2.844
  13275761.612   -30681863.449 6 -23753272.494 1        16.750           1.469
  12269052.690   -53536140.327 7 -41399033.937 4        23.750           3.594
  15331688.104   -36087410.084 5 -28120055.793 1         9.750           0.500
  14946464.315   -10759984.470 5  -8242762.414 1         8.750           0.469
  14339673.822   -41462086.856 6 -32308121.127 1        12.750           0.656
  12986292.768   -30523785.361 6 -23613087.901 3        19.500           2.781
 98  2 12  5 36 59.9700000  0  7 06 26 17 10 22 30 23
  11253182.713   -67916835.701 7 -52922202.855 3        25.500           2.750
  13245068.533   -30843151.106 6 -23878951.178 2        16.250           1.500
  12241305.705   -53681940.840 7 -41512644.728 4        23.750           3.688
  15329236.260   -36100287.924 5 -28130090.482 1         8.750           0.469
  14917350.651   -10912983.742 5  -8361982.637 1         9.500           0.438
  14336722.737   -41477581.742 6 -32320195.056 1        12.250           0.688
  12951058.393   -30708935.868 7 -23757361.013 3        20.000           2.750
 98  2 12  5 37 29.9700000  0  7 06 26 17 10 22 30 23
  11232727.338   -68024335.599 7 -53005969.020 3        26.250           2.719
  13214465.869   -31003975.863 6 -24004269.157 1        16.500           1.469
  12213587.369   -53827608.875 7 -41626152.273 4        23.750           3.688
  15326799.572   -36113108.985 5 -28140080.903 1        10.000           0.563
  14888331.018   -11065499.144 5  -8480825.828 1         9.500           0.438
  14333792.854   -41492987.177 6 -32332199.310 1        12.000           0.844
  12915901.135   -30893695.932 6 -23901329.892 3        19.750           2.781
 98  2 12  5 37 59.9690000  0  7 06 26 17 10 22 30 23
  11212360.318   -68131353.407 7 -53089359.527 3        25.250           2.750
  13183948.763   -31164335.745 6 -24129224.894 2        16.750           1.594
  12185895.677   -53973128.730 7 -41739544.364 4        23.250           3.656
  15324367.693   -36125873.730 5 -28150027.464 1         8.750           0.344
  14859398.279   -11217515.432 5  -8599280.098 1         9.750           0.406
  14330879.505   -41508296.209 6 -32344128.411 1        12.250           1.063
  12880814.099   -31078082.929 7 -24045008.071 3        20.000           2.750
 98  2 12  5 38 29.9690000  0  7 06 26 17 10 22 30 23
  11192088.622   -68237892.634 7 -53172377.121 3        26.000           2.844
  13153525.864   -31324228.430 6 -24253816.578 2        17.000           1.531
  12158230.825   -54118492.014 7 -41852814.452 4        22.500           3.719
  15321944.638   -36138595.401 5 -28159940.450 1        10.250           0.375
  14830568.872   -11369027.690 5  -8717341.625 1        10.000           0.531
  14327986.888   -41523496.726 6 -32355972.973 1        12.250           0.875
  12845790.989   -31262123.794 6 -24188416.532 3        19.000           2.750
 98  2 12  5 38 59.9690000  0  7 06 26 17 10 22 30 23
  11171908.739   -68343931.658 7 -53255004.948 3        25.500           2.719
  13123186.989   -31483640.387 6 -24378033.682 2        16.750           1.500
  12130606.013   -54263678.236 7 -41965946.566 4        23.500           3.813
  15319536.443   -36151270.216 5 -28169816.875 1         9.750           0.406
  14801836.029   -11520032.104 5  -8835007.410 1         9.000           0.531
  14325116.599   -41538583.115 6 -32367728.577 1        12.000           0.750
  12810838.419   -31445810.560 7 -24331549.065 3        20.000           2.906
 98  2 12  5 39 29.9690000  0  7 06 26 17 10 22 30 23
  11151827.044   -68449471.569 7 -53337243.849 3        25.500           2.813
  13092944.239   -31642554.456 6 -24501862.810 2        16.500           1.688
  12103014.450   -54408674.318 7 -42078930.515 4        23.750           3.656
  15317130.833   -36163904.411 5 -28179661.702 1        10.500           0.469
  14773192.614   -11670531.850 5  -8952279.960 1         9.500           0.469
  14322260.818   -41553581.554 5 -32379415.667 1        11.000           0.781
  12775948.669   -31629156.493 7 -24474416.024 3        20.000           2.875
 98  2 12  5 39 59.9690000  0  7 06 26 17 10 22 30 23
  11131836.060   -68554522.556 7 -53419101.771 3        25.750           2.813
  13062804.044   -31800961.147 6 -24625296.575 2        17.250           1.625
  12075455.169   -54553495.723 7 -42191778.360 4        23.250           3.813
  15314734.739   -36176511.024 5 -28189485.013 1         9.750           0.563
  14744650.271   -11820539.908 5  -9069169.372 1         9.000           0.531
  14319422.583   -41568505.179 6 -32391044.471 1        12.000           0.688
  12741123.833   -31812157.138 6 -24617013.915 3        19.750           2.969
 98  2 12  5 40 29.9690000  0  7 06 26 17 10 22 30 23
  11111938.302   -68659085.061 7 -53500579.058 3        25.750           2.844
  13032753.849   -31958881.182 6 -24748351.136 2        17.500           1.656
  12047927.724   -54698165.152 7 -42304507.777 4        23.750           3.750
  15312335.810   -36189090.267 5 -28199287.017 1         9.500           0.563
  14716198.591   -11970056.668 5  -9185675.954 1         8.750           0.469
  14316591.646   -41583375.598 5 -32402631.820 1        11.000           0.875
  12706367.669   -31994796.142 6 -24759329.997 3        19.750           2.813
 98  2 12  5 40 59.9690000  0  7 06 26 17 10 22 30 23
  11092131.849   -68763165.615 7 -53581680.799 3        25.250           2.781
  13002793.864   -32116318.054 6 -24871029.215 2        17.000           1.625
  12020422.919   -54842683.186 7 -42417119.235 4        23.500           3.844
  15309955.372   -36201632.147 5 -28209059.919 1         9.250           0.563
  14687836.622   -12119084.179 5  -9301801.308 1         8.500           0.438
  14313772.091   -41598195.271 5 -32414179.646 1        11.250           0.906
  12671685.771   -32177060.998 7 -24901354.533 3        21.000           2.844
 98  2 12  5 41 29.9690000  0  7 06 26 17 10 22 30 23
  11072416.232   -68866769.124 7 -53662410.817 3        25.750           2.750
  12972925.185   -32273263.922 6 -24993324.685 2        17.000           1.594
  11992952.958   -54987050.572 7 -42529613.289 4        23.500           3.813
  15307570.755   -36214128.979 5 -28218797.696 1         9.500           0.625
  14659568.482   -12267616.617 5  -9417540.877 1         8.000           0.563
  14310960.997   -41612956.528 5 -32425681.949 1        10.750           0.750
  12637069.552   -32358949.344 7 -25043085.693 3        20.250           2.969
 98  2 12  5 41 59.9690000  0  7 06 26 17 10 22 30 23
  11052793.232   -68969888.531 7 -53742763.611 3        25.750           2.875
  12943152.060   -32429731.229 6 -25115247.251 2        16.750           1.750
  11965507.919   -55131270.433 7 -42641992.401 4        23.500           3.844
  15305212.279   -36226575.451 5 -28228496.236 1        10.000           0.625
  14631405.513   -12415648.512 5  -9532890.433 1         8.500           0.531
  14308169.497   -41627644.970 5 -32437127.521 1        10.750           0.781
  12602532.036   -32540448.005 7 -25184513.188 3        21.000           2.781
 98  2 12  5 42 29.9690000  0  7 06 26 17 10 22 30 23
  11033262.474   -69072531.578 7 -53822745.213 3        26.000           2.781
  12913469.013   -32585718.639 6 -25236795.860 2        17.250           1.719
  11938096.333   -55275322.386 7 -42754240.657 4        23.250           3.969
  15302844.669   -36238968.140 5 -28238152.896 1         9.000           0.688
  14603329.044   -12563193.159 5  -9647860.291 1         9.250           0.563
  14305388.677   -41642249.853 5 -32448507.954 1        10.250           0.656
  12568067.232   -32721567.041 7 -25325644.888 3        21.000           2.844
 98  2 12  5 42 59.9690000  0  7 06 26 17 10 22 30 23
  11013821.739   -69174693.087 7 -53902351.601 3        25.750           2.875
  12883880.950   -32741190.578 6 -25357942.817 2        17.250           1.781
  11910723.075   -55419184.384 7 -42866340.918 4        24.000           3.906
  15300499.935   -36251304.790 5 -28247765.833 1         8.250           0.625
  14575339.927   -12710251.765 5  -9762451.433 1         9.000           0.563
  14302628.364   -41656758.184 5 -32459813.198 1        11.000           0.688
  12533670.318   -32902309.379 7 -25466483.039 3        20.750           3.031
 98  2 12  5 43 29.9690000  0  7 06 26 17 10 22 30 23
  10994474.419   -69276359.232 7 -53981571.976 3        25.500           2.750
  12854392.779   -32896154.404 6 -25478693.837 2        17.750           1.688
  11883381.169   -55562860.210 7 -42978296.103 4        23.750           3.938
  15298160.200   -36263586.851 4 -28257336.285 1         7.000           0.594
  14547449.950   -12856816.684 5  -9876657.882 1         8.500           0.625
  14299881.958   -41671187.291 5 -32471056.672 1        11.500           0.875
  12499348.982   -33082684.651 7 -25607035.178 3        21.250           2.844
 98  2 12  5 43 59.9690000  0  7 06 26 17 10 22 30 23
  10975220.568   -69377537.845 7 -54060412.474 3        25.750           2.781
  12825002.943   -33050614.068 6 -25599052.001 2        17.000           1.688
  11856070.013   -55706361.930 7 -43090115.612 4        24.000           3.969
  15295832.021   -36275826.875 4 -28266873.955 1         7.250           0.469
  14519652.411   -13002883.627 5  -9990476.288 1         9.250           0.688
  14297147.357   -41685553.024 5 -32482250.770 1        10.750           0.844
  12465094.888   -33262698.174 7 -25747305.434 3        21.000           3.063
 98  2 12  5 44 29.9690000  0  7 06 26 17 10 22 30 23
  10956059.443   -69478226.824 7 -54138871.429 3        25.500           2.750
  12795708.341   -33204553.460 6 -25719004.745 2        18.000           1.750
  11828799.029   -55849691.520 7 -43201801.003 4        23.750           3.938
  15293511.747   -36288032.874 3 -28276385.123 1         5.750           0.469
  14491953.763   -13148450.180 5 -10103904.787 1         9.250           0.594
  14294424.411   -41699865.610 5 -32493403.435 1        10.250           0.813
  12430906.169   -33442359.405 7 -25887301.174 3        21.500           3.031
 98  2 12  5 44 59.9680000  0  7 06 26 17 10 22 30 23
  10936994.516   -69578418.110 7 -54216942.577 3        25.750           2.906
  12766510.742   -33357981.037 6 -25838558.689 2        18.000           1.750
  11801555.492   -55992857.269 7 -43313358.719 4        24.000           3.938
  15291191.242   -36300211.053 3 -28285874.636 1         6.000           0.563
  14464355.406   -13293498.554 5 -10216929.501 1         9.500           0.500
  14291705.719   -41714152.171 5 -32504535.840 1        10.000           0.625
  12396785.735   -33621663.165 7 -26027018.372 3        21.500           3.031
 98  2 12  5 45 29.9680000  0  7 06 26 17 10 22 30 23
  10918019.227   -69678122.219 7 -54294634.095 3        25.500           2.875
  12737411.602   -33510908.748 6 -25957723.121 2        17.750           1.656
  11774339.164   -56135876.716 7 -43424802.438 4        24.250           4.063
  15288877.821   -36312366.155 3 -28295346.155 1         5.750           0.438
  14436853.063   -13438042.601 5 -10329561.247 1         9.750           0.625
  14288993.203   -41728414.209 5 -32515649.132 1        10.500           0.500
  12362731.610   -33800613.140 7 -26166459.893 3        21.500           3.313
 98  2 12  5 45 59.9680000  0  8 21 06 26 17 10 22 30 23
  15476369.844          -0.43313                         5.500
  10899140.500   -69777348.323 7 -54371953.157 3        25.500           2.906
  12708409.735   -33663316.821 6 -26076482.644 2        17.750           1.781
  11747152.906   -56278737.480 7 -43536122.505 4        24.500           4.156
  15286569.961   -36324505.332 4 -28304805.260 1         7.000           0.438
  14409436.813   -13582087.954 5 -10441804.408 1         9.250           0.625
  14286286.055   -41742633.803 5 -32526729.340 1        10.500           0.563
  12328748.852   -33979192.766 7 -26305612.824 3        21.500           3.156
 98  2 12  5 46 29.9680000  0  8 21 06 26 17 10 22 30 23
  15436699.141     -208472.436 3        -0.04011         5.250           0.219
  10880348.844   -69876083.772 7 -54448889.885 3        25.500           2.875
  12679506.633   -33815206.121 6 -26194837.930 2        18.000           1.875
  11720001.242   -56421416.827 7 -43647301.204 4        24.250           4.063
  15284259.180   -36336628.304 4 -28314251.735 1         6.250           0.281
  14382119.524   -13725631.446 5 -10553656.486 1         8.500           0.688
  14283593.180   -41756787.890 5 -32537758.511 1        10.000           0.719
  12294840.914   -34157390.829 7 -26444468.440 3        21.000           3.219
 98  2 12  5 46 59.9680000  0  8 21 06 26 17 10 22 30 23
  15397057.266     -416795.294 3   -162329.535 1         5.250           0.281
  10861653.961   -69974335.543 7 -54525449.721 3        25.250           2.938
  12650697.071   -33966588.950 6 -26312798.560 2        17.750           1.813
  11692886.719   -56563917.425 7 -43758340.628 4        24.500           3.938
  15281959.117   -36348734.850 5 -28323685.429 1         7.750           0.375
  14354903.055   -13868680.450 5 -10665123.261 1         9.500           0.531
  14280913.453   -41770872.546 5 -32548733.584 1        10.000           0.719
  12261003.063   -34335201.319 7 -26583022.029 3        21.500           3.375
 98  2 12  5 47 29.9680000  0  8 21 06 26 17 10 22 30 23
  15357442.055     -624971.598 3   -324544.824 1         5.000           0.250
  10843049.336   -70072101.668 7 -54601631.123 3        25.500           2.875
  12621986.453   -34117463.268 6 -26430362.941 2        18.000           1.813
  11665802.977   -56706243.214 7                        24.500
  15279655.586   -36360831.812 5 -28333111.585 1         7.500           0.313
  14327773.344   -14011233.671 5                         9.500
  14278247.328   -41784872.427 5 -32559642.613 1        10.250           0.625
  12227240.297   -34512622.565 7 -26721272.331 3        21.250           3.094
 98  2 12  5 47 59.9680000  0  8 21 06 26 17 10 22 30 23
  15317860.094     -832996.042 3   -486641.803 1         5.750           0.313
  10824539.969   -70169366.935 7 -54677422.253 3        24.750           3.031
  12593373.563   -34267834.281 6 -26547535.151 2        18.750           1.844
  11638752.656   -56848384.664 7 -43980003.388 4        24.500           4.000
  15277357.516   -36372915.488 4 -28342527.448 1         7.000           0.344
  14300742.180   -14153273.336 5 -10886883.997 1         9.250           0.625
  14275597.531   -41798804.329 5 -32570498.620 1        10.500           0.688
  12193551.664   -34689660.623 7 -26859224.038 3        21.000           3.469
 98  2 12  5 48 29.9680000  0  8 21 06 26 17 10 22 30 23
  15278302.406    -1040862.448 3   -648615.667 1         6.000           0.250
  10806128.305   -70266122.953 7 -54752816.570 3        25.000           3.031
  12564852.656   -34417708.559 6 -26664320.284 2        18.000           1.875
  11611735.696   -56990355.448 7 -44090629.976 4        24.500           3.969
  15275057.867   -36384985.565 5 -28351932.675 1         8.250           0.156
  14273814.258   -14294797.032 5 -10997162.211 1         9.000           0.531
  14272955.281   -41812698.132 5 -32581324.937 1        10.500           0.469
  12159934.086   -34866321.971 7 -26996882.190 3        21.000           3.438
 98  2 12  5 48 59.9680000  0  8 21 06 26 17 10 22 30 23
  15238771.914    -1248582.167 3   -810475.183 1         6.000           0.375
  10787816.906   -70362352.140 7 -54827800.366 3        25.000           3.063
  12536429.625   -34567071.710 6 -26780707.138 2        18.250           1.781
  11584750.891   -57132165.141 7 -44201131.028 4        24.500           4.063
  15272772.625   -36397029.527 5 -28361317.536 1         9.000           0.156
  14246983.227   -14435796.008 5 -11107031.559 1         9.500           0.625
  14270315.344   -41826569.272 5 -32592133.621 1         9.500           0.656
  12126389.352   -35042606.657 7 -27134246.857 3        21.250           3.375
 98  2 12  5 49 29.9680000  0  8 21 06 26 17 10 22 30 23
  15199270.328    -1456170.926 3   -972232.649 1         5.000           0.250
  10769606.422   -70458049.980 7 -54902370.124 3        25.000           3.063
  12508105.266   -34715908.864 6 -26896684.127 2        19.000           1.938
  11557796.883   -57273808.092 7 -44311502.155 4        24.500           4.094
  15270479.703   -36409048.464 5 -28370682.900 1         9.500           0.125
  14220256.328   -14576258.443 5 -11216482.833 1         9.750           0.500
  14267680.594   -41840423.559 5 -32602929.157 1         9.750           0.656
  12092914.336   -35218510.904 7 -27271315.065 4        20.750           3.531
 98  2 12  5 49 59.9680000  0  7 21 06 26 17 22 30 23
  15159798.625    -1663623.743 4  -1133884.209 1         6.750           0.313
  10751496.524   -70553223.588 7 -54976531.383 3        24.750           3.156
  12479887.117   -34864203.980 6 -27012238.749 2        18.000           1.906
  11530876.305   -57415276.866 7 -44421737.556 4        24.500           4.063
  14193625.008   -14716193.790 5 -11325523.388 1        10.000           0.406
  14265045.133   -41854261.758 5 -32613712.159 1         9.750           0.625
  12059512.383   -35394033.397 7 -27408085.822 4        20.750           3.563
 98  2 12  5 50 29.9680000  0  7 21 06 26 17 22 30 23
  15120340.258    -1870965.478 4  -1295449.143 1         7.250           0.281
  10733479.461   -70647899.350 7 -55050304.720 3        25.000           3.094
  12451771.500   -35011961.362 6 -27127374.353 2        18.500           1.938
  11503984.586   -57556589.089 7 -44531850.968 4        24.500           4.219
  14167092.375   -14855628.244 5 -11434173.641 1        10.500           0.594
  14262413.906   -41868087.614 5 -32624485.522 1         9.750           0.656
  12026182.133   -35569183.729 7 -27544566.578 4        20.750           3.688
 98  2 12  5 50 59.9680000  0  7 21 06 26 17 22 30 23
  15080906.742    -2078188.073 4  -1456921.237 1         7.250           0.344
  10715555.196   -70742085.985 7 -55123696.914 3        24.500           3.156
  12423760.360   -35159166.617 6 -27242079.734 2        18.250           2.000
  11477127.516   -57697725.661 7 -44641827.514 4        25.000           4.156
  14140652.539   -14994565.135 5 -11542436.199 1        10.250           0.563
  14259791.250   -41881887.354 5 -32635238.518 1         9.500           0.563
  11992926.664   -35743951.509 7 -27680749.240 4        20.500           3.625
 98  2 12  5 51 29.9670000  0  7 21 06 26 17 22 30 23
  15041499.363    -2285256.514 4  -1618273.209 1         7.000           0.250
  10697722.089   -70835797.971 7 -55196719.249 3        24.500           3.156
  12395856.105   -35305800.368 6 -27356339.785 2        18.750           1.969
  11450307.433   -57838677.423 7 -44751660.052 4        24.750           4.156
  14114308.722   -15133006.615 5 -11650312.695 1        10.750           0.469
  14257164.183   -41895671.111 5 -32645979.086 1         9.500           0.375
  11959745.448   -35918317.638 7 -27816618.937 4        21.000           3.563
 98  2 12  5 51 59.9670000  0  7 21 06 26 17 22 30 23
  15002124.198    -2492176.529 4  -1779509.522 1         7.250           0.063
  10679980.620   -70929035.889 7 -55269372.184 3        24.500           3.219
  12368057.370   -35451873.784 6 -27470163.214 2        18.500           2.031
  11423515.597   -57979458.721 7 -44861359.755 4        24.750           4.250
  14088057.308   -15270966.745 5 -11757814.132 1        10.250           0.594
  14254541.800   -41909451.378 5 -32656716.926 1         9.750           0.469
  11926638.581   -36092295.391 7 -27952186.004 4        21.000           3.656
 98  2 12  5 52 29.9670000  0  7 21 06 26 17 22 30 23
  14962782.777    -2698933.566 4  -1940618.863 1         6.250           0.125
  10662331.448   -71021778.035 7 -55341638.803 3        24.250           3.313
  12340367.823   -35597381.070 6 -27583545.497 2        18.750           2.031
  11396761.394   -58120060.681 7 -44970919.727 4        24.750           4.281
  14061896.933   -15408429.394 5 -11864927.901 1        10.000           0.563
  14251917.527   -41923241.080 5 -32667462.119 1         9.500           0.625
  11893610.573   -36265871.556 7 -28087440.135 4        22.000           3.594
 98  2 12  5 52 59.9670000  0  7 21 06 26 17 22 30 23
  14923469.308    -2905518.522 5  -2101594.097 1         8.000           0.219
  10644779.238   -71114020.650 7 -55413516.177 3        24.500           3.281
  12312783.941   -35742330.733 6 -27696493.274 2        19.000           2.063
  11370039.066   -58260485.318 7 -45080341.513 4        24.500           4.313
  14035833.089   -15545385.279 5 -11971646.785 1        10.500           0.594
  14249292.081   -41937045.461 5 -32678218.741 1        10.250           0.563
  11860655.519   -36439048.829 7 -28222383.447 4        21.000           3.781
 98  2 12  5 53 29.9670000  0  7 21 06 26 17 22 30 23
  14884188.198    -3111948.971 4  -2262448.921 1         7.000           0.344
  10627322.081   -71205756.640 7 -55484998.791 3        24.750           3.250
  12285308.191   -35886739.682 6 -27809019.711 2        19.250           2.031
  11343346.355   -58400743.144 7 -45189633.327 4        24.500           4.313
  14009869.206   -15681835.228 5 -12077971.445 1        10.250           0.625
  14246662.933   -41950865.518 5 -32688987.568 1         9.000           0.656
  11827770.550   -36611842.775 7 -28357028.053 4        21.500           3.656
 98  2 12  5 53 59.9670000  0  7 21 06 26 17 22 30 23
  14844932.448    -3318229.615 4  -2423187.032 1         6.750           0.250
  10609964.870   -71296968.739 7 -55556073.165 3        24.500           3.250
  12257922.034   -36030615.475 6 -27921130.705 2        18.750           2.094
  11316694.136   -58540823.180 7 -45298786.599 4        25.000           4.188
  13984000.066   -15817768.388 5 -12183893.411 1        10.500           0.594
  14244034.222   -41964674.284 5 -32699747.641 1         9.000           0.531
  11794963.894   -36784260.496 7 -28491379.513 4        21.750           3.656
 98  2 12  5 54 29.9670000  0  7 21 06 26 17 22 30 23
  14805708.683    -3524373.008 3  -2583818.197 1         5.750           0.250
  10592704.277   -71387670.653 7 -55626749.998 3        24.250           3.313
  12230643.503   -36173978.078 6 -28032841.802 2        19.000           2.188
  11290066.472   -58680739.155 7 -45407812.031 4        24.750           4.188
  13958230.277   -15953195.576 5 -12289421.114 1        10.250           0.594
  14241408.113   -41978477.625 5 -32710503.464 1         9.250           0.375
  11762221.745   -36956321.140 7 -28625452.718 4        21.500           3.625
 98  2 12  5 54 59.9670000  0  7 21 06 26 17 22 30 23
  14766508.292    -3730369.175 3  -2744334.624 1         5.250           0.250
  10575540.581   -71477870.679 7 -55697035.745 3        24.500           3.313
  12203462.566   -36316817.834 6 -28144145.499 2        19.000           2.125
  11263473.667   -58820497.212 7 -45516714.407 4        25.000           4.313
  13932557.417   -16088111.707 5 -12394550.593 1        10.000           0.563
  14238781.277   -41992266.274 5 -32721247.820 1         9.250           0.375
  11729548.378   -37128023.391 7 -28759246.669 4        22.000           3.625
 98  2 12  5 55 29.9670000  0  7 21 06 26 17 22 30 23
  14727330.402    -3936211.911 3  -2904731.548 1         5.000           0.313
  10558471.144   -71567570.783 7 -55766931.947 3        24.500           3.406
  12176378.995   -36459130.654 6 -28255038.590 2        19.250           2.281
  11236907.534   -58960098.701 7 -45625494.782 4        24.750           4.281
  13906986.956   -16222513.974 5 -12499279.651 1        10.500           0.563
  14236162.191   -42006038.895 5 -32731979.725 1         9.250           0.469
  11696942.175   -37299358.174 7 -28892754.275 3        21.500           3.438
 98  2 12  5 55 59.9670000  0  7 21 06 26 17 22 30 23
  14688202.355    -4141878.748 3  -3064991.349 1         5.250           0.313
  10541493.034   -71656781.412 7 -55836446.739 3        24.250           3.344
  12149400.933   -36600907.506 6 -28365514.040 2        19.250           2.344
  11210369.331   -59099554.367 7 -45734161.528 4        25.250           4.188
  13881505.167   -16356390.376 5 -12603598.952 1        10.750           0.719
  14233542.370   -42019809.592 5 -32742710.129 1         9.250           0.531
  11664411.292   -37470319.798 7 -29025971.115 4        21.750           3.500
 98  2 12  5 56 29.9670000  0  7 21 06 26 17 22 30 23
  14649094.823    -4347362.757 3  -3225108.712 1         5.500           0.250
  10524610.073   -71745504.790 7 -55905581.847 3        24.500           3.313
  12122523.988   -36742140.277 6 -28475565.537 2        19.000           2.188
  11183858.519   -59238861.675 7 -45842712.670 4        24.750           4.125
  13856127.425   -16489738.278 5 -12707506.425 1        10.250           0.656
  14230915.902   -42033587.533 5 -32753446.167 1         8.500           0.500
  11631952.644   -37640890.144 7 -29158883.049 4        22.000           3.500
 98  2 12  5 56 59.9670000  0  7 21 06 26 17 22 30 23
  14610025.136    -4552666.559 3  -3385085.695 1         5.250           0.125
  10507817.480   -71833758.544 7 -55974351.025 3        24.750           3.344
  12095756.222   -36882823.552 6 -28585188.858 2        19.250           2.250
  11157377.753   -59378024.317 7 -45951151.089 4        24.750           4.281
  13830850.402   -16622565.545 5 -12811008.211 1        10.000           0.594
  14228294.253   -42047372.741 5 -32764187.831 1         8.250           0.531
  11599568.323   -37811053.083 7 -29291477.537 4        21.750           3.531
 98  2 12  5 57 29.9670000  0  7 21 06 26 17 22 30 23
  14570986.222    -4757814.253 3  -3544941.005 1         6.000           0.125
  10491114.386   -71921539.724 7 -56042751.961 3        24.750           3.313
  12069090.667   -37022960.592 6 -28694386.538 2        19.250           2.406
  11130923.902   -59517035.723 7 -46059471.655 4        24.500           4.156
  13805671.964   -16754888.973 5 -12914117.401 1        10.250           0.563
  14225672.284   -42061164.184 5 -32774934.419 1         9.000           0.375
  11567265.964   -37980805.865 7 -29423752.416 3        22.000           3.344
 98  2 12  5 57 59.9670000  0  7 21 06 26 17 22 30 23
  14531977.222    -4962806.271 3  -3704675.027 1         5.750           0.344
  10474502.253   -72008835.867 7 -56110774.947 3        24.750           3.344
  12042526.902   -37162532.483 6 -28803143.839 2        19.250           2.469
  11104501.417   -59655888.769 7 -46167668.832 4        24.500           4.063
  13780582.847   -16886716.817 5 -13016840.412 1        10.500           0.625
  14223045.605   -42074964.739 5 -32785688.039 1         9.250           0.406
  11535045.831   -38150145.232 7 -29555705.162 4        22.000           3.594
 98  2 12  5 58 29.9660000  0  7 21 06 26 17 22 30 23
  14492996.756    -5167654.054 3  -3864296.628 1         5.750           0.281
  10457983.108   -72095641.327 7 -56178415.583 3        24.750           3.406
  12016073.819   -37301538.066 7                        20.000
  11078114.873   -59794564.603 7                        24.750
  13755589.256   -17018062.463 5 -13119187.677 1         9.750           0.531
  14220416.615   -42088776.666 5 -32796450.609 1         8.500           0.406
  11502899.576   -38319065.636 7 -29687331.426 3        22.250           3.469
 98  2 12  5 58 59.9660000  0  7 21 06 26 17 22 30 23
  14454042.592    -5372360.133 3  -4023807.801 1         5.250           0.250
  10441559.209   -72181945.209 7 -56245665.380 3        24.250           3.406
  11989730.897   -37439975.064 6 -29019332.843 2        19.500           2.156
  11051760.490   -59933051.217 7 -46383639.553 4        24.750           4.250
  13730691.811   -17148916.745 5 -13221152.085 1        10.750           0.563
  14217786.162   -42102603.896 5 -32807225.095 1         8.750           0.438
  11470831.506   -38487579.598 7 -29818640.988 3        21.500           3.438
 98  2 12  5 59 29.9660000  0  7 21 06 26 17 22 30 23
  14415120.592    -5576913.264 4  -4183199.830 1         6.500           0.281
  10425234.889   -72267725.646 7 -56312507.297 3        24.250           3.406
  11963499.053   -37577840.627 6 -29126760.545 2        19.500           2.375
  11025447.240   -60071334.910 7 -46491393.074 4        24.750           4.219
  13705885.311   -17279267.416 5 -13322724.062 1        10.750           0.531
  14215146.569   -42116467.561 5 -32818027.982 1         8.250           0.438
  11438838.022   -38655698.198 7 -29949642.475 3        21.250           3.406
 98  2 12  5 59 59.9660000  0  7 21 06 26 17 22 30 23
  14376226.350    -5781293.995 4  -4342457.481 1         6.500           0.375
  10409011.405   -72352990.395 7 -56378947.374 3        24.750           3.406
  11937369.530   -37715149.734 6 -29233754.639 2        19.250           2.375
  10999168.405   -60209417.857 7 -46598990.167 4        24.750           4.188
  13681181.498   -17409095.093 5 -13423888.515 1        10.500           0.500
  14212497.162   -42130385.410 5 -32828873.097 1         8.250           0.344
  11406921.733   -38823427.358 7 -30080340.512 3        21.250           3.313
 98  2 12  6  0 29.9660000  0  7 21 06 26 17 22 30 23
  14337363.170    -5985509.477 3  -4501586.393 1         5.750           0.281
  10392883.030   -72437738.436 7 -56444984.830 3        24.500           3.406
  11911348.373   -37851901.692 6 -29340314.596 2        19.250           2.344
  10972927.319   -60347303.935 7 -46706433.868 4        24.500           4.125
  13656580.240   -17538384.997 5 -13524633.915 1        11.000           0.531
  14209843.615   -42144353.457 5 -32839757.311 1         8.500           0.438
  11375077.444   -38990776.061 7 -30210742.080 4        21.500           3.625
 98  2 12  6  0 59.9660000  0  7 21 06 26 17 22 30 23
  14298542.951    -6189562.343 3  -4660588.559 1         6.000           0.281
  10376855.537   -72521966.434 7 -56510617.058 3        24.250           3.406
  11885431.162   -37988090.713 6 -29446435.894 2        19.250           2.281
  10946722.826   -60485011.495 7 -46813738.452 4        25.000           4.313
  13632085.983   -17667129.154 5 -13624954.059 1        11.000           0.500
  14207175.686   -42158370.086 5 -32850679.396 1         8.250           0.313
  11343305.647   -39157745.014 7 -30340847.736 4        21.250           3.500
 98  2 12  6  1 29.9660000  0  7 21 06 26 17 22 30 23
  14259738.787    -6393447.921 4  -4819460.391 1         6.500           0.313
  10360927.506   -72605673.620 7 -56575843.442 3        24.250           3.375
  11859625.248   -38123707.008 6 -29552110.918 2        19.750           2.281
  10920549.795   -60622560.241 7 -46920919.295 4        24.750           4.250
  13607684.420   -17795343.147 5 -13724861.091 1        10.500           0.500
  14204501.084   -42172420.084 5 -32861627.461 1         7.750           0.375
  11311602.998   -39324330.025 7 -30470654.214 4        21.000           3.500
 98  2 12  6  1 59.9660000  0  7 21 06 26 17 22 30 23
  14220972.162    -6597152.960 4  -4978191.572 1         6.250           0.281
  10345096.365   -72688861.159 7 -56640664.914 3        24.250           3.313
  11833931.209   -38258733.923 6 -29657326.678 3        19.750           2.531
  10894406.006   -60759957.937 7 -47027982.445 4        24.750           4.281
  13583385.092   -17923027.589 5 -13824355.488 1        11.000           0.469
  14201822.248   -42186482.339 5 -32872585.095 1         7.500           0.344
  11279972.748   -39490530.771 7 -30600161.276 3        21.000           3.375
 98  2 12  6  2 29.9660000  0  7 21 06 26 17 22 30 23
  14182246.639    -6800684.135 3  -5136787.242 1         6.000           0.344
  10329367.389   -72771521.487 7 -56705075.583 3        24.250           3.313
  11808347.209   -38393154.819 6 -29762070.218 2        19.500           2.344
  10868287.147   -60897207.239 7 -47134929.936 4        25.250           4.250
  13559188.498   -18050203.076 5 -13923453.294 1        11.000           0.500
  14199148.764   -42200564.331 4 -32883558.121 1         6.750           0.406
  11248422.342   -39656348.214 7 -30729369.651 4        21.000           3.531
 98  2 12  6  2 59.9660000  0  7 21 06 26 17 22 30 23
  14143547.889    -7004019.288 3  -5295230.163 1         6.000           0.313
  10313737.475   -72853650.185 7 -56769071.985 4        24.250           3.500
  11782885.365   -38526978.130 7 -29866348.107 2        20.000           2.281
  10842201.553   -61034291.821 7 -47241749.090 4        24.750           4.219
  13535081.615   -18176876.597 5 -14022159.952 1        10.500           0.594
  14196459.108   -42214671.992 5 -32894551.196 1         7.500           0.344
  11216942.592   -39821764.454 7 -30858265.402 4        21.000           3.594
 98  2 12  6  3 29.9660000  0  7 21 06 26 17 22 30 23
  14104894.459    -7207149.495 4  -5453513.403 1         7.000           0.313
  10298208.787   -72935252.859 7 -56832658.502 4        24.000           3.500
  11757534.030   -38660207.803 6 -29970163.425 2        19.750           2.250
  10816147.014   -61171200.031 7 -47348430.803 4        25.500           4.219
  13511065.444   -18303058.781 5 -14120483.758 1        10.250           0.563
  14193769.530   -42228806.201 5 -32905564.939 1         8.000           0.281
  11185542.951   -39986786.900 7 -30986854.300 4        21.000           3.563
 98  2 12  6  3 59.9660000  0  7 21 06 26 17 22 30 23
  14066276.358    -7410091.189 4  -5611649.739 1         6.500           0.219
  10282780.045   -73016335.603 7 -56895839.877 3        24.250           3.438
  11732290.897   -38792849.943 6 -30073520.923 2        19.750           2.344
  10790129.537   -61307923.103 7 -47454968.260 4        24.750           4.281
  13487150.905   -18428739.718 5 -14218416.982 1        10.250           0.594
  14191071.233   -42242988.327 5 -32916616.016 1         8.000           0.438
  11154217.045   -40151413.473 7 -31115134.721 4        21.250           3.688
 98  2 12  6  4 29.9660000  0  7 21 06 26 17 22 30 23
  14027691.576    -7612859.334 4  -5769650.839 1         7.000           0.313
  10267450.701   -73096901.828 7 -56958618.760 3        24.250           3.313
  11707156.358   -38924915.938 6 -30176429.472 2        19.500           2.313
  10764152.037   -61444445.913 7 -47561349.665 4        25.000           4.219
  13463329.756   -18553927.536 5 -14315965.951 1        10.250           0.625
  14188361.530   -42257232.927 5 -32927715.750 1         7.750           0.344
  11122964.983   -40315632.133 7 -31243097.292 4        21.500           3.844
 98  2 12  6  4 59.9660000  0  7 21 06 26 17 22 30 23
  13989139.397    -7815447.563 4  -5927511.789 1         7.250           0.375
  10252215.022   -73176959.886 7 -57021001.676 3        24.500           3.344
  11682136.225   -39056411.282 6 -30278893.366 2        19.500           2.375
  10738208.873   -61580776.281 7 -47667581.122 4        25.000           4.344
  13439603.295   -18678619.545 5 -14413128.581 1        10.750           0.656
  14185642.490   -42271541.295 5 -32938865.229 1         8.250           0.313
  11091791.358   -40479445.910 7 -31370744.376 4        21.000           3.719
 98  2 12  6  5 29.9650000  0  7 21 06 26 17 22 30 23
  13950623.189    -8017873.270 5  -6085246.070 1         7.500           0.438
  10237073.915   -73256529.987 7 -57083004.372 3        24.250           3.313
  11657222.478   -39187329.388 6 -30380907.457 2        19.500           2.313
  10712298.642   -61716933.963 7 -47773678.015 4        25.500           4.250
  13415969.532   -18802815.160 5 -14509904.399 1        10.500           0.656
  14182898.626   -42285933.666 4 -32950080.121 1         6.500           0.344
  11060692.376   -40642866.104 7 -31498084.763 4        21.250           3.844
 98  2 12  6  5 59.9650000  0  7 21 06 26 17 22 30 23
  13912129.587    -8220140.271 5  -6242856.689 1         8.000           0.281
  10222026.032   -73335608.344 7 -57144623.871 3        24.250           3.344
  11632417.876   -39317672.911 6 -30482473.827 2        19.500           2.313
  10686417.181   -61852929.806 7 -47879648.802 4        25.000           4.313
  13392429.228   -18926502.649 5 -14606284.283 1        10.500           0.656
  14180142.892   -42300421.131 4 -32961369.096 1         7.000           0.313
  11029674.822   -40805887.089 7 -31625114.081 4        21.750           3.813
 98  2 12  6  6 29.9650000  0  7 21 06 26 17 22 30 23
  13873673.611    -8422229.513 5  -6400328.816 1         8.000           0.313
  10207069.407   -73414198.767 7 -57205863.177 3        24.250           3.344
  11607721.197   -39447451.466 6 -30583599.956 2        19.250           2.250
  10660568.204   -61988778.425 7 -47985504.860 4        25.000           4.313
  13368992.251   -19049681.917 5 -14702268.137 1        10.750           0.656
  14177365.642   -42315015.828 5 -32972741.548 1         7.500           0.375
  10998724.572   -40968508.961 7 -31751832.403 4        21.500           3.938
 98  2 12  6  6 59.9650000  0  7 21 06 26 17 22 30 23
  13835249.853    -8624131.822 5  -6557655.276 1         8.000           0.344
  10192209.322   -73492297.915 7 -57266719.670 3        24.000           3.156
  11583136.017   -39576667.591 6 -30684287.836 2        19.750           2.281
  10634741.392   -62124499.967 7 -48091261.905 4        25.000           4.250
  13345649.603   -19172338.035 5 -14797844.362 1        11.250           0.656
  14174565.931   -42329719.896 5 -32984199.213 1         7.500           0.250
  10967857.157   -41130729.583 7 -31878238.081 4        21.500           4.000
